Missouri River (Missouri), Jefferson City (06910450)

StateMissouriLatestUnknown (35700 cfs)
RiverMissouri RiverRatingObservedEstimated
Updated2021-01-24 9:45 (1 hour ago)Flood - The river is flooding. Obstacles can be treacherous or deadly. The river should be avoided at this stage for casual trips and definitely for the inexperienced. Trips should be attempted only with protective gear and equipment.Flood(none)(none)
Discharge35700 cfs (median: 60800 cfs)High - The river is high and potentially dangerous, especially for the young and / or inexperienced. Normal stream obstacles are sometimes difficult to navigate. Extended distances can be attempted, but canoe travel may not be advisable.High(none)(none)
Height3.89 feetGood - Conditions are ideal for a canoe or kayak. Boats typically will drag on fewer than one-quarter of riffles, if at all, and portages are unnecessary or rare. Normal float lengths can be attempted without a problem.Good(none)(none)
TrendSteady (falling over 24 hours)Low - River is low but can still be floated. Some riffles are okay but most come with significant dragging and might need a portage. Float lengths should be reduced to accommodate low flow, dragging, and portages.Low(none)(none)
USGSExternal icon USGS Site (External icon Google Maps)Poor - River is too low to float comfortably. Most or all riffles will drag or must be portaged and some obstacles (such as slick shelf rock) cause undue problems. Avoid the river at this stage for casual paddling trips.Poor(none)(none)

Trending Data

Plot Image

Trips for Missouri River (Missouri), Jefferson City (06910450)

DateStartEndDistanceConditionDischargeHeightFishingDetails

A total of 0 rows are displayed.

Condition Descriptions

Fishing Conditions

Fish Species

Notes

Classic Trip List

The classic River Trips application is still available for use. It is updated with the new system using a data retrofit. It is no longer maintained. The original River Trips application is no longer updated (as of 1 Dec 2016) but can be checked for errors or for the condition of the data before it was converted to the new system.

Gauge Data Table

ObservationHeightDischargeMaximum
Discharge
Minimum
Discharge
Mean
Discharge
P05P10P20P25P50
(Median)
P75P80P90P95
2021-01-24 09:45 3.89 35700 92400 (2019) 37500 (2018) 61200 38100 38600 60800 80400 86000
2021-01-24 08:45 3.89 35700 92400 (2019) 37500 (2018) 61200 38100 38600 60800 80400 86000
2021-01-24 07:45 3.89 35700 92400 (2019) 37500 (2018) 61200 38100 38600 60800 80400 86000
2021-01-24 06:45 3.89 35700 92400 (2019) 37500 (2018) 61200 38100 38600 60800 80400 86000
2021-01-24 05:45 3.91 35700 92400 (2019) 37500 (2018) 61200 38100 38600 60800 80400 86000
2021-01-24 04:45 3.92 35800 92400 (2019) 37500 (2018) 61200 38100 38600 60800 80400 86000
2021-01-24 03:45 3.91 35700 92400 (2019) 37500 (2018) 61200 38100 38600 60800 80400 86000
2021-01-24 02:45 3.93 35800 92400 (2019) 37500 (2018) 61200 38100 38600 60800 80400 86000
2021-01-24 01:45 3.92 35800 92400 (2019) 37500 (2018) 61200 38100 38600 60800 80400 86000
2021-01-24 00:45 3.93 35800 92400 (2019) 37500 (2018) 61200 38100 38600 60800 80400 86000
2021-01-23 23:45 3.96 35900 91100 (2019) 37800 (2018) 61300 38000 38200 61000 81700 86100
2021-01-23 22:45 3.92 35800 91100 (2019) 37800 (2018) 61300 38000 38200 61000 81700 86100
2021-01-23 21:45 3.96 35900 91100 (2019) 37800 (2018) 61300 38000 38200 61000 81700 86100
2021-01-23 20:45 3.96 35900 91100 (2019) 37800 (2018) 61300 38000 38200 61000 81700 86100
2021-01-23 19:45 3.90 35700 91100 (2019) 37800 (2018) 61300 38000 38200 61000 81700 86100
2021-01-23 18:45 3.91 35700 91100 (2019) 37800 (2018) 61300 38000 38200 61000 81700 86100
2021-01-23 17:45 3.92 35800 91100 (2019) 37800 (2018) 61300 38000 38200 61000 81700 86100
2021-01-23 16:45 3.88 35600 91100 (2019) 37800 (2018) 61300 38000 38200 61000 81700 86100
2021-01-23 15:45 3.87 35600 91100 (2019) 37800 (2018) 61300 38000 38200 61000 81700 86100
2021-01-23 14:45 3.91 35700 91100 (2019) 37800 (2018) 61300 38000 38200 61000 81700 86100
2021-01-23 13:45 3.91 35700 91100 (2019) 37800 (2018) 61300 38000 38200 61000 81700 86100
2021-01-23 12:45 3.91 35700 91100 (2019) 37800 (2018) 61300 38000 38200 61000 81700 86100
2021-01-23 11:45 3.91 35700 91100 (2019) 37800 (2018) 61300 38000 38200 61000 81700 86100
2021-01-23 10:45 3.99 36100 91100 (2019) 37800 (2018) 61300 38000 38200 61000 81700 86100
2021-01-23 09:45 4.01 36100 91100 (2019) 37800 (2018) 61300 38000 38200 61000 81700 86100
2021-01-23 08:45 4.03 36200 91100 (2019) 37800 (2018) 61300 38000 38200 61000 81700 86100
2021-01-23 07:45 4.05 36300 91100 (2019) 37800 (2018) 61300 38000 38200 61000 81700 86100
2021-01-23 06:45 4.07 36400 91100 (2019) 37800 (2018) 61300 38000 38200 61000 81700 86100
2021-01-23 05:45 4.08 36400 91100 (2019) 37800 (2018) 61300 38000 38200 61000 81700 86100
2021-01-23 04:45 4.08 36400 91100 (2019) 37800 (2018) 61300 38000 38200 61000 81700 86100
2021-01-23 03:45 4.09 36500 91100 (2019) 37800 (2018) 61300 38000 38200 61000 81700 86100
2021-01-23 02:45 4.10 36500 91100 (2019) 37800 (2018) 61300 38000 38200 61000 81700 86100
2021-01-23 01:45 4.09 36500 91100 (2019) 37800 (2018) 61300 38000 38200 61000 81700 86100
2021-01-23 00:45 4.12 36600 91100 (2019) 37800 (2018) 61300 38000 38200 61000 81700 86100
2021-01-22 23:45 4.12 36600 85900 (2019) 37700 (2015) 61700 37900 38100 63500 82500 84100
2021-01-22 22:45 4.13 36600 85900 (2019) 37700 (2015) 61700 37900 38100 63500 82500 84100
2021-01-22 21:45 4.13 36600 85900 (2019) 37700 (2015) 61700 37900 38100 63500 82500 84100
2021-01-22 20:45 4.15 36700 85900 (2019) 37700 (2015) 61700 37900 38100 63500 82500 84100
2021-01-22 19:45 4.15 36700 85900 (2019) 37700 (2015) 61700 37900 38100 63500 82500 84100
2021-01-22 18:45 4.16 36700 85900 (2019) 37700 (2015) 61700 37900 38100 63500 82500 84100
2021-01-22 17:45 4.17 36800 85900 (2019) 37700 (2015) 61700 37900 38100 63500 82500 84100
2021-01-22 16:45 4.17 36800 85900 (2019) 37700 (2015) 61700 37900 38100 63500 82500 84100
2021-01-22 15:45 4.18 36800 85900 (2019) 37700 (2015) 61700 37900 38100 63500 82500 84100
2021-01-22 14:45 4.19 36900 85900 (2019) 37700 (2015) 61700 37900 38100 63500 82500 84100
2021-01-22 13:45 4.20 36900 85900 (2019) 37700 (2015) 61700 37900 38100 63500 82500 84100
2021-01-22 12:45 4.20 36900 85900 (2019) 37700 (2015) 61700 37900 38100 63500 82500 84100
2021-01-22 11:45 4.25 37100 85900 (2019) 37700 (2015) 61700 37900 38100 63500 82500 84100
2021-01-22 10:45 4.24 37100 85900 (2019) 37700 (2015) 61700 37900 38100 63500 82500 84100
2021-01-22 09:45 4.25 37100 85900 (2019) 37700 (2015) 61700 37900 38100 63500 82500 84100
2021-01-22 08:45 4.26 37200 85900 (2019) 37700 (2015) 61700 37900 38100 63500 82500 84100
2021-01-22 07:45 4.27 37200 85900 (2019) 37700 (2015) 61700 37900 38100 63500 82500 84100
2021-01-22 06:45 4.28 37200 85900 (2019) 37700 (2015) 61700 37900 38100 63500 82500 84100
2021-01-22 05:45 4.29 37300 85900 (2019) 37700 (2015) 61700 37900 38100 63500 82500 84100
2021-01-22 04:45 4.29 37300 85900 (2019) 37700 (2015) 61700 37900 38100 63500 82500 84100
2021-01-22 03:45 4.32 37400 85900 (2019) 37700 (2015) 61700 37900 38100 63500 82500 84100
2021-01-22 02:45 4.32 37400 85900 (2019) 37700 (2015) 61700 37900 38100 63500 82500 84100
2021-01-22 01:45 4.33 37400 85900 (2019) 37700 (2015) 61700 37900 38100 63500 82500 84100
2021-01-22 00:45 4.32 37400 85900 (2019) 37700 (2015) 61700 37900 38100 63500 82500 84100
2021-01-21 23:45 4.35 37500 97100 (2019) 36900 (2018) 64900 37000 37100 65000 90500 93600
2021-01-21 22:45 4.35 37500 97100 (2019) 36900 (2018) 64900 37000 37100 65000 90500 93600
2021-01-21 21:45 4.36 37600 97100 (2019) 36900 (2018) 64900 37000 37100 65000 90500 93600
2021-01-21 20:45 4.37 37600 97100 (2019) 36900 (2018) 64900 37000 37100 65000 90500 93600
2021-01-21 19:45 4.39 37700 97100 (2019) 36900 (2018) 64900 37000 37100 65000 90500 93600
2021-01-21 18:45 4.40 37700 97100 (2019) 36900 (2018) 64900 37000 37100 65000 90500 93600
2021-01-21 17:45 4.37 37600 97100 (2019) 36900 (2018) 64900 37000 37100 65000 90500 93600
2021-01-21 16:45 4.38 37600 97100 (2019) 36900 (2018) 64900 37000 37100 65000 90500 93600
2021-01-21 15:45 4.40 37700 97100 (2019) 36900 (2018) 64900 37000 37100 65000 90500 93600
2021-01-21 14:45 4.40 37700 97100 (2019) 36900 (2018) 64900 37000 37100 65000 90500 93600
2021-01-21 13:45 4.39 37700 97100 (2019) 36900 (2018) 64900 37000 37100 65000 90500 93600
2021-01-21 12:45 4.40 37700 97100 (2019) 36900 (2018) 64900 37000 37100 65000 90500 93600
2021-01-21 11:45 4.42 37800 97100 (2019) 36900 (2018) 64900 37000 37100 65000 90500 93600
2021-01-21 10:45 4.40 37700 97100 (2019) 36900 (2018) 64900 37000 37100 65000 90500 93600
2021-01-21 09:45 4.42 37800 97100 (2019) 36900 (2018) 64900 37000 37100 65000 90500 93600
2021-01-21 08:45 4.43 37900 97100 (2019) 36900 (2018) 64900 37000 37100 65000 90500 93600
2021-01-21 07:45 4.44 37900 97100 (2019) 36900 (2018) 64900 37000 37100 65000 90500 93600
2021-01-21 06:45 4.45 37900 97100 (2019) 36900 (2018) 64900 37000 37100 65000 90500 93600
2021-01-21 05:45 4.47 38000 97100 (2019) 36900 (2018) 64900 37000 37100 65000 90500 93600
2021-01-21 04:45 4.49 38100 97100 (2019) 36900 (2018) 64900 37000 37100 65000 90500 93600
2021-01-21 03:45 4.48 38100 97100 (2019) 36900 (2018) 64900 37000 37100 65000 90500 93600
2021-01-21 02:45 4.48 38100 97100 (2019) 36900 (2018) 64900 37000 37100 65000 90500 93600
2021-01-21 01:45 4.48 38100 97100 (2019) 36900 (2018) 64900 37000 37100 65000 90500 93600
2021-01-21 00:45 4.50 38100 97100 (2019) 36900 (2018) 64900 37000 37100 65000 90500 93600
2021-01-20 23:45 4.49 38100 108000 (2019) 36200 (2018) 68400 36300 36400 63000 105000 106000
2021-01-20 22:45 4.49 38100 108000 (2019) 36200 (2018) 68400 36300 36400 63000 105000 106000
2021-01-20 21:45 4.47 38000 108000 (2019) 36200 (2018) 68400 36300 36400 63000 105000 106000
2021-01-20 20:45 4.49 38100 108000 (2019) 36200 (2018) 68400 36300 36400 63000 105000 106000
2021-01-20 19:45 4.49 38100 108000 (2019) 36200 (2018) 68400 36300 36400 63000 105000 106000
2021-01-20 18:45 4.50 38100 108000 (2019) 36200 (2018) 68400 36300 36400 63000 105000 106000
2021-01-20 17:45 4.48 38100 108000 (2019) 36200 (2018) 68400 36300 36400 63000 105000 106000
2021-01-20 16:45 4.49 38100 108000 (2019) 36200 (2018) 68400 36300 36400 63000 105000 106000
2021-01-20 15:45 4.50 38100 108000 (2019) 36200 (2018) 68400 36300 36400 63000 105000 106000
2021-01-20 14:45 4.49 38100 108000 (2019) 36200 (2018) 68400 36300 36400 63000 105000 106000
2021-01-20 13:45 4.51 38200 108000 (2019) 36200 (2018) 68400 36300 36400 63000 105000 106000
2021-01-20 12:45 4.48 38100 108000 (2019) 36200 (2018) 68400 36300 36400 63000 105000 106000
2021-01-20 11:45 4.50 38100 108000 (2019) 36200 (2018) 68400 36300 36400 63000 105000 106000
2021-01-20 10:45 4.51 38200 108000 (2019) 36200 (2018) 68400 36300 36400 63000 105000 106000
2021-01-20 09:45 4.50 38100 108000 (2019) 36200 (2018) 68400 36300 36400 63000 105000 106000
2021-01-20 08:45 4.48 38100 108000 (2019) 36200 (2018) 68400 36300 36400 63000 105000 106000
2021-01-20 07:45 4.51 38200 108000 (2019) 36200 (2018) 68400 36300 36400 63000 105000 106000
2021-01-20 06:45 4.48 38100 108000 (2019) 36200 (2018) 68400 36300 36400 63000 105000 106000
2021-01-20 05:45 4.47 38000 108000 (2019) 36200 (2018) 68400 36300 36400 63000 105000 106000
2021-01-20 04:45 4.49 38100 108000 (2019) 36200 (2018) 68400 36300 36400 63000 105000 106000
2021-01-20 03:45 4.48 38100 108000 (2019) 36200 (2018) 68400 36300 36400 63000 105000 106000
2021-01-20 02:45 4.48 38100 108000 (2019) 36200 (2018) 68400 36300 36400 63000 105000 106000
2021-01-20 01:45 4.48 38100 108000 (2019) 36200 (2018) 68400 36300 36400 63000 105000 106000
2021-01-20 00:45 4.49 38100 108000 (2019) 36200 (2018) 68400 36300 36400 63000 105000 106000
2021-01-19 23:45 4.48 38100 121000 (2020) 36100 (2015) 68800 36200 36300 59900 105000 112000
2021-01-19 22:45 4.49 38100 121000 (2020) 36100 (2015) 68800 36200 36300 59900 105000 112000
2021-01-19 21:45 4.48 38100 121000 (2020) 36100 (2015) 68800 36200 36300 59900 105000 112000
2021-01-19 20:45 4.48 38100 121000 (2020) 36100 (2015) 68800 36200 36300 59900 105000 112000
2021-01-19 19:45 4.47 38000 121000 (2020) 36100 (2015) 68800 36200 36300 59900 105000 112000
2021-01-19 18:45 4.49 38100 121000 (2020) 36100 (2015) 68800 36200 36300 59900 105000 112000
2021-01-19 17:45 4.46 38000 121000 (2020) 36100 (2015) 68800 36200 36300 59900 105000 112000
2021-01-19 16:45 4.46 38000 121000 (2020) 36100 (2015) 68800 36200 36300 59900 105000 112000
2021-01-19 15:45 4.49 38100 121000 (2020) 36100 (2015) 68800 36200 36300 59900 105000 112000
2021-01-19 14:45 4.49 38100 121000 (2020) 36100 (2015) 68800 36200 36300 59900 105000 112000
2021-01-19 13:45 4.47 38000 121000 (2020) 36100 (2015) 68800 36200 36300 59900 105000 112000
2021-01-19 12:45 4.48 38100 121000 (2020) 36100 (2015) 68800 36200 36300 59900 105000 112000
2021-01-19 11:45 4.48 38100 121000 (2020) 36100 (2015) 68800 36200 36300 59900 105000 112000
2021-01-19 10:45 4.49 38100 121000 (2020) 36100 (2015) 68800 36200 36300 59900 105000 112000
2021-01-19 09:45 4.49 38100 121000 (2020) 36100 (2015) 68800 36200 36300 59900 105000 112000
2021-01-19 08:45 4.47 38000 121000 (2020) 36100 (2015) 68800 36200 36300 59900 105000 112000
2021-01-19 07:45 4.48 38100 121000 (2020) 36100 (2015) 68800 36200 36300 59900 105000 112000
2021-01-19 06:45 4.49 38100 121000 (2020) 36100 (2015) 68800 36200 36300 59900 105000 112000
2021-01-19 05:45 4.47 38000 121000 (2020) 36100 (2015) 68800 36200 36300 59900 105000 112000
2021-01-19 04:45 4.48 38100 121000 (2020) 36100 (2015) 68800 36200 36300 59900 105000 112000
2021-01-19 03:45 4.48 38100 121000 (2020) 36100 (2015) 68800 36200 36300 59900 105000 112000
2021-01-19 02:45 4.50 38100 121000 (2020) 36100 (2015) 68800 36200 36300 59900 105000 112000
2021-01-19 01:45 4.51 38200 121000 (2020) 36100 (2015) 68800 36200 36300 59900 105000 112000
2021-01-19 00:45 4.52 38200 121000 (2020) 36100 (2015) 68800 36200 36300 59900 105000 112000
2021-01-18 23:45 4.48 38100 115000 (2020) 36000 (2015) 66700 37200 38200 60300 96000 105000
2021-01-18 22:45 4.50 38100 115000 (2020) 36000 (2015) 66700 37200 38200 60300 96000 105000
2021-01-18 21:45 4.50 38100 115000 (2020) 36000 (2015) 66700 37200 38200 60300 96000 105000
2021-01-18 20:45 4.50 38100 115000 (2020) 36000 (2015) 66700 37200 38200 60300 96000 105000
2021-01-18 19:45 4.50 38100 115000 (2020) 36000 (2015) 66700 37200 38200 60300 96000 105000
2021-01-18 18:45 4.50 38100 115000 (2020) 36000 (2015) 66700 37200 38200 60300 96000 105000
2021-01-18 17:45 4.49 38100 115000 (2020) 36000 (2015) 66700 37200 38200 60300 96000 105000
2021-01-18 16:45 4.49 38100 115000 (2020) 36000 (2015) 66700 37200 38200 60300 96000 105000
2021-01-18 15:45 4.48 38100 115000 (2020) 36000 (2015) 66700 37200 38200 60300 96000 105000
2021-01-18 14:45 4.49 38100 115000 (2020) 36000 (2015) 66700 37200 38200 60300 96000 105000
2021-01-18 13:45 4.49 38100 115000 (2020) 36000 (2015) 66700 37200 38200 60300 96000 105000
2021-01-18 12:45 4.48 38100 115000 (2020) 36000 (2015) 66700 37200 38200 60300 96000 105000
2021-01-18 11:45 4.49 38100 115000 (2020) 36000 (2015) 66700 37200 38200 60300 96000 105000
2021-01-18 10:45 4.50 38100 115000 (2020) 36000 (2015) 66700 37200 38200 60300 96000 105000
2021-01-18 09:45 4.49 38100 115000 (2020) 36000 (2015) 66700 37200 38200 60300 96000 105000
2021-01-18 08:45 4.49 38100 115000 (2020) 36000 (2015) 66700 37200 38200 60300 96000 105000
2021-01-18 07:45 4.49 38100 115000 (2020) 36000 (2015) 66700 37200 38200 60300 96000 105000
2021-01-18 06:45 4.49 38100 115000 (2020) 36000 (2015) 66700 37200 38200 60300 96000 105000
2021-01-18 05:45 4.49 38100 115000 (2020) 36000 (2015) 66700 37200 38200 60300 96000 105000
2021-01-18 04:45 4.49 38100 115000 (2020) 36000 (2015) 66700 37200 38200 60300 96000 105000
2021-01-18 03:45 4.49 38100 115000 (2020) 36000 (2015) 66700 37200 38200 60300 96000 105000
2021-01-18 02:45 4.48 38100 115000 (2020) 36000 (2015) 66700 37200 38200 60300 96000 105000
2021-01-18 01:45 4.48 38100 115000 (2020) 36000 (2015) 66700 37200 38200 60300 96000 105000
2021-01-18 00:45 4.48 38100 115000 (2020) 36000 (2015) 66700 37200 38200 60300 96000 105000
2021-01-17 23:45 4.49 38100 97800 (2020) 35800 (2015) 64300 37700 39400 62400 89600 93400
2021-01-17 22:45 4.47 38000 97800 (2020) 35800 (2015) 64300 37700 39400 62400 89600 93400
2021-01-17 21:45 4.47 38000 97800 (2020) 35800 (2015) 64300 37700 39400 62400 89600 93400
2021-01-17 20:45 4.47 38000 97800 (2020) 35800 (2015) 64300 37700 39400 62400 89600 93400
2021-01-17 19:45 4.47 38000 97800 (2020) 35800 (2015) 64300 37700 39400 62400 89600 93400
2021-01-17 18:45 4.47 38000 97800 (2020) 35800 (2015) 64300 37700 39400 62400 89600 93400
2021-01-17 17:45 4.48 38100 97800 (2020) 35800 (2015) 64300 37700 39400 62400 89600 93400
2021-01-17 16:45 4.45 37900 97800 (2020) 35800 (2015) 64300 37700 39400 62400 89600 93400
2021-01-17 15:45 4.44 37900 97800 (2020) 35800 (2015) 64300 37700 39400 62400 89600 93400
2021-01-17 14:45 4.46 38000 97800 (2020) 35800 (2015) 64300 37700 39400 62400 89600 93400
2021-01-17 13:45 4.44 37900 97800 (2020) 35800 (2015) 64300 37700 39400 62400 89600 93400
2021-01-17 12:45 4.43 37900 97800 (2020) 35800 (2015) 64300 37700 39400 62400 89600 93400
2021-01-17 11:45 4.43 37900 97800 (2020) 35800 (2015) 64300 37700 39400 62400 89600 93400
2021-01-17 10:45 4.43 37900 97800 (2020) 35800 (2015) 64300 37700 39400 62400 89600 93400
2021-01-17 09:45 4.45 37900 97800 (2020) 35800 (2015) 64300 37700 39400 62400 89600 93400
2021-01-17 08:45 4.44 37900 97800 (2020) 35800 (2015) 64300 37700 39400 62400 89600 93400
2021-01-17 07:45 4.45 37900 97800 (2020) 35800 (2015) 64300 37700 39400 62400 89600 93400
2021-01-17 06:45 4.44 37900 97800 (2020) 35800 (2015) 64300 37700 39400 62400 89600 93400
2021-01-17 05:45 4.44 37900 97800 (2020) 35800 (2015) 64300 37700 39400 62400 89600 93400
2021-01-17 04:45 4.44 37900 97800 (2020) 35800 (2015) 64300 37700 39400 62400 89600 93400
2021-01-17 03:45 4.36 37600 97800 (2020) 35800 (2015) 64300 37700 39400 62400 89600 93400
2021-01-17 02:45 4.44 37900 97800 (2020) 35800 (2015) 64300 37700 39400 62400 89600 93400
2021-01-17 01:45 4.43 37900 97800 (2020) 35800 (2015) 64300 37700 39400 62400 89600 93400
2021-01-16 22:45 4.42 37800 99400 (2020) 34300 (2015) 65000 37000 39300 63900 90500 94700
2021-01-16 21:45 4.44 37900 99400 (2020) 34300 (2015) 65000 37000 39300 63900 90500 94700
2021-01-16 20:45 4.44 37900 99400 (2020) 34300 (2015) 65000 37000 39300 63900 90500 94700
2021-01-16 19:45 4.45 37900 99400 (2020) 34300 (2015) 65000 37000 39300 63900 90500 94700
2021-01-16 18:45 4.44 37900 99400 (2020) 34300 (2015) 65000 37000 39300 63900 90500 94700
2021-01-16 17:45 4.44 37900 99400 (2020) 34300 (2015) 65000 37000 39300 63900 90500 94700
2021-01-16 16:45 4.42 37800 99400 (2020) 34300 (2015) 65000 37000 39300 63900 90500 94700
2021-01-16 15:45 4.42 37800 99400 (2020) 34300 (2015) 65000 37000 39300 63900 90500 94700
2021-01-16 14:45 4.42 37800 99400 (2020) 34300 (2015) 65000 37000 39300 63900 90500 94700
2021-01-16 13:45 4.41 37800 99400 (2020) 34300 (2015) 65000 37000 39300 63900 90500 94700
2021-01-16 12:45 4.42 37800 99400 (2020) 34300 (2015) 65000 37000 39300 63900 90500 94700
2021-01-16 11:45 4.42 37800 99400 (2020) 34300 (2015) 65000 37000 39300 63900 90500 94700
2021-01-16 10:45 4.41 37800 99400 (2020) 34300 (2015) 65000 37000 39300 63900 90500 94700
2021-01-16 09:45 4.41 37800 99400 (2020) 34300 (2015) 65000 37000 39300 63900 90500 94700
2021-01-16 08:45 4.41 37800 99400 (2020) 34300 (2015) 65000 37000 39300 63900 90500 94700
2021-01-16 07:45 4.42 37800 99400 (2020) 34300 (2015) 65000 37000 39300 63900 90500 94700
2021-01-16 06:45 4.40 37700 99400 (2020) 34300 (2015) 65000 37000 39300 63900 90500 94700
2021-01-16 05:45 4.41 37800 99400 (2020) 34300 (2015) 65000 37000 39300 63900 90500 94700
2021-01-16 04:45 4.40 37700 99400 (2020) 34300 (2015) 65000 37000 39300 63900 90500 94700
2021-01-16 03:45 4.38 37600 99400 (2020) 34300 (2015) 65000 37000 39300 63900 90500 94700
2021-01-16 02:45 4.40 37700 99400 (2020) 34300 (2015) 65000 37000 39300 63900 90500 94700
2021-01-16 01:45 4.38 37600 99400 (2020) 34300 (2015) 65000 37000 39300 63900 90500 94700
2021-01-16 00:45 4.38 37600 99400 (2020) 34300 (2015) 65000 37000 39300 63900 90500 94700
2021-01-15 23:45 4.38 37600 103000 (2020) 32700 (2015) 65800 35700 38300 65100 92400 97400
2021-01-15 22:45 4.39 37700 103000 (2020) 32700 (2015) 65800 35700 38300 65100 92400 97400
2021-01-15 21:45 4.36 37600 103000 (2020) 32700 (2015) 65800 35700 38300 65100 92400 97400
2021-01-15 20:45 4.36 37600 103000 (2020) 32700 (2015) 65800 35700 38300 65100 92400 97400
2021-01-15 19:45 4.36 37600 103000 (2020) 32700 (2015) 65800 35700 38300 65100 92400 97400
2021-01-15 18:45 4.34 37500 103000 (2020) 32700 (2015) 65800 35700 38300 65100 92400 97400
2021-01-15 17:45 4.36 37600 103000 (2020) 32700 (2015) 65800 35700 38300 65100 92400 97400
2021-01-15 16:45 4.36 37600 103000 (2020) 32700 (2015) 65800 35700 38300 65100 92400 97400
2021-01-15 15:45 4.36 37600 103000 (2020) 32700 (2015) 65800 35700 38300 65100 92400 97400
2021-01-15 14:45 4.34 37500 103000 (2020) 32700 (2015) 65800 35700 38300 65100 92400 97400
2021-01-15 13:45 4.34 37500 103000 (2020) 32700 (2015) 65800 35700 38300 65100 92400 97400
2021-01-15 12:45 4.35 37500 103000 (2020) 32700 (2015) 65800 35700 38300 65100 92400 97400
2021-01-15 11:45 4.35 37500 103000 (2020) 32700 (2015) 65800 35700 38300 65100 92400 97400
2021-01-15 10:45 4.32 37400 103000 (2020) 32700 (2015) 65800 35700 38300 65100 92400 97400
2021-01-15 09:45 4.36 37600 103000 (2020) 32700 (2015) 65800 35700 38300 65100 92400 97400
2021-01-15 08:45 4.32 37400 103000 (2020) 32700 (2015) 65800 35700 38300 65100 92400 97400
2021-01-15 07:45 4.34 37500 103000 (2020) 32700 (2015) 65800 35700 38300 65100 92400 97400
2021-01-15 06:45 4.32 37400 103000 (2020) 32700 (2015) 65800 35700 38300 65100 92400 97400
2021-01-15 05:45 4.34 37500 103000 (2020) 32700 (2015) 65800 35700 38300 65100 92400 97400
2021-01-15 04:45 4.35 37500 103000 (2020) 32700 (2015) 65800 35700 38300 65100 92400 97400
2021-01-15 03:45 4.32 37400 103000 (2020) 32700 (2015) 65800 35700 38300 65100 92400 97400
2021-01-15 02:45 4.32 37400 103000 (2020) 32700 (2015) 65800 35700 38300 65100 92400 97400
2021-01-15 01:45 4.32 37400 103000 (2020) 32700 (2015) 65800 35700 38300 65100 92400 97400
2021-01-15 00:45 4.34 37500 103000 (2020) 32700 (2015) 65800 35700 38300 65100 92400 97400
2021-01-14 23:45 4.33 37400 115000 (2020) 32000 (2015) 68700 34700 37000 65900 99600 107000
2021-01-14 22:45 4.33 37400 115000 (2020) 32000 (2015) 68700 34700 37000 65900 99600 107000
2021-01-14 21:45 4.31 37400 115000 (2020) 32000 (2015) 68700 34700 37000 65900 99600 107000
2021-01-14 20:45 4.33 37400 115000 (2020) 32000 (2015) 68700 34700 37000 65900 99600 107000
2021-01-14 19:45 4.33 37400 115000 (2020) 32000 (2015) 68700 34700 37000 65900 99600 107000
2021-01-14 18:45 4.31 37400 115000 (2020) 32000 (2015) 68700 34700 37000 65900 99600 107000
2021-01-14 17:45 4.31 37400 115000 (2020) 32000 (2015) 68700 34700 37000 65900 99600 107000
2021-01-14 16:45 4.32 37400 115000 (2020) 32000 (2015) 68700 34700 37000 65900 99600 107000
2021-01-14 15:45 4.29 37300 115000 (2020) 32000 (2015) 68700 34700 37000 65900 99600 107000
2021-01-14 14:45 4.29 37300 115000 (2020) 32000 (2015) 68700 34700 37000 65900 99600 107000
2021-01-14 13:45 4.28 37200 115000 (2020) 32000 (2015) 68700 34700 37000 65900 99600 107000
2021-01-14 12:45 4.28 37200 115000 (2020) 32000 (2015) 68700 34700 37000 65900 99600 107000
2021-01-14 11:45 4.07 36400 115000 (2020) 32000 (2015) 68700 34700 37000 65900 99600 107000
2021-01-14 10:45 4.17 36800 115000 (2020) 32000 (2015) 68700 34700 37000 65900 99600 107000
2021-01-14 09:45 4.17 36800 115000 (2020) 32000 (2015) 68700 34700 37000 65900 99600 107000
2021-01-14 08:45 4.27 37200 115000 (2020) 32000 (2015) 68700 34700 37000 65900 99600 107000
2021-01-14 07:45 4.29 37300 115000 (2020) 32000 (2015) 68700 34700 37000 65900 99600 107000
2021-01-14 06:45 4.29 37300 115000 (2020) 32000 (2015) 68700 34700 37000 65900 99600 107000
2021-01-14 05:45 4.28 37200 115000 (2020) 32000 (2015) 68700 34700 37000 65900 99600 107000
2021-01-14 04:45 4.27 37200 115000 (2020) 32000 (2015) 68700 34700 37000 65900 99600 107000
2021-01-14 03:45 4.27 37200 115000 (2020) 32000 (2015) 68700 34700 37000 65900 99600 107000
2021-01-14 02:45 4.26 37200 115000 (2020) 32000 (2015) 68700 34700 37000 65900 99600 107000
2021-01-14 01:45 4.27 37200 115000 (2020) 32000 (2015) 68700 34700 37000 65900 99600 107000
2021-01-14 00:45 4.26 37200 115000 (2020) 32000 (2015) 68700 34700 37000 65900 99600 107000
2021-01-13 23:45 4.24 37100 152000 (2020) 32200 (2015) 77400 34800 37000 67200 118000 134000
2021-01-13 22:45 4.25 37100 152000 (2020) 32200 (2015) 77400 34800 37000 67200 118000 134000
2021-01-13 21:45 4.23 37000 152000 (2020) 32200 (2015) 77400 34800 37000 67200 118000 134000
2021-01-13 20:45 4.23 37000 152000 (2020) 32200 (2015) 77400 34800 37000 67200 118000 134000
2021-01-13 19:45 4.22 37000 152000 (2020) 32200 (2015) 77400 34800 37000 67200 118000 134000
2021-01-13 18:45 4.23 37000 152000 (2020) 32200 (2015) 77400 34800 37000 67200 118000 134000
2021-01-13 17:45 4.22 37000 152000 (2020) 32200 (2015) 77400 34800 37000 67200 118000 134000
2021-01-13 16:45 4.21 37000 152000 (2020) 32200 (2015) 77400 34800 37000 67200 118000 134000
2021-01-13 15:45 4.18 36800 152000 (2020) 32200 (2015) 77400 34800 37000 67200 118000 134000
2021-01-13 14:45 4.19 36900 152000 (2020) 32200 (2015) 77400 34800 37000 67200 118000 134000
2021-01-13 13:45 4.19 36900 152000 (2020) 32200 (2015) 77400 34800 37000 67200 118000 134000
2021-01-13 12:45 4.20 36900 152000 (2020) 32200 (2015) 77400 34800 37000 67200 118000 134000
2021-01-13 11:45 4.18 36800 152000 (2020) 32200 (2015) 77400 34800 37000 67200 118000 134000
2021-01-13 10:45 4.18 36800 152000 (2020) 32200 (2015) 77400 34800 37000 67200 118000 134000
2021-01-13 09:45 4.17 36800 152000 (2020) 32200 (2015) 77400 34800 37000 67200 118000 134000
2021-01-13 08:45 4.15 36700 152000 (2020) 32200 (2015) 77400 34800 37000 67200 118000 134000
2021-01-13 07:45 4.18 36800 152000 (2020) 32200 (2015) 77400 34800 37000 67200 118000 134000
2021-01-13 06:45 4.19 36900 152000 (2020) 32200 (2015) 77400 34800 37000 67200 118000 134000
2021-01-13 05:45 4.18 36800 152000 (2020) 32200 (2015) 77400 34800 37000 67200 118000 134000
2021-01-13 04:45 4.19 36900 152000 (2020) 32200 (2015) 77400 34800 37000 67200 118000 134000
2021-01-13 03:45 4.17 36800 152000 (2020) 32200 (2015) 77400 34800 37000 67200 118000 134000
2021-01-13 02:45 4.19 36900 152000 (2020) 32200 (2015) 77400 34800 37000 67200 118000 134000
2021-01-13 01:45 4.18 36800 152000 (2020) 32200 (2015) 77400 34800 37000 67200 118000 134000
2021-01-13 00:45 4.18 36800 152000 (2020) 32200 (2015) 77400 34800 37000 67200 118000 134000
2021-01-12 23:45 4.17 36800 169000 (2020) 33700 (2015) 84800 35900 37800 69900 138000 152000
2021-01-12 22:45 4.18 36800 169000 (2020) 33700 (2015) 84800 35900 37800 69900 138000 152000
2021-01-12 21:45 4.17 36800 169000 (2020) 33700 (2015) 84800 35900 37800 69900 138000 152000
2021-01-12 20:45 4.16 36700 169000 (2020) 33700 (2015) 84800 35900 37800 69900 138000 152000
2021-01-12 19:45 4.16 36700 169000 (2020) 33700 (2015) 84800 35900 37800 69900 138000 152000
2021-01-12 18:45 4.16 36700 169000 (2020) 33700 (2015) 84800 35900 37800 69900 138000 152000
2021-01-12 17:45 4.17 36800 169000 (2020) 33700 (2015) 84800 35900 37800 69900 138000 152000
2021-01-12 16:45 4.14 36700 169000 (2020) 33700 (2015) 84800 35900 37800 69900 138000 152000
2021-01-12 15:45 4.14 36700 169000 (2020) 33700 (2015) 84800 35900 37800 69900 138000 152000
2021-01-12 14:45 4.15 36700 169000 (2020) 33700 (2015) 84800 35900 37800 69900 138000 152000
2021-01-12 13:45 4.15 36700 169000 (2020) 33700 (2015) 84800 35900 37800 69900 138000 152000
2021-01-12 12:45 4.16 36700 169000 (2020) 33700 (2015) 84800 35900 37800 69900 138000 152000
2021-01-12 11:45 4.17 36800 169000 (2020) 33700 (2015) 84800 35900 37800 69900 138000 152000
2021-01-12 10:45 4.17 36800 169000 (2020) 33700 (2015) 84800 35900 37800 69900 138000 152000
2021-01-12 09:45 4.17 36800 169000 (2020) 33700 (2015) 84800 35900 37800 69900 138000 152000
2021-01-12 08:45 4.17 36800 169000 (2020) 33700 (2015) 84800 35900 37800 69900 138000 152000
2021-01-12 07:45 4.18 36800 169000 (2020) 33700 (2015) 84800 35900 37800 69900 138000 152000
2021-01-12 06:45 4.18 36800 169000 (2020) 33700 (2015) 84800 35900 37800 69900 138000 152000
2021-01-12 05:45 4.20 36900 169000 (2020) 33700 (2015) 84800 35900 37800 69900 138000 152000
2021-01-12 04:45 4.20 36900 169000 (2020) 33700 (2015) 84800 35900 37800 69900 138000 152000
2021-01-12 03:45 4.19 36900 169000 (2020) 33700 (2015) 84800 35900 37800 69900 138000 152000
2021-01-12 02:45 4.23 37000 169000 (2020) 33700 (2015) 84800 35900 37800 69900 138000 152000
2021-01-12 01:45 4.21 37000 169000 (2020) 33700 (2015) 84800 35900 37800 69900 138000 152000
2021-01-12 00:45 4.24 37100 169000 (2020) 33700 (2015) 84800 35900 37800 69900 138000 152000
2021-01-11 23:45 4.24 37100 143000 (2020) 34600 (2015) 83100 36600 38400 70600 141000 142000
2021-01-11 22:45 4.24 37100 143000 (2020) 34600 (2015) 83100 36600 38400 70600 141000 142000
2021-01-11 21:45 4.25 37100 143000 (2020) 34600 (2015) 83100 36600 38400 70600 141000 142000
2021-01-11 20:45 4.26 37200 143000 (2020) 34600 (2015) 83100 36600 38400 70600 141000 142000
2021-01-11 19:45 4.26 37200 143000 (2020) 34600 (2015) 83100 36600 38400 70600 141000 142000
2021-01-11 18:45 4.27 37200 143000 (2020) 34600 (2015) 83100 36600 38400 70600 141000 142000
2021-01-11 17:45 4.29 37300 143000 (2020) 34600 (2015) 83100 36600 38400 70600 141000 142000
2021-01-11 16:45 4.28 37200 143000 (2020) 34600 (2015) 83100 36600 38400 70600 141000 142000
2021-01-11 15:45 4.28 37200 143000 (2020) 34600 (2015) 83100 36600 38400 70600 141000 142000
2021-01-11 14:45 4.26 37200 143000 (2020) 34600 (2015) 83100 36600 38400 70600 141000 142000
2021-01-11 13:45 4.29 37300 143000 (2020) 34600 (2015) 83100 36600 38400 70600 141000 142000
2021-01-11 12:45 4.32 37400 143000 (2020) 34600 (2015) 83100 36600 38400 70600 141000 142000
2021-01-11 11:45 4.30 37300 143000 (2020) 34600 (2015) 83100 36600 38400 70600 141000 142000
2021-01-11 10:45 4.33 37400 143000 (2020) 34600 (2015) 83100 36600 38400 70600 141000 142000
2021-01-11 09:45 4.31 37400 143000 (2020) 34600 (2015) 83100 36600 38400 70600 141000 142000
2021-01-11 08:45 4.32 37400 143000 (2020) 34600 (2015) 83100 36600 38400 70600 141000 142000
2021-01-11 07:45 4.34 37500 143000 (2020) 34600 (2015) 83100 36600 38400 70600 141000 142000
2021-01-11 06:45 4.34 37500 143000 (2020) 34600 (2015) 83100 36600 38400 70600 141000 142000
2021-01-11 05:45 4.36 37600 143000 (2020) 34600 (2015) 83100 36600 38400 70600 141000 142000
2021-01-11 04:45 4.36 37600 143000 (2020) 34600 (2015) 83100 36600 38400 70600 141000 142000
2021-01-11 03:45 4.36 37600 143000 (2020) 34600 (2015) 83100 36600 38400 70600 141000 142000
2021-01-11 02:45 4.37 37600 143000 (2020) 34600 (2015) 83100 36600 38400 70600 141000 142000
2021-01-11 01:45 4.37 37600 143000 (2020) 34600 (2015) 83100 36600 38400 70600 141000 142000
2021-01-11 00:45 4.38 37600 143000 (2020) 34600 (2015) 83100 36600 38400 70600 141000 142000
2021-01-10 23:45 4.37 37600 145000 (2016) 34600 (2015) 74500 36500 38100 65500 109000 126000
2021-01-10 22:45 4.38 37600 145000 (2016) 34600 (2015) 74500 36500 38100 65500 109000 126000
2021-01-10 21:45 4.38 37600 145000 (2016) 34600 (2015) 74500 36500 38100 65500 109000 126000
2021-01-10 20:45 4.40 37700 145000 (2016) 34600 (2015) 74500 36500 38100 65500 109000 126000
2021-01-10 19:45 4.38 37600 145000 (2016) 34600 (2015) 74500 36500 38100 65500 109000 126000
2021-01-10 18:45 4.39 37700 145000 (2016) 34600 (2015) 74500 36500 38100 65500 109000 126000
2021-01-10 17:45 4.40 37700 145000 (2016) 34600 (2015) 74500 36500 38100 65500 109000 126000
2021-01-10 16:45 4.41 37800 145000 (2016) 34600 (2015) 74500 36500 38100 65500 109000 126000
2021-01-10 15:45 4.41 37800 145000 (2016) 34600 (2015) 74500 36500 38100 65500 109000 126000
2021-01-10 14:45 4.40 37700 145000 (2016) 34600 (2015) 74500 36500 38100 65500 109000 126000
2021-01-10 13:45 4.40 37700 145000 (2016) 34600 (2015) 74500 36500 38100 65500 109000 126000
2021-01-10 12:45 4.40 37700 145000 (2016) 34600 (2015) 74500 36500 38100 65500 109000 126000
2021-01-10 11:45 4.40 37700 145000 (2016) 34600 (2015) 74500 36500 38100 65500 109000 126000
2021-01-10 10:45 4.42 37800 145000 (2016) 34600 (2015) 74500 36500 38100 65500 109000 126000
2021-01-10 09:45 4.41 37800 145000 (2016) 34600 (2015) 74500 36500 38100 65500 109000 126000
2021-01-10 08:45 4.40 37700 145000 (2016) 34600 (2015) 74500 36500 38100 65500 109000 126000
2021-01-10 07:45 4.41 37800 145000 (2016) 34600 (2015) 74500 36500 38100 65500 109000 126000
2021-01-10 06:45 4.41 37800 145000 (2016) 34600 (2015) 74500 36500 38100 65500 109000 126000
2021-01-10 05:45 4.41 37800 145000 (2016) 34600 (2015) 74500 36500 38100 65500 109000 126000
2021-01-10 04:45 4.40 37700 145000 (2016) 34600 (2015) 74500 36500 38100 65500 109000 126000
2021-01-10 03:45 4.41 37800 145000 (2016) 34600 (2015) 74500 36500 38100 65500 109000 126000
2021-01-10 02:45 4.42 37800 145000 (2016) 34600 (2015) 74500 36500 38100 65500 109000 126000
2021-01-10 01:45 4.40 37700 145000 (2016) 34600 (2015) 74500 36500 38100 65500 109000 126000
2021-01-10 00:45 4.39 37700 145000 (2016) 34600 (2015) 74500 36500 38100 65500 109000 126000
2021-01-09 23:45 4.39 37700 122000 (2016) 34400 (2015) 69500 36200 37800 65300 98600 110000
2021-01-09 22:45 4.39 37700 122000 (2016) 34400 (2015) 69500 36200 37800 65300 98600 110000
2021-01-09 20:45 4.39 37700 122000 (2016) 34400 (2015) 69500 36200 37800 65300 98600 110000
2021-01-09 19:45 4.40 37700 122000 (2016) 34400 (2015) 69500 36200 37800 65300 98600 110000
2021-01-09 18:45 4.39 37700 122000 (2016) 34400 (2015) 69500 36200 37800 65300 98600 110000
2021-01-09 17:45 4.40 37700 122000 (2016) 34400 (2015) 69500 36200 37800 65300 98600 110000
2021-01-09 16:45 4.40 37700 122000 (2016) 34400 (2015) 69500 36200 37800 65300 98600 110000
2021-01-09 15:45 4.38 37600 122000 (2016) 34400 (2015) 69500 36200 37800 65300 98600 110000
2021-01-09 14:45 4.40 37700 122000 (2016) 34400 (2015) 69500 36200 37800 65300 98600 110000
2021-01-09 13:45 4.39 37700 122000 (2016) 34400 (2015) 69500 36200 37800 65300 98600 110000
2021-01-09 12:45 4.36 37600 122000 (2016) 34400 (2015) 69500 36200 37800 65300 98600 110000
2021-01-09 11:45 4.38 37600 122000 (2016) 34400 (2015) 69500 36200 37800 65300 98600 110000
2021-01-09 10:45 4.38 37600 122000 (2016) 34400 (2015) 69500 36200 37800 65300 98600 110000
2021-01-09 09:45 4.38 37600 122000 (2016) 34400 (2015) 69500 36200 37800 65300 98600 110000
2021-01-09 08:45 4.37 37600 122000 (2016) 34400 (2015) 69500 36200 37800 65300 98600 110000
2021-01-09 07:45 4.37 37600 122000 (2016) 34400 (2015) 69500 36200 37800 65300 98600 110000
2021-01-09 06:45 4.39 37700 122000 (2016) 34400 (2015) 69500 36200 37800 65300 98600 110000
2021-01-09 05:45 4.39 37700 122000 (2016) 34400 (2015) 69500 36200 37800 65300 98600 110000
2021-01-09 04:45 4.40 37700 122000 (2016) 34400 (2015) 69500 36200 37800 65300 98600 110000
2021-01-09 03:45 4.40 37700 122000 (2016) 34400 (2015) 69500 36200 37800 65300 98600 110000
2021-01-09 02:45 4.41 37800 122000 (2016) 34400 (2015) 69500 36200 37800 65300 98600 110000
2021-01-09 01:45 4.40 37700 122000 (2016) 34400 (2015) 69500 36200 37800 65300 98600 110000
2021-01-09 00:45 4.42 37800 122000 (2016) 34400 (2015) 69500 36200 37800 65300 98600 110000
2021-01-08 23:45 4.42 37800 88600 (2016) 33900 (2015) 63400 35700 37200 66200 87600 88100
2021-01-08 22:45 4.44 37900 88600 (2016) 33900 (2015) 63400 35700 37200 66200 87600 88100
2021-01-08 21:45 4.43 37900 88600 (2016) 33900 (2015) 63400 35700 37200 66200 87600 88100
2021-01-08 20:45 4.45 37900 88600 (2016) 33900 (2015) 63400 35700 37200 66200 87600 88100
2021-01-08 19:45 4.45 37900 88600 (2016) 33900 (2015) 63400 35700 37200 66200 87600 88100
2021-01-08 18:45 4.46 38000 88600 (2016) 33900 (2015) 63400 35700 37200 66200 87600 88100
2021-01-08 17:45 4.47 38000 88600 (2016) 33900 (2015) 63400 35700 37200 66200 87600 88100
2021-01-08 16:45 4.48 38100 88600 (2016) 33900 (2015) 63400 35700 37200 66200 87600 88100
2021-01-08 15:45 4.48 38100 88600 (2016) 33900 (2015) 63400 35700 37200 66200 87600 88100
2021-01-08 14:45 4.50 38100 88600 (2016) 33900 (2015) 63400 35700 37200 66200 87600 88100
2021-01-08 13:45 4.50 38100 88600 (2016) 33900 (2015) 63400 35700 37200 66200 87600 88100
2021-01-08 12:45 4.51 38200 88600 (2016) 33900 (2015) 63400 35700 37200 66200 87600 88100
2021-01-08 11:45 4.53 38300 88600 (2016) 33900 (2015) 63400 35700 37200 66200 87600 88100
2021-01-08 10:45 4.51 38200 88600 (2016) 33900 (2015) 63400 35700 37200 66200 87600 88100
2021-01-08 09:45 4.53 38300 88600 (2016) 33900 (2015) 63400 35700 37200 66200 87600 88100
2021-01-08 08:45 4.55 38400 88600 (2016) 33900 (2015) 63400 35700 37200 66200 87600 88100
2021-01-08 07:45 4.53 38300 88600 (2016) 33900 (2015) 63400 35700 37200 66200 87600 88100
2021-01-08 06:45 4.54 38300 88600 (2016) 33900 (2015) 63400 35700 37200 66200 87600 88100
2021-01-08 05:45 4.54 38300 88600 (2016) 33900 (2015) 63400 35700 37200 66200 87600 88100
2021-01-08 04:45 4.56 38400 88600 (2016) 33900 (2015) 63400 35700 37200 66200 87600 88100
2021-01-08 03:45 4.57 38400 88600 (2016) 33900 (2015) 63400 35700 37200 66200 87600 88100
2021-01-08 02:45 4.57 38400 88600 (2016) 33900 (2015) 63400 35700 37200 66200 87600 88100
2021-01-08 01:45 4.55 38400 88600 (2016) 33900 (2015) 63400 35700 37200 66200 87600 88100
2021-01-08 00:45 4.58 38500 88600 (2016) 33900 (2015) 63400 35700 37200 66200 87600 88100
2021-01-07 23:45 4.57 38400 87600 (2020) 33900 (2015) 62300 35500 36900 64400 86000 86700
2021-01-07 22:45 4.56 38400 87600 (2020) 33900 (2015) 62300 35500 36900 64400 86000 86700
2021-01-07 21:45 4.58 38500 87600 (2020) 33900 (2015) 62300 35500 36900 64400 86000 86700
2021-01-07 20:45 4.59 38500 87600 (2020) 33900 (2015) 62300 35500 36900 64400 86000 86700
2021-01-07 19:45 4.59 38500 87600 (2020) 33900 (2015) 62300 35500 36900 64400 86000 86700
2021-01-07 18:45 4.58 38500 87600 (2020) 33900 (2015) 62300 35500 36900 64400 86000 86700
2021-01-07 17:45 4.59 38500 87600 (2020) 33900 (2015) 62300 35500 36900 64400 86000 86700
2021-01-07 16:45 4.60 38600 87600 (2020) 33900 (2015) 62300 35500 36900 64400 86000 86700
2021-01-07 15:45 4.59 38500 87600 (2020) 33900 (2015) 62300 35500 36900 64400 86000 86700
2021-01-07 14:45 4.61 38600 87600 (2020) 33900 (2015) 62300 35500 36900 64400 86000 86700
2021-01-07 13:45 4.60 38600 87600 (2020) 33900 (2015) 62300 35500 36900 64400 86000 86700
2021-01-07 12:45 4.61 38600 87600 (2020) 33900 (2015) 62300 35500 36900 64400 86000 86700
2021-01-07 11:45 4.59 38500 87600 (2020) 33900 (2015) 62300 35500 36900 64400 86000 86700
2021-01-07 10:45 4.61 38600 87600 (2020) 33900 (2015) 62300 35500 36900 64400 86000 86700
2021-01-07 09:45 4.57 38400 87600 (2020) 33900 (2015) 62300 35500 36900 64400 86000 86700
2021-01-07 08:45 4.57 38400 87600 (2020) 33900 (2015) 62300 35500 36900 64400 86000 86700
2021-01-07 07:45 4.58 38500 87600 (2020) 33900 (2015) 62300 35500 36900 64400 86000 86700
2021-01-07 06:45 4.59 38500 87600 (2020) 33900 (2015) 62300 35500 36900 64400 86000 86700
2021-01-07 05:45 4.59 38500 87600 (2020) 33900 (2015) 62300 35500 36900 64400 86000 86700
2021-01-07 04:45 4.57 38400 87600 (2020) 33900 (2015) 62300 35500 36900 64400 86000 86700
2021-01-07 03:45 4.58 38500 87600 (2020) 33900 (2015) 62300 35500 36900 64400 86000 86700
2021-01-07 02:45 4.58 38500 87600 (2020) 33900 (2015) 62300 35500 36900 64400 86000 86700
2021-01-07 01:45 4.58 38500 87600 (2020) 33900 (2015) 62300 35500 36900 64400 86000 86700
2021-01-07 00:45 4.57 38400 87600 (2020) 33900 (2015) 62300 35500 36900 64400 86000 86700
2021-01-06 23:45 4.58 38500 92300 (2019) 35000 (2015) 63900 36200 37200 65000 89100 90600
2021-01-06 22:45 4.56 38400 92300 (2019) 35000 (2015) 63900 36200 37200 65000 89100 90600
2021-01-06 21:45 4.57 38400 92300 (2019) 35000 (2015) 63900 36200 37200 65000 89100 90600
2021-01-06 20:45 4.58 38500 92300 (2019) 35000 (2015) 63900 36200 37200 65000 89100 90600
2021-01-06 19:45 4.58 38500 92300 (2019) 35000 (2015) 63900 36200 37200 65000 89100 90600
2021-01-06 18:45 4.56 38400 92300 (2019) 35000 (2015) 63900 36200 37200 65000 89100 90600
2021-01-06 17:45 4.57 38400 92300 (2019) 35000 (2015) 63900 36200 37200 65000 89100 90600
2021-01-06 16:45 4.58 38500 92300 (2019) 35000 (2015) 63900 36200 37200 65000 89100 90600
2021-01-06 15:45 4.57 38400 92300 (2019) 35000 (2015) 63900 36200 37200 65000 89100 90600
2021-01-06 14:45 4.50 38100 92300 (2019) 35000 (2015) 63900 36200 37200 65000 89100 90600
2021-01-06 13:45 4.53 38300 92300 (2019) 35000 (2015) 63900 36200 37200 65000 89100 90600
2021-01-06 12:45 4.52 38200 92300 (2019) 35000 (2015) 63900 36200 37200 65000 89100 90600
2021-01-06 11:45 4.46 38000 92300 (2019) 35000 (2015) 63900 36200 37200 65000 89100 90600
2021-01-06 10:45 4.55 38400 92300 (2019) 35000 (2015) 63900 36200 37200 65000 89100 90600
2021-01-06 09:45 4.55 38400 92300 (2019) 35000 (2015) 63900 36200 37200 65000 89100 90600
2021-01-06 08:45 4.56 38400 92300 (2019) 35000 (2015) 63900 36200 37200 65000 89100 90600
2021-01-06 07:45 4.58 38500 92300 (2019) 35000 (2015) 63900 36200 37200 65000 89100 90600
2021-01-06 06:45 4.59 38500 92300 (2019) 35000 (2015) 63900 36200 37200 65000 89100 90600
2021-01-06 05:45 4.59 38500 92300 (2019) 35000 (2015) 63900 36200 37200 65000 89100 90600
2021-01-06 04:45 4.59 38500 92300 (2019) 35000 (2015) 63900 36200 37200 65000 89100 90600
2021-01-06 03:45 4.59 38500 92300 (2019) 35000 (2015) 63900 36200 37200 65000 89100 90600
2021-01-06 02:45 4.61 38600 92300 (2019) 35000 (2015) 63900 36200 37200 65000 89100 90600
2021-01-06 01:45 4.62 38600 92300 (2019) 35000 (2015) 63900 36200 37200 65000 89100 90600
2021-01-06 00:45 4.63 38700 92300 (2019) 35000 (2015) 63900 36200 37200 65000 89100 90600
2021-01-05 23:45 4.63 38700 103000 (2019) 36200 (2018) 66600 36400 36600 65900 94800 98600
2021-01-05 22:45 4.63 38700 103000 (2019) 36200 (2018) 66600 36400 36600 65900 94800 98600
2021-01-05 21:45 4.65 38800 103000 (2019) 36200 (2018) 66600 36400 36600 65900 94800 98600
2021-01-05 20:45 4.64 38700 103000 (2019) 36200 (2018) 66600 36400 36600 65900 94800 98600
2021-01-05 19:45 4.66 38800 103000 (2019) 36200 (2018) 66600 36400 36600 65900 94800 98600
2021-01-05 18:45 4.67 38900 103000 (2019) 36200 (2018) 66600 36400 36600 65900 94800 98600
2021-01-05 17:45 4.68 38900 103000 (2019) 36200 (2018) 66600 36400 36600 65900 94800 98600
2021-01-05 16:45 4.70 39000 103000 (2019) 36200 (2018) 66600 36400 36600 65900 94800 98600
2021-01-05 15:45 4.72 39100 103000 (2019) 36200 (2018) 66600 36400 36600 65900 94800 98600
2021-01-05 14:45 4.73 39100 103000 (2019) 36200 (2018) 66600 36400 36600 65900 94800 98600
2021-01-05 13:45 4.73 39100 103000 (2019) 36200 (2018) 66600 36400 36600 65900 94800 98600
2021-01-05 12:45 4.73 39100 103000 (2019) 36200 (2018) 66600 36400 36600 65900 94800 98600
2021-01-05 11:45 4.77 39300 103000 (2019) 36200 (2018) 66600 36400 36600 65900 94800 98600
2021-01-05 10:45 4.78 39300 103000 (2019) 36200 (2018) 66600 36400 36600 65900 94800 98600
2021-01-05 09:45 4.80 39400 103000 (2019) 36200 (2018) 66600 36400 36600 65900 94800 98600
2021-01-05 08:45 4.82 39500 103000 (2019) 36200 (2018) 66600 36400 36600 65900 94800 98600
2021-01-05 07:45 4.84 39600 103000 (2019) 36200 (2018) 66600 36400 36600 65900 94800 98600
2021-01-05 06:45 4.85 39600 103000 (2019) 36200 (2018) 66600 36400 36600 65900 94800 98600
2021-01-05 05:45 4.87 39700 103000 (2019) 36200 (2018) 66600 36400 36600 65900 94800 98600
2021-01-05 04:45 4.89 39800 103000 (2019) 36200 (2018) 66600 36400 36600 65900 94800 98600
2021-01-05 03:45 4.90 39800 103000 (2019) 36200 (2018) 66600 36400 36600 65900 94800 98600
2021-01-05 02:45 4.91 39900 103000 (2019) 36200 (2018) 66600 36400 36600 65900 94800 98600
2021-01-05 01:45 4.92 39900 103000 (2019) 36200 (2018) 66600 36400 36600 65900 94800 98600
2021-01-05 00:45 4.94 40000 103000 (2019) 36200 (2018) 66600 36400 36600 65900 94800 98600
2021-01-04 23:45 4.97 40100 115000 (2019) 34500 (2018) 70600 36500 38300 67500 104000 109000
2021-01-04 22:45 4.98 40200 115000 (2019) 34500 (2018) 70600 36500 38300 67500 104000 109000
2021-01-04 21:45 4.99 40200 115000 (2019) 34500 (2018) 70600 36500 38300 67500 104000 109000
2021-01-04 20:45 5.00 40300 115000 (2019) 34500 (2018) 70600 36500 38300 67500 104000 109000
2021-01-04 19:45 5.01 40300 115000 (2019) 34500 (2018) 70600 36500 38300 67500 104000 109000
2021-01-04 18:45 5.01 40300 115000 (2019) 34500 (2018) 70600 36500 38300 67500 104000 109000
2021-01-04 17:45 5.03 40400 115000 (2019) 34500 (2018) 70600 36500 38300 67500 104000 109000
2021-01-04 16:45 5.06 40500 115000 (2019) 34500 (2018) 70600 36500 38300 67500 104000 109000
2021-01-04 15:45 5.05 40500 115000 (2019) 34500 (2018) 70600 36500 38300 67500 104000 109000
2021-01-04 14:45 5.08 40600 115000 (2019) 34500 (2018) 70600 36500 38300 67500 104000 109000
2021-01-04 13:45 5.08 40600 115000 (2019) 34500 (2018) 70600 36500 38300 67500 104000 109000
2021-01-04 12:45 5.09 40700 115000 (2019) 34500 (2018) 70600 36500 38300 67500 104000 109000
2021-01-04 11:45 5.08 40600 115000 (2019) 34500 (2018) 70600 36500 38300 67500 104000 109000
2021-01-04 10:45 5.09 40700 115000 (2019) 34500 (2018) 70600 36500 38300 67500 104000 109000
2021-01-04 09:45 5.10 40700 115000 (2019) 34500 (2018) 70600 36500 38300 67500 104000 109000
2021-01-04 08:45 5.08 40600 115000 (2019) 34500 (2018) 70600 36500 38300 67500 104000 109000
2021-01-04 07:45 5.09 40700 115000 (2019) 34500 (2018) 70600 36500 38300 67500 104000 109000
2021-01-04 06:45 5.09 40700 115000 (2019) 34500 (2018) 70600 36500 38300 67500 104000 109000
2021-01-04 05:45 5.11 40800 115000 (2019) 34500 (2018) 70600 36500 38300 67500 104000 109000
2021-01-04 04:45 5.10 40700 115000 (2019) 34500 (2018) 70600 36500 38300 67500 104000 109000
2021-01-04 03:45 5.08 40600 115000 (2019) 34500 (2018) 70600 36500 38300 67500 104000 109000
2021-01-04 02:45 5.08 40600 115000 (2019) 34500 (2018) 70600 36500 38300 67500 104000 109000
2021-01-04 01:45 5.07 40600 115000 (2019) 34500 (2018) 70600 36500 38300 67500 104000 109000
2021-01-04 00:45 5.06 40500 115000 (2019) 34500 (2018) 70600 36500 38300 67500 104000 109000
2021-01-03 23:45 5.04 40500 141000 (2019) 34000 (2018) 78300 37300 40200 71800 117000 128000
2021-01-03 22:45 5.04 40500 141000 (2019) 34000 (2018) 78300 37300 40200 71800 117000 128000
2021-01-03 21:45 5.02 40400 141000 (2019) 34000 (2018) 78300 37300 40200 71800 117000 128000
2021-01-03 20:45 5.01 40300 141000 (2019) 34000 (2018) 78300 37300 40200 71800 117000 128000
2021-01-03 19:45 4.98 40200 141000 (2019) 34000 (2018) 78300 37300 40200 71800 117000 128000
2021-01-03 18:45 4.98 40200 141000 (2019) 34000 (2018) 78300 37300 40200 71800 117000 128000
2021-01-03 17:45 4.97 40100 141000 (2019) 34000 (2018) 78300 37300 40200 71800 117000 128000
2021-01-03 16:45 4.95 40100 141000 (2019) 34000 (2018) 78300 37300 40200 71800 117000 128000
2021-01-03 15:45 4.94 40000 141000 (2019) 34000 (2018) 78300 37300 40200 71800 117000 128000
2021-01-03 14:45 4.91 39900 141000 (2019) 34000 (2018) 78300 37300 40200 71800 117000 128000
2021-01-03 13:45 4.89 39800 141000 (2019) 34000 (2018) 78300 37300 40200 71800 117000 128000
2021-01-03 12:45 4.86 39700 141000 (2019) 34000 (2018) 78300 37300 40200 71800 117000 128000
2021-01-03 11:45 4.84 39600 141000 (2019) 34000 (2018) 78300 37300 40200 71800 117000 128000
2021-01-03 10:45 4.82 39500 141000 (2019) 34000 (2018) 78300 37300 40200 71800 117000 128000
2021-01-03 09:45 4.82 39500 141000 (2019) 34000 (2018) 78300 37300 40200 71800 117000 128000
2021-01-03 08:45 4.79 39400 141000 (2019) 34000 (2018) 78300 37300 40200 71800 117000 128000
2021-01-03 07:45 4.76 39200 141000 (2019) 34000 (2018) 78300 37300 40200 71800 117000 128000
2021-01-03 06:45 4.76 39200 141000 (2019) 34000 (2018) 78300 37300 40200 71800 117000 128000
2021-01-03 05:45 4.74 39200 141000 (2019) 34000 (2018) 78300 37300 40200 71800 117000 128000
2021-01-03 04:45 4.71 39000 141000 (2019) 34000 (2018) 78300 37300 40200 71800 117000 128000
2021-01-03 03:45 4.70 39000 141000 (2019) 34000 (2018) 78300 37300 40200 71800 117000 128000
2021-01-03 02:45 4.68 38900 141000 (2019) 34000 (2018) 78300 37300 40200 71800 117000 128000
2021-01-03 01:45 4.67 38900 141000 (2019) 34000 (2018) 78300 37300 40200 71800 117000 128000
2021-01-03 00:45 4.65 38800 141000 (2019) 34000 (2018) 78300 37300 40200 71800 117000 128000
2021-01-02 23:45 4.62 38600 171000 (2019) 34500 (2018) 88000 38400 41800 79200 133000 151000
2021-01-02 22:45 4.61 38600 171000 (2019) 34500 (2018) 88000 38400 41800 79200 133000 151000
2021-01-02 21:45 4.59 38500 171000 (2019) 34500 (2018) 88000 38400 41800 79200 133000 151000
2021-01-02 20:45 4.57 38400 171000 (2019) 34500 (2018) 88000 38400 41800 79200 133000 151000
2021-01-02 19:45 4.53 38300 171000 (2019) 34500 (2018) 88000 38400 41800 79200 133000 151000
2021-01-02 18:45 4.53 38300 171000 (2019) 34500 (2018) 88000 38400 41800 79200 133000 151000
2021-01-02 17:45 4.49 38100 171000 (2019) 34500 (2018) 88000 38400 41800 79200 133000 151000
2021-01-02 16:45 4.47 38000 171000 (2019) 34500 (2018) 88000 38400 41800 79200 133000 151000
2021-01-02 15:45 4.44 37900 171000 (2019) 34500 (2018) 88000 38400 41800 79200 133000 151000
2021-01-02 14:45 4.43 37900 171000 (2019) 34500 (2018) 88000 38400 41800 79200 133000 151000
2021-01-02 13:45 4.39 37700 171000 (2019) 34500 (2018) 88000 38400 41800 79200 133000 151000
2021-01-02 12:45 4.38 37600 171000 (2019) 34500 (2018) 88000 38400 41800 79200 133000 151000
2021-01-02 11:45 4.36 37600 171000 (2019) 34500 (2018) 88000 38400 41800 79200 133000 151000
2021-01-02 10:45 4.32 37400 171000 (2019) 34500 (2018) 88000 38400 41800 79200 133000 151000
2021-01-02 09:45 4.29 37300 171000 (2019) 34500 (2018) 88000 38400 41800 79200 133000 151000
2021-01-02 08:45 4.28 37200 171000 (2019) 34500 (2018) 88000 38400 41800 79200 133000 151000
2021-01-02 07:45 4.23 37000 171000 (2019) 34500 (2018) 88000 38400 41800 79200 133000 151000
2021-01-02 06:45 4.21 37000 171000 (2019) 34500 (2018) 88000 38400 41800 79200 133000 151000
2021-01-02 05:45 4.20 36900 171000 (2019) 34500 (2018) 88000 38400 41800 79200 133000 151000
2021-01-02 04:45 4.16 36700 171000 (2019) 34500 (2018) 88000 38400 41800 79200 133000 151000
2021-01-02 03:45 4.14 36700 171000 (2019) 34500 (2018) 88000 38400 41800 79200 133000 151000
2021-01-02 02:45 4.11 36500 171000 (2019) 34500 (2018) 88000 38400 41800 79200 133000 151000
2021-01-02 01:45 4.09 36500 171000 (2019) 34500 (2018) 88000 38400 41800 79200 133000 151000
2021-01-02 00:45 4.06 36300 171000 (2019) 34500 (2018) 88000 38400 41800 79200 133000 151000
2021-01-01 23:45 4.05 36300 184000 (2019) 36300 (2018) 95000 40000 43300 87100 143000 162000
2021-01-01 22:45 4.01 36100 184000 (2019) 36300 (2018) 95000 40000 43300 87100 143000 162000
2021-01-01 21:45 4.00 36100 184000 (2019) 36300 (2018) 95000 40000 43300 87100 143000 162000
2021-01-01 20:45 3.98 36000 184000 (2019) 36300 (2018) 95000 40000 43300 87100 143000 162000
2021-01-01 19:45 3.93 35800 184000 (2019) 36300 (2018) 95000 40000 43300 87100 143000 162000
2021-01-01 18:45 3.92 35800 184000 (2019) 36300 (2018) 95000 40000 43300 87100 143000 162000
2021-01-01 17:45 3.88 35600 184000 (2019) 36300 (2018) 95000 40000 43300 87100 143000 162000
2021-01-01 16:45 3.88 35600 184000 (2019) 36300 (2018) 95000 40000 43300 87100 143000 162000
2021-01-01 15:45 3.85 35500 184000 (2019) 36300 (2018) 95000 40000 43300 87100 143000 162000
2021-01-01 14:45 3.85 35500 184000 (2019) 36300 (2018) 95000 40000 43300 87100 143000 162000
2021-01-01 13:45 3.82 35400 184000 (2019) 36300 (2018) 95000 40000 43300 87100 143000 162000
2021-01-01 12:45 3.80 35300 184000 (2019) 36300 (2018) 95000 40000 43300 87100 143000 162000
2021-01-01 11:45 3.79 35300 184000 (2019) 36300 (2018) 95000 40000 43300 87100 143000 162000
2021-01-01 10:45 3.78 35200 184000 (2019) 36300 (2018) 95000 40000 43300 87100 143000 162000
2021-01-01 09:45 3.79 35300 184000 (2019) 36300 (2018) 95000 40000 43300 87100 143000 162000
2021-01-01 08:45 3.78 35200 184000 (2019) 36300 (2018) 95000 40000 43300 87100 143000 162000
2021-01-01 07:45 3.79 35300 184000 (2019) 36300 (2018) 95000 40000 43300 87100 143000 162000
2021-01-01 06:45 3.79 35300 184000 (2019) 36300 (2018) 95000 40000 43300 87100 143000 162000
2021-01-01 05:45 3.74 35100 184000 (2019) 36300 (2018) 95000 40000 43300 87100 143000 162000
2021-01-01 04:45 3.72 35000 184000 (2019) 36300 (2018) 95000 40000 43300 87100 143000 162000
2021-01-01 03:45 3.72 35000 184000 (2019) 36300 (2018) 95000 40000 43300 87100 143000 162000
2021-01-01 02:45 3.70 34900 184000 (2019) 36300 (2018) 95000 40000 43300 87100 143000 162000
2021-01-01 01:45 3.71 35000 184000 (2019) 36300 (2018) 95000 40000 43300 87100 143000 162000
2021-01-01 00:45 3.73 35000 184000 (2019) 36300 (2018) 95000 40000 43300 87100 143000 162000
2020-12-31 23:45 3.71 35000 161000 (2019) 38800 (2018) 95700 41800 44400 96000 142000 151000
2020-12-31 22:45 3.73 35000 161000 (2019) 38800 (2018) 95700 41800 44400 96000 142000 151000
2020-12-31 21:45 3.74 35100 161000 (2019) 38800 (2018) 95700 41800 44400 96000 142000 151000
2020-12-31 20:45 3.76 35200 161000 (2019) 38800 (2018) 95700 41800 44400 96000 142000 151000
2020-12-31 19:45 3.74 35100 161000 (2019) 38800 (2018) 95700 41800 44400 96000 142000 151000
2020-12-31 18:45 3.78 35200 161000 (2019) 38800 (2018) 95700 41800 44400 96000 142000 151000
2020-12-31 17:45 3.77 35200 161000 (2019) 38800 (2018) 95700 41800 44400 96000 142000 151000
2020-12-31 16:45 3.78 35200 161000 (2019) 38800 (2018) 95700 41800 44400 96000 142000 151000
2020-12-31 15:45 3.79 35300 161000 (2019) 38800 (2018) 95700 41800 44400 96000 142000 151000
2020-12-31 14:45 3.79 35300 161000 (2019) 38800 (2018) 95700 41800 44400 96000 142000 151000
2020-12-31 13:45 3.80 35300 161000 (2019) 38800 (2018) 95700 41800 44400 96000 142000 151000
2020-12-31 12:45 3.80 35300 161000 (2019) 38800 (2018) 95700 41800 44400 96000 142000 151000
2020-12-31 11:45 3.80 35300 161000 (2019) 38800 (2018) 95700 41800 44400 96000 142000 151000
2020-12-31 10:45 3.81 35400 161000 (2019) 38800 (2018) 95700 41800 44400 96000 142000 151000
2020-12-31 09:45 3.83 35400 161000 (2019) 38800 (2018) 95700 41800 44400 96000 142000 151000
2020-12-31 08:45 3.84 35500 161000 (2019) 38800 (2018) 95700 41800 44400 96000 142000 151000
2020-12-31 07:45 3.85 35500 161000 (2019) 38800 (2018) 95700 41800 44400 96000 142000 151000
2020-12-31 06:45 3.85 35500 161000 (2019) 38800 (2018) 95700 41800 44400 96000 142000 151000
2020-12-31 05:45 3.87 35600 161000 (2019) 38800 (2018) 95700 41800 44400 96000 142000 151000
2020-12-31 04:45 3.87 35600 161000 (2019) 38800 (2018) 95700 41800 44400 96000 142000 151000
2020-12-31 03:45 3.86 35500 161000 (2019) 38800 (2018) 95700 41800 44400 96000 142000 151000
2020-12-31 02:45 3.87 35600 161000 (2019) 38800 (2018) 95700 41800 44400 96000 142000 151000
2020-12-31 01:45 3.87 35600 161000 (2019) 38800 (2018) 95700 41800 44400 96000 142000 151000
2020-12-31 00:45 3.87 35600 161000 (2019) 38800 (2018) 95700 41800 44400 96000 142000 151000
2020-12-30 23:45 3.88 35600 165000 (2016) 40800 (2018) 91200 43300 45500 85200 134000 149000
2020-12-30 22:45 3.88 35600 165000 (2016) 40800 (2018) 91200 43300 45500 85200 134000 149000
2020-12-30 21:45 3.89 35700 165000 (2016) 40800 (2018) 91200 43300 45500 85200 134000 149000
2020-12-30 20:45 3.89 35700 165000 (2016) 40800 (2018) 91200 43300 45500 85200 134000 149000
2020-12-30 19:45 3.90 35700 165000 (2016) 40800 (2018) 91200 43300 45500 85200 134000 149000
2020-12-30 18:45 3.89 35700 165000 (2016) 40800 (2018) 91200 43300 45500 85200 134000 149000
2020-12-30 17:45 3.87 35600 165000 (2016) 40800 (2018) 91200 43300 45500 85200 134000 149000
2020-12-30 16:45 3.89 35700 165000 (2016) 40800 (2018) 91200 43300 45500 85200 134000 149000
2020-12-30 15:45 3.90 35700 165000 (2016) 40800 (2018) 91200 43300 45500 85200 134000 149000
2020-12-30 14:45 3.89 35700 165000 (2016) 40800 (2018) 91200 43300 45500 85200 134000 149000
2020-12-30 13:45 3.88 35600 165000 (2016) 40800 (2018) 91200 43300 45500 85200 134000 149000
2020-12-30 12:45 3.87 35600 165000 (2016) 40800 (2018) 91200 43300 45500 85200 134000 149000
2020-12-30 11:45 3.87 35600 165000 (2016) 40800 (2018) 91200 43300 45500 85200 134000 149000
2020-12-30 10:45 3.87 35600 165000 (2016) 40800 (2018) 91200 43300 45500 85200 134000 149000
2020-12-30 09:45 3.87 35600 165000 (2016) 40800 (2018) 91200 43300 45500 85200 134000 149000
2020-12-30 08:45 3.85 35500 165000 (2016) 40800 (2018) 91200 43300 45500 85200 134000 149000
2020-12-30 07:45 3.86 35500 165000 (2016) 40800 (2018) 91200 43300 45500 85200 134000 149000
2020-12-30 06:45 3.85 35500 165000 (2016) 40800 (2018) 91200 43300 45500 85200 134000 149000
2020-12-30 05:45 3.81 35400 165000 (2016) 40800 (2018) 91200 43300 45500 85200 134000 149000
2020-12-30 04:45 3.80 35300 165000 (2016) 40800 (2018) 91200 43300 45500 85200 134000 149000
2020-12-30 03:45 3.84 35500 165000 (2016) 40800 (2018) 91200 43300 45500 85200 134000 149000
2020-12-30 02:45 3.82 35400 165000 (2016) 40800 (2018) 91200 43300 45500 85200 134000 149000
2020-12-30 01:45 3.80 35300 165000 (2016) 40800 (2018) 91200 43300 45500 85200 134000 149000
2020-12-30 00:45 3.81 35400 165000 (2016) 40800 (2018) 91200 43300 45500 85200 134000 149000
2020-12-29 23:45 3.72 35000 185000 (2016) 41800 (2018) 84800 43000 44100 69800 119000 150000
2020-12-29 22:45 3.68 34800 185000 (2016) 41800 (2018) 84800 43000 44100 69800 119000 150000
2020-12-29 21:45 3.78 35200 185000 (2016) 41800 (2018) 84800 43000 44100 69800 119000 150000
2020-12-29 20:45 3.76 35200 185000 (2016) 41800 (2018) 84800 43000 44100 69800 119000 150000
2020-12-29 19:45 3.68 34800 185000 (2016) 41800 (2018) 84800 43000 44100 69800 119000 150000
2020-12-29 18:45 3.72 35000 185000 (2016) 41800 (2018) 84800 43000 44100 69800 119000 150000
2020-12-29 17:45 3.69 34900 185000 (2016) 41800 (2018) 84800 43000 44100 69800 119000 150000
2020-12-29 16:45 3.65 34700 185000 (2016) 41800 (2018) 84800 43000 44100 69800 119000 150000
2020-12-29 15:45 3.65 34700 185000 (2016) 41800 (2018) 84800 43000 44100 69800 119000 150000
2020-12-29 14:45 3.65 34700 185000 (2016) 41800 (2018) 84800 43000 44100 69800 119000 150000
2020-12-29 13:45 3.65 34700 185000 (2016) 41800 (2018) 84800 43000 44100 69800 119000 150000
2020-12-29 12:45 3.62 34600 185000 (2016) 41800 (2018) 84800 43000 44100 69800 119000 150000
2020-12-29 11:45 3.62 34600 185000 (2016) 41800 (2018) 84800 43000 44100 69800 119000 150000
2020-12-29 10:45 3.70 34900 185000 (2016) 41800 (2018) 84800 43000 44100 69800 119000 150000
2020-12-29 09:45 3.71 35000 185000 (2016) 41800 (2018) 84800 43000 44100 69800 119000 150000
2020-12-29 08:45 3.63 34700 185000 (2016) 41800 (2018) 84800 43000 44100 69800 119000 150000
2020-12-29 07:45 3.63 34700 185000 (2016) 41800 (2018) 84800 43000 44100 69800 119000 150000
2020-12-29 06:45 3.68 34800 185000 (2016) 41800 (2018) 84800 43000 44100 69800 119000 150000
2020-12-29 05:45 3.64 34700 185000 (2016) 41800 (2018) 84800 43000 44100 69800 119000 150000
2020-12-29 04:45 3.70 34900 185000 (2016) 41800 (2018) 84800 43000 44100 69800 119000 150000
2020-12-29 03:45 3.70 34900 185000 (2016) 41800 (2018) 84800 43000 44100 69800 119000 150000
2020-12-29 02:45 3.69 34900 185000 (2016) 41800 (2018) 84800 43000 44100 69800 119000 150000
2020-12-29 01:45 3.70 34900 185000 (2016) 41800 (2018) 84800 43000 44100 69800 119000 150000
2020-12-29 00:45 3.69 34900 185000 (2016) 41800 (2018) 84800 43000 44100 69800 119000 150000
2020-12-28 23:45 3.68 34800 165000 (2016) 42800 (2018) 77200 43400 44000 63000 105000 133000
2020-12-28 22:45 3.68 34800 165000 (2016) 42800 (2018) 77200 43400 44000 63000 105000 133000
2020-12-28 21:45 3.68 34800 165000 (2016) 42800 (2018) 77200 43400 44000 63000 105000 133000
2020-12-28 20:45 3.68 34800 165000 (2016) 42800 (2018) 77200 43400 44000 63000 105000 133000
2020-12-28 19:45 3.68 34800 165000 (2016) 42800 (2018) 77200 43400 44000 63000 105000 133000
2020-12-28 18:45 3.66 34800 165000 (2016) 42800 (2018) 77200 43400 44000 63000 105000 133000
2020-12-28 17:45 3.64 34700 165000 (2016) 42800 (2018) 77200 43400 44000 63000 105000 133000
2020-12-28 16:45 3.64 34700 165000 (2016) 42800 (2018) 77200 43400 44000 63000 105000 133000
2020-12-28 15:45 3.63 34700 165000 (2016) 42800 (2018) 77200 43400 44000 63000 105000 133000
2020-12-28 14:45 3.61 34600 165000 (2016) 42800 (2018) 77200 43400 44000 63000 105000 133000
2020-12-28 13:45 3.61 34600 165000 (2016) 42800 (2018) 77200 43400 44000 63000 105000 133000
2020-12-28 12:45 3.61 34600 165000 (2016) 42800 (2018) 77200 43400 44000 63000 105000 133000
2020-12-28 11:45 3.60 34500 165000 (2016) 42800 (2018) 77200 43400 44000 63000 105000 133000
2020-12-28 10:45 3.59 34500 165000 (2016) 42800 (2018) 77200 43400 44000 63000 105000 133000
2020-12-28 09:45 3.59 34500 165000 (2016) 42800 (2018) 77200 43400 44000 63000 105000 133000
2020-12-28 08:45 3.58 34500 165000 (2016) 42800 (2018) 77200 43400 44000 63000 105000 133000
2020-12-28 07:45 3.58 34500 165000 (2016) 42800 (2018) 77200 43400 44000 63000 105000 133000
2020-12-28 06:45 3.58 34500 165000 (2016) 42800 (2018) 77200 43400 44000 63000 105000 133000
2020-12-28 05:45 3.59 34500 165000 (2016) 42800 (2018) 77200 43400 44000 63000 105000 133000
2020-12-28 04:45 3.57 34400 165000 (2016) 42800 (2018) 77200 43400 44000 63000 105000 133000
2020-12-28 03:45 3.57 34400 165000 (2016) 42800 (2018) 77200 43400 44000 63000 105000 133000
2020-12-28 02:45 3.56 34400 165000 (2016) 42800 (2018) 77200 43400 44000 63000 105000 133000
2020-12-28 01:45 3.55 34300 165000 (2016) 42800 (2018) 77200 43400 44000 63000 105000 133000
2020-12-28 00:45 3.54 34300 165000 (2016) 42800 (2018) 77200 43400 44000 63000 105000 133000
2020-12-27 23:45 3.54 34300 140000 (2016) 43400 (2018) 72200 43500 43600 62500 95500 116000
2020-12-27 22:45 3.52 34200 140000 (2016) 43400 (2018) 72200 43500 43600 62500 95500 116000
2020-12-27 21:45 3.51 34200 140000 (2016) 43400 (2018) 72200 43500 43600 62500 95500 116000
2020-12-27 20:45 3.51 34200 140000 (2016) 43400 (2018) 72200 43500 43600 62500 95500 116000
2020-12-27 19:45 3.36 33600 140000 (2016) 43400 (2018) 72200 43500 43600 62500 95500 116000
2020-12-27 18:45 3.42 33800 140000 (2016) 43400 (2018) 72200 43500 43600 62500 95500 116000
2020-12-27 17:45 3.40 33800 140000 (2016) 43400 (2018) 72200 43500 43600 62500 95500 116000
2020-12-27 16:45 3.42 33800 140000 (2016) 43400 (2018) 72200 43500 43600 62500 95500 116000
2020-12-27 15:45 3.48 34100 140000 (2016) 43400 (2018) 72200 43500 43600 62500 95500 116000
2020-12-27 14:45 3.44 33900 140000 (2016) 43400 (2018) 72200 43500 43600 62500 95500 116000
2020-12-27 13:45 3.48 34100 140000 (2016) 43400 (2018) 72200 43500 43600 62500 95500 116000
2020-12-27 12:45 3.49 34100 140000 (2016) 43400 (2018) 72200 43500 43600 62500 95500 116000
2020-12-27 11:45 3.47 34000 140000 (2016) 43400 (2018) 72200 43500 43600 62500 95500 116000
2020-12-27 10:45 3.43 33900 140000 (2016) 43400 (2018) 72200 43500 43600 62500 95500 116000
2020-12-27 09:45 3.48 34100 140000 (2016) 43400 (2018) 72200 43500 43600 62500 95500 116000
2020-12-27 08:45 3.47 34000 140000 (2016) 43400 (2018) 72200 43500 43600 62500 95500 116000
2020-12-27 07:45 3.48 34100 140000 (2016) 43400 (2018) 72200 43500 43600 62500 95500 116000
2020-12-27 06:45 3.48 34100 140000 (2016) 43400 (2018) 72200 43500 43600 62500 95500 116000
2020-12-27 05:45 3.47 34000 140000 (2016) 43400 (2018) 72200 43500 43600 62500 95500 116000
2020-12-27 04:45 3.47 34000 140000 (2016) 43400 (2018) 72200 43500 43600 62500 95500 116000
2020-12-27 03:45 3.48 34100 140000 (2016) 43400 (2018) 72200 43500 43600 62500 95500 116000
2020-12-27 02:45 3.48 34100 140000 (2016) 43400 (2018) 72200 43500 43600 62500 95500 116000
2020-12-27 01:45 3.48 34100 140000 (2016) 43400 (2018) 72200 43500 43600 62500 95500 116000
2020-12-27 00:45 3.47 34000 140000 (2016) 43400 (2018) 72200 43500 43600 62500 95500 116000
2020-12-26 23:45 3.47 34000 118000 (2016) 43200 (2017) 68500 43500 43700 62700 89700 103000
2020-12-26 22:45 3.47 34000 118000 (2016) 43200 (2017) 68500 43500 43700 62700 89700 103000
2020-12-26 21:45 3.48 34100 118000 (2016) 43200 (2017) 68500 43500 43700 62700 89700 103000
2020-12-26 20:45 3.47 34000 118000 (2016) 43200 (2017) 68500 43500 43700 62700 89700 103000
2020-12-26 19:45 3.47 34000 118000 (2016) 43200 (2017) 68500 43500 43700 62700 89700 103000
2020-12-26 18:45 3.47 34000 118000 (2016) 43200 (2017) 68500 43500 43700 62700 89700 103000
2020-12-26 17:45 3.47 34000 118000 (2016) 43200 (2017) 68500 43500 43700 62700 89700 103000
2020-12-26 16:45 3.48 34100 118000 (2016) 43200 (2017) 68500 43500 43700 62700 89700 103000
2020-12-26 15:45 3.48 34100 118000 (2016) 43200 (2017) 68500 43500 43700 62700 89700 103000
2020-12-26 14:45 3.46 34000 118000 (2016) 43200 (2017) 68500 43500 43700 62700 89700 103000
2020-12-26 13:45 3.47 34000 118000 (2016) 43200 (2017) 68500 43500 43700 62700 89700 103000
2020-12-26 12:45 3.43 33900 118000 (2016) 43200 (2017) 68500 43500 43700 62700 89700 103000
2020-12-26 11:45 3.46 34000 118000 (2016) 43200 (2017) 68500 43500 43700 62700 89700 103000
2020-12-26 10:45 3.47 34000 118000 (2016) 43200 (2017) 68500 43500 43700 62700 89700 103000
2020-12-26 09:45 3.47 34000 118000 (2016) 43200 (2017) 68500 43500 43700 62700 89700 103000
2020-12-26 08:45 3.46 34000 118000 (2016) 43200 (2017) 68500 43500 43700 62700 89700 103000
2020-12-26 07:45 3.45 34000 118000 (2016) 43200 (2017) 68500 43500 43700 62700 89700 103000
2020-12-26 06:45 3.45 34000 118000 (2016) 43200 (2017) 68500 43500 43700 62700 89700 103000
2020-12-26 05:45 3.44 33900 118000 (2016) 43200 (2017) 68500 43500 43700 62700 89700 103000
2020-12-26 04:45 3.46 34000 118000 (2016) 43200 (2017) 68500 43500 43700 62700 89700 103000
2020-12-26 03:45 3.45 34000 118000 (2016) 43200 (2017) 68500 43500 43700 62700 89700 103000
2020-12-26 02:45 3.45 34000 118000 (2016) 43200 (2017) 68500 43500 43700 62700 89700 103000
2020-12-26 01:45 3.47 34000 118000 (2016) 43200 (2017) 68500 43500 43700 62700 89700 103000
2020-12-26 00:45 3.46 34000 118000 (2016) 43200 (2017) 68500 43500 43700 62700 89700 103000
2020-12-25 23:45 3.46 34000 109000 (2016) 42400 (2017) 67100 43400 44200 62700 88100 97800
2020-12-25 22:45 3.47 34000 109000 (2016) 42400 (2017) 67100 43400 44200 62700 88100 97800
2020-12-25 21:45 3.46 34000 109000 (2016) 42400 (2017) 67100 43400 44200 62700 88100 97800
2020-12-25 20:45 3.45 34000 109000 (2016) 42400 (2017) 67100 43400 44200 62700 88100 97800
2020-12-25 19:45 3.47 34000 109000 (2016) 42400 (2017) 67100 43400 44200 62700 88100 97800
2020-12-25 18:45 3.45 34000 109000 (2016) 42400 (2017) 67100 43400 44200 62700 88100 97800
2020-12-25 17:45 3.46 34000 109000 (2016) 42400 (2017) 67100 43400 44200 62700 88100 97800
2020-12-25 16:45 3.46 34000 109000 (2016) 42400 (2017) 67100 43400 44200 62700 88100 97800
2020-12-25 15:45 3.47 34000 109000 (2016) 42400 (2017) 67100 43400 44200 62700 88100 97800
2020-12-25 14:45 3.46 34000 109000 (2016) 42400 (2017) 67100 43400 44200 62700 88100 97800
2020-12-25 13:45 3.46 34000 109000 (2016) 42400 (2017) 67100 43400 44200 62700 88100 97800
2020-12-25 12:45 3.47 34000 109000 (2016) 42400 (2017) 67100 43400 44200 62700 88100 97800
2020-12-25 11:45 3.45 34000 109000 (2016) 42400 (2017) 67100 43400 44200 62700 88100 97800
2020-12-25 10:45 3.47 34000 109000 (2016) 42400 (2017) 67100 43400 44200 62700 88100 97800
2020-12-25 09:45 3.46 34000 109000 (2016) 42400 (2017) 67100 43400 44200 62700 88100 97800
2020-12-25 08:45 3.48 34100 109000 (2016) 42400 (2017) 67100 43400 44200 62700 88100 97800
2020-12-25 07:45 3.49 34100 109000 (2016) 42400 (2017) 67100 43400 44200 62700 88100 97800
2020-12-25 06:45 3.49 34100 109000 (2016) 42400 (2017) 67100 43400 44200 62700 88100 97800
2020-12-25 05:45 3.51 34200 109000 (2016) 42400 (2017) 67100 43400 44200 62700 88100 97800
2020-12-25 04:45 3.49 34100 109000 (2016) 42400 (2017) 67100 43400 44200 62700 88100 97800
2020-12-25 03:45 3.51 34200 109000 (2016) 42400 (2017) 67100 43400 44200 62700 88100 97800
2020-12-25 02:45 3.49 34100 109000 (2016) 42400 (2017) 67100 43400 44200 62700 88100 97800
2020-12-25 01:45 3.51 34200 109000 (2016) 42400 (2017) 67100 43400 44200 62700 88100 97800
2020-12-25 00:45 3.47 34000 109000 (2016) 42400 (2017) 67100 43400 44200 62700 88100 97800
2020-12-24 23:45 3.43 33900 115000 (2016) 41600 (2017) 68300 43200 44600 63200 89800 102000
2020-12-24 22:45 3.42 33800 115000 (2016) 41600 (2017) 68300 43200 44600 63200 89800 102000
2020-12-24 21:45 3.44 33900 115000 (2016) 41600 (2017) 68300 43200 44600 63200 89800 102000
2020-12-24 20:45 3.51 34200 115000 (2016) 41600 (2017) 68300 43200 44600 63200 89800 102000
2020-12-24 19:45 3.49 34100 115000 (2016) 41600 (2017) 68300 43200 44600 63200 89800 102000
2020-12-24 18:45 3.49 34100 115000 (2016) 41600 (2017) 68300 43200 44600 63200 89800 102000
2020-12-24 17:45 3.45 34000 115000 (2016) 41600 (2017) 68300 43200 44600 63200 89800 102000
2020-12-24 16:45 3.36 33600 115000 (2016) 41600 (2017) 68300 43200 44600 63200 89800 102000
2020-12-24 15:45 3.34 33500 115000 (2016) 41600 (2017) 68300 43200 44600 63200 89800 102000
2020-12-24 14:45 3.39 33700 115000 (2016) 41600 (2017) 68300 43200 44600 63200 89800 102000
2020-12-24 13:45 3.35 33600 115000 (2016) 41600 (2017) 68300 43200 44600 63200 89800 102000
2020-12-24 12:45 3.38 33700 115000 (2016) 41600 (2017) 68300 43200 44600 63200 89800 102000
2020-12-24 11:45 3.38 33700 115000 (2016) 41600 (2017) 68300 43200 44600 63200 89800 102000
2020-12-24 10:45 3.47 34000 115000 (2016) 41600 (2017) 68300 43200 44600 63200 89800 102000
2020-12-24 09:45 3.48 34100 115000 (2016) 41600 (2017) 68300 43200 44600 63200 89800 102000
2020-12-24 08:45 3.43 33900 115000 (2016) 41600 (2017) 68300 43200 44600 63200 89800 102000
2020-12-24 07:45 3.43 33900 115000 (2016) 41600 (2017) 68300 43200 44600 63200 89800 102000
2020-12-24 06:45 3.46 34000 115000 (2016) 41600 (2017) 68300 43200 44600 63200 89800 102000
2020-12-24 05:45 3.43 33900 115000 (2016) 41600 (2017) 68300 43200 44600 63200 89800 102000
2020-12-24 04:45 3.44 33900 115000 (2016) 41600 (2017) 68300 43200 44600 63200 89800 102000
2020-12-24 03:45 3.51 34200 115000 (2016) 41600 (2017) 68300 43200 44600 63200 89800 102000
2020-12-24 02:45 3.51 34200 115000 (2016) 41600 (2017) 68300 43200 44600 63200 89800 102000
2020-12-24 01:45 3.51 34200 115000 (2016) 41600 (2017) 68300 43200 44600 63200 89800 102000
2020-12-24 00:45 3.48 34100 115000 (2016) 41600 (2017) 68300 43200 44600 63200 89800 102000
2020-12-23 23:45 3.42 33800 117000 (2016) 41100 (2017) 68600 43000 44700 63500 89800 103000
2020-12-23 22:45 3.51 34200 117000 (2016) 41100 (2017) 68600 43000 44700 63500 89800 103000
2020-12-23 21:45 3.41 33800 117000 (2016) 41100 (2017) 68600 43000 44700 63500 89800 103000
2020-12-23 20:45 3.49 34100 117000 (2016) 41100 (2017) 68600 43000 44700 63500 89800 103000
2020-12-23 19:45 3.44 33900 117000 (2016) 41100 (2017) 68600 43000 44700 63500 89800 103000
2020-12-23 18:45 3.52 34200 117000 (2016) 41100 (2017) 68600 43000 44700 63500 89800 103000
2020-12-23 17:45 3.51 34200 117000 (2016) 41100 (2017) 68600 43000 44700 63500 89800 103000
2020-12-23 16:45 3.45 34000 117000 (2016) 41100 (2017) 68600 43000 44700 63500 89800 103000
2020-12-23 15:45 3.45 34000 117000 (2016) 41100 (2017) 68600 43000 44700 63500 89800 103000
2020-12-23 14:45 3.54 34300 117000 (2016) 41100 (2017) 68600 43000 44700 63500 89800 103000
2020-12-23 13:45 3.52 34200 117000 (2016) 41100 (2017) 68600 43000 44700 63500 89800 103000
2020-12-23 12:45 3.59 34500 117000 (2016) 41100 (2017) 68600 43000 44700 63500 89800 103000
2020-12-23 11:45 3.56 34400 117000 (2016) 41100 (2017) 68600 43000 44700 63500 89800 103000
2020-12-23 10:45 3.58 34500 117000 (2016) 41100 (2017) 68600 43000 44700 63500 89800 103000
2020-12-23 09:45 3.54 34300 117000 (2016) 41100 (2017) 68600 43000 44700 63500 89800 103000
2020-12-23 08:45 3.54 34300 117000 (2016) 41100 (2017) 68600 43000 44700 63500 89800 103000
2020-12-23 07:45 3.58 34500 117000 (2016) 41100 (2017) 68600 43000 44700 63500 89800 103000
2020-12-23 06:45 3.56 34400 117000 (2016) 41100 (2017) 68600 43000 44700 63500 89800 103000
2020-12-23 05:45 3.54 34300 117000 (2016) 41100 (2017) 68600 43000 44700 63500 89800 103000
2020-12-23 04:45 3.55 34300 117000 (2016) 41100 (2017) 68600 43000 44700 63500 89800 103000
2020-12-23 03:45 3.54 34300 117000 (2016) 41100 (2017) 68600 43000 44700 63500 89800 103000
2020-12-23 02:45 3.55 34300 117000 (2016) 41100 (2017) 68600 43000 44700 63500 89800 103000
2020-12-23 01:45 3.57 34400 117000 (2016) 41100 (2017) 68600 43000 44700 63500 89800 103000
2020-12-23 00:45 3.60 34500 117000 (2016) 41100 (2017) 68600 43000 44700 63500 89800 103000
2020-12-22 23:45 3.59 34500 123000 (2016) 42000 (2017) 70000 43500 44900 63500 92500 107000
2020-12-22 22:45 3.59 34500 123000 (2016) 42000 (2017) 70000 43500 44900 63500 92500 107000
2020-12-22 21:45 3.62 34600 123000 (2016) 42000 (2017) 70000 43500 44900 63500 92500 107000
2020-12-22 20:45 3.59 34500 123000 (2016) 42000 (2017) 70000 43500 44900 63500 92500 107000
2020-12-22 19:45 3.59 34500 123000 (2016) 42000 (2017) 70000 43500 44900 63500 92500 107000
2020-12-22 18:45 3.61 34600 123000 (2016) 42000 (2017) 70000 43500 44900 63500 92500 107000
2020-12-22 17:45 3.65 34700 123000 (2016) 42000 (2017) 70000 43500 44900 63500 92500 107000
2020-12-22 16:45 3.58 34500 123000 (2016) 42000 (2017) 70000 43500 44900 63500 92500 107000
2020-12-22 15:45 3.60 34500 123000 (2016) 42000 (2017) 70000 43500 44900 63500 92500 107000
2020-12-22 14:45 3.63 34700 123000 (2016) 42000 (2017) 70000 43500 44900 63500 92500 107000
2020-12-22 13:45 3.65 34700 123000 (2016) 42000 (2017) 70000 43500 44900 63500 92500 107000
2020-12-22 12:45 3.70 34900 123000 (2016) 42000 (2017) 70000 43500 44900 63500 92500 107000
2020-12-22 11:45 3.70 34900 123000 (2016) 42000 (2017) 70000 43500 44900 63500 92500 107000
2020-12-22 10:45 3.71 35000 123000 (2016) 42000 (2017) 70000 43500 44900 63500 92500 107000
2020-12-22 09:45 3.71 35000 123000 (2016) 42000 (2017) 70000 43500 44900 63500 92500 107000
2020-12-22 08:45 3.73 35000 123000 (2016) 42000 (2017) 70000 43500 44900 63500 92500 107000
2020-12-22 07:45 3.73 35000 123000 (2016) 42000 (2017) 70000 43500 44900 63500 92500 107000
2020-12-22 06:45 3.74 35100 123000 (2016) 42000 (2017) 70000 43500 44900 63500 92500 107000
2020-12-22 05:45 3.74 35100 123000 (2016) 42000 (2017) 70000 43500 44900 63500 92500 107000
2020-12-22 04:45 3.74 35100 123000 (2016) 42000 (2017) 70000 43500 44900 63500 92500 107000
2020-12-22 03:45 3.74 35100 123000 (2016) 42000 (2017) 70000 43500 44900 63500 92500 107000
2020-12-22 02:45 3.75 35100 123000 (2016) 42000 (2017) 70000 43500 44900 63500 92500 107000
2020-12-22 01:45 3.76 35200 123000 (2016) 42000 (2017) 70000 43500 44900 63500 92500 107000
2020-12-22 00:45 3.76 35200 123000 (2016) 42000 (2017) 70000 43500 44900 63500 92500 107000
2020-12-21 23:45 3.79 35300 145000 (2016) 42400 (2017) 74200 43700 44800 63700 99900 121000
2020-12-21 22:45 3.80 35300 145000 (2016) 42400 (2017) 74200 43700 44800 63700 99900 121000
2020-12-21 21:45 3.79 35300 145000 (2016) 42400 (2017) 74200 43700 44800 63700 99900 121000
2020-12-21 20:45 3.79 35300 145000 (2016) 42400 (2017) 74200 43700 44800 63700 99900 121000
2020-12-21 19:45 3.80 35300 145000 (2016) 42400 (2017) 74200 43700 44800 63700 99900 121000
2020-12-21 18:45 3.81 35400 145000 (2016) 42400 (2017) 74200 43700 44800 63700 99900 121000
2020-12-21 17:45 3.81 35400 145000 (2016) 42400 (2017) 74200 43700 44800 63700 99900 121000
2020-12-21 16:45 3.80 35300 145000 (2016) 42400 (2017) 74200 43700 44800 63700 99900 121000
2020-12-21 15:45 3.79 35300 145000 (2016) 42400 (2017) 74200 43700 44800 63700 99900 121000
2020-12-21 14:45 3.81 35400 145000 (2016) 42400 (2017) 74200 43700 44800 63700 99900 121000
2020-12-21 13:45 3.73 35000 145000 (2016) 42400 (2017) 74200 43700 44800 63700 99900 121000
2020-12-21 12:45 3.77 35200 145000 (2016) 42400 (2017) 74200 43700 44800 63700 99900 121000
2020-12-21 11:45 3.83 35400 145000 (2016) 42400 (2017) 74200 43700 44800 63700 99900 121000
2020-12-21 10:45 3.75 35100 145000 (2016) 42400 (2017) 74200 43700 44800 63700 99900 121000
2020-12-21 09:45 3.81 35400 145000 (2016) 42400 (2017) 74200 43700 44800 63700 99900 121000
2020-12-21 08:45 3.82 35400 145000 (2016) 42400 (2017) 74200 43700 44800 63700 99900 121000
2020-12-21 07:45 3.83 35400 145000 (2016) 42400 (2017) 74200 43700 44800 63700 99900 121000
2020-12-21 06:45 3.85 35500 145000 (2016) 42400 (2017) 74200 43700 44800 63700 99900 121000
2020-12-21 05:45 3.87 35600 145000 (2016) 42400 (2017) 74200 43700 44800 63700 99900 121000
2020-12-21 04:45 3.86 35500 145000 (2016) 42400 (2017) 74200 43700 44800 63700 99900 121000
2020-12-21 03:45 3.87 35600 145000 (2016) 42400 (2017) 74200 43700 44800 63700 99900 121000
2020-12-21 02:45 3.87 35600 145000 (2016) 42400 (2017) 74200 43700 44800 63700 99900 121000
2020-12-21 01:45 3.89 35700 145000 (2016) 42400 (2017) 74200 43700 44800 63700 99900 121000
2020-12-21 00:45 3.89 35700 145000 (2016) 42400 (2017) 74200 43700 44800 63700 99900 121000
2020-12-20 23:45 3.91 35700 188000 (2016) 42000 (2017) 82000 43500 44800 64900 112000 147000
2020-12-20 22:45 3.90 35700 188000 (2016) 42000 (2017) 82000 43500 44800 64900 112000 147000
2020-12-20 21:45 3.90 35700 188000 (2016) 42000 (2017) 82000 43500 44800 64900 112000 147000
2020-12-20 20:45 3.91 35700 188000 (2016) 42000 (2017) 82000 43500 44800 64900 112000 147000
2020-12-20 19:45 3.90 35700 188000 (2016) 42000 (2017) 82000 43500 44800 64900 112000 147000
2020-12-20 18:45 3.92 35800 188000 (2016) 42000 (2017) 82000 43500 44800 64900 112000 147000
2020-12-20 17:45 3.92 35800 188000 (2016) 42000 (2017) 82000 43500 44800 64900 112000 147000
2020-12-20 16:45 3.92 35800 188000 (2016) 42000 (2017) 82000 43500 44800 64900 112000 147000
2020-12-20 15:45 3.92 35800 188000 (2016) 42000 (2017) 82000 43500 44800 64900 112000 147000
2020-12-20 14:45 3.93 35800 188000 (2016) 42000 (2017) 82000 43500 44800 64900 112000 147000
2020-12-20 13:45 3.93 35800 188000 (2016) 42000 (2017) 82000 43500 44800 64900 112000 147000
2020-12-20 12:45 3.93 35800 188000 (2016) 42000 (2017) 82000 43500 44800 64900 112000 147000
2020-12-20 11:45 3.94 35900 188000 (2016) 42000 (2017) 82000 43500 44800 64900 112000 147000
2020-12-20 10:45 3.95 35900 188000 (2016) 42000 (2017) 82000 43500 44800 64900 112000 147000
2020-12-20 09:45 3.95 35900 188000 (2016) 42000 (2017) 82000 43500 44800 64900 112000 147000
2020-12-20 08:45 3.95 35900 188000 (2016) 42000 (2017) 82000 43500 44800 64900 112000 147000
2020-12-20 07:45 3.97 36000 188000 (2016) 42000 (2017) 82000 43500 44800 64900 112000 147000
2020-12-20 06:45 3.96 35900 188000 (2016) 42000 (2017) 82000 43500 44800 64900 112000 147000
2020-12-20 05:45 3.97 36000 188000 (2016) 42000 (2017) 82000 43500 44800 64900 112000 147000
2020-12-20 04:45 3.97 36000 188000 (2016) 42000 (2017) 82000 43500 44800 64900 112000 147000
2020-12-20 03:45 3.96 35900 188000 (2016) 42000 (2017) 82000 43500 44800 64900 112000 147000
2020-12-20 02:45 3.97 36000 188000 (2016) 42000 (2017) 82000 43500 44800 64900 112000 147000
2020-12-20 01:45 3.99 36100 188000 (2016) 42000 (2017) 82000 43500 44800 64900 112000 147000
2020-12-20 00:45 3.98 36000 188000 (2016) 42000 (2017) 82000 43500 44800 64900 112000 147000
2020-12-19 23:45 3.98 36000 235000 (2016) 41800 (2017) 90700 43300 44700 67100 124000 176000
2020-12-19 22:45 3.98 36000 235000 (2016) 41800 (2017) 90700 43300 44700 67100 124000 176000
2020-12-19 21:45 3.98 36000 235000 (2016) 41800 (2017) 90700 43300 44700 67100 124000 176000
2020-12-19 20:45 3.99 36100 235000 (2016) 41800 (2017) 90700 43300 44700 67100 124000 176000
2020-12-19 19:45 3.98 36000 235000 (2016) 41800 (2017) 90700 43300 44700 67100 124000 176000
2020-12-19 18:45 3.98 36000 235000 (2016) 41800 (2017) 90700 43300 44700 67100 124000 176000
2020-12-19 17:45 3.98 36000 235000 (2016) 41800 (2017) 90700 43300 44700 67100 124000 176000
2020-12-19 16:45 3.98 36000 235000 (2016) 41800 (2017) 90700 43300 44700 67100 124000 176000
2020-12-19 15:45 3.97 36000 235000 (2016) 41800 (2017) 90700 43300 44700 67100 124000 176000
2020-12-19 14:45 3.98 36000 235000 (2016) 41800 (2017) 90700 43300 44700 67100 124000 176000
2020-12-19 13:45 3.98 36000 235000 (2016) 41800 (2017) 90700 43300 44700 67100 124000 176000
2020-12-19 12:45 3.96 35900 235000 (2016) 41800 (2017) 90700 43300 44700 67100 124000 176000
2020-12-19 11:45 3.96 35900 235000 (2016) 41800 (2017) 90700 43300 44700 67100 124000 176000
2020-12-19 10:45 3.96 35900 235000 (2016) 41800 (2017) 90700 43300 44700 67100 124000 176000
2020-12-19 09:45 3.97 36000 235000 (2016) 41800 (2017) 90700 43300 44700 67100 124000 176000
2020-12-19 08:45 3.97 36000 235000 (2016) 41800 (2017) 90700 43300 44700 67100 124000 176000
2020-12-19 07:45 3.99 36100 235000 (2016) 41800 (2017) 90700 43300 44700 67100 124000 176000
2020-12-19 06:45 3.99 36100 235000 (2016) 41800 (2017) 90700 43300 44700 67100 124000 176000
2020-12-19 05:45 3.98 36000 235000 (2016) 41800 (2017) 90700 43300 44700 67100 124000 176000
2020-12-19 04:45 3.99 36100 235000 (2016) 41800 (2017) 90700 43300 44700 67100 124000 176000
2020-12-19 03:45 4.01 36100 235000 (2016) 41800 (2017) 90700 43300 44700 67100 124000 176000
2020-12-19 02:45 4.00 36100 235000 (2016) 41800 (2017) 90700 43300 44700 67100 124000 176000
2020-12-19 01:45 4.00 36100 235000 (2016) 41800 (2017) 90700 43300 44700 67100 124000 176000
2020-12-19 00:45 4.00 36100 235000 (2016) 41800 (2017) 90700 43300 44700 67100 124000 176000
2020-12-18 23:45 4.00 36100 249000 (2016) 41900 (2017) 94100 43500 44800 68600 130000 186000
2020-12-18 22:45 3.99 36100 249000 (2016) 41900 (2017) 94100 43500 44800 68600 130000 186000
2020-12-18 21:45 4.00 36100 249000 (2016) 41900 (2017) 94100 43500 44800 68600 130000 186000
2020-12-18 20:45 3.99 36100 249000 (2016) 41900 (2017) 94100 43500 44800 68600 130000 186000
2020-12-18 19:45 3.99 36100 249000 (2016) 41900 (2017) 94100 43500 44800 68600 130000 186000
2020-12-18 18:45 3.94 35900 249000 (2016) 41900 (2017) 94100 43500 44800 68600 130000 186000
2020-12-18 17:45 3.91 35700 249000 (2016) 41900 (2017) 94100 43500 44800 68600 130000 186000
2020-12-18 16:45 3.89 35700 249000 (2016) 41900 (2017) 94100 43500 44800 68600 130000 186000
2020-12-18 15:45 3.94 35900 249000 (2016) 41900 (2017) 94100 43500 44800 68600 130000 186000
2020-12-18 14:45 3.91 35700 249000 (2016) 41900 (2017) 94100 43500 44800 68600 130000 186000
2020-12-18 13:45 3.92 35800 249000 (2016) 41900 (2017) 94100 43500 44800 68600 130000 186000
2020-12-18 12:45 3.94 35900 249000 (2016) 41900 (2017) 94100 43500 44800 68600 130000 186000
2020-12-18 11:45 3.96 35900 249000 (2016) 41900 (2017) 94100 43500 44800 68600 130000 186000
2020-12-18 10:45 3.99 36100 249000 (2016) 41900 (2017) 94100 43500 44800 68600 130000 186000
2020-12-18 09:45 3.98 36000 249000 (2016) 41900 (2017) 94100 43500 44800 68600 130000 186000
2020-12-18 08:45 3.99 36100 249000 (2016) 41900 (2017) 94100 43500 44800 68600 130000 186000
2020-12-18 07:45 4.01 36100 249000 (2016) 41900 (2017) 94100 43500 44800 68600 130000 186000
2020-12-18 06:45 3.99 36100 249000 (2016) 41900 (2017) 94100 43500 44800 68600 130000 186000
2020-12-18 05:45 3.99 36100 249000 (2016) 41900 (2017) 94100 43500 44800 68600 130000 186000
2020-12-18 04:45 4.01 36100 249000 (2016) 41900 (2017) 94100 43500 44800 68600 130000 186000
2020-12-18 03:45 4.01 36100 249000 (2016) 41900 (2017) 94100 43500 44800 68600 130000 186000
2020-12-18 02:45 4.02 36200 249000 (2016) 41900 (2017) 94100 43500 44800 68600 130000 186000
2020-12-18 01:45 4.02 36200 249000 (2016) 41900 (2017) 94100 43500 44800 68600 130000 186000
2020-12-18 00:45 4.03 36200 249000 (2016) 41900 (2017) 94100 43500 44800 68600 130000 186000
2020-12-17 23:45 4.03 36200 241000 (2016) 41700 (2017) 93700 43300 44700 68700 132000 183000
2020-12-17 22:45 4.04 36300 241000 (2016) 41700 (2017) 93700 43300 44700 68700 132000 183000
2020-12-17 21:45 4.04 36300 241000 (2016) 41700 (2017) 93700 43300 44700 68700 132000 183000
2020-12-17 20:45 4.05 36300 241000 (2016) 41700 (2017) 93700 43300 44700 68700 132000 183000
2020-12-17 19:45 4.04 36300 241000 (2016) 41700 (2017) 93700 43300 44700 68700 132000 183000
2020-12-17 18:45 4.04 36300 241000 (2016) 41700 (2017) 93700 43300 44700 68700 132000 183000
2020-12-17 17:45 4.03 36200 241000 (2016) 41700 (2017) 93700 43300 44700 68700 132000 183000
2020-12-17 16:45 4.03 36200 241000 (2016) 41700 (2017) 93700 43300 44700 68700 132000 183000
2020-12-17 15:45 4.03 36200 241000 (2016) 41700 (2017) 93700 43300 44700 68700 132000 183000
2020-12-17 14:45 4.03 36200 241000 (2016) 41700 (2017) 93700 43300 44700 68700 132000 183000
2020-12-17 13:45 4.01 36100 241000 (2016) 41700 (2017) 93700 43300 44700 68700 132000 183000
2020-12-17 12:45 4.01 36100 241000 (2016) 41700 (2017) 93700 43300 44700 68700 132000 183000
2020-12-17 11:45 4.05 36300 241000 (2016) 41700 (2017) 93700 43300 44700 68700 132000 183000
2020-12-17 10:45 4.07 36400 241000 (2016) 41700 (2017) 93700 43300 44700 68700 132000 183000
2020-12-17 09:45 4.06 36300 241000 (2016) 41700 (2017) 93700 43300 44700 68700 132000 183000
2020-12-17 08:45 4.04 36300 241000 (2016) 41700 (2017) 93700 43300 44700 68700 132000 183000
2020-12-17 07:45 4.08 36400 241000 (2016) 41700 (2017) 93700 43300 44700 68700 132000 183000
2020-12-17 06:45 4.08 36400 241000 (2016) 41700 (2017) 93700 43300 44700 68700 132000 183000
2020-12-17 05:45 4.10 36500 241000 (2016) 41700 (2017) 93700 43300 44700 68700 132000 183000
2020-12-17 04:45 4.10 36500 241000 (2016) 41700 (2017) 93700 43300 44700 68700 132000 183000
2020-12-17 03:45 4.11 36500 241000 (2016) 41700 (2017) 93700 43300 44700 68700 132000 183000
2020-12-17 02:45 4.12 36600 241000 (2016) 41700 (2017) 93700 43300 44700 68700 132000 183000
2020-12-17 01:45 4.10 36500 241000 (2016) 41700 (2017) 93700 43300 44700 68700 132000 183000
2020-12-17 00:45 4.11 36500 241000 (2016) 41700 (2017) 93700 43300 44700 68700 132000 183000
2020-12-16 23:45 4.11 36500 222000 (2016) 41500 (2017) 92200 43000 44400 70800 133000 174000
2020-12-16 22:45 4.12 36600 222000 (2016) 41500 (2017) 92200 43000 44400 70800 133000 174000
2020-12-16 21:45 4.12 36600 222000 (2016) 41500 (2017) 92200 43000 44400 70800 133000 174000
2020-12-16 20:45 4.12 36600 222000 (2016) 41500 (2017) 92200 43000 44400 70800 133000 174000
2020-12-16 19:45 4.11 36500 222000 (2016) 41500 (2017) 92200 43000 44400 70800 133000 174000
2020-12-16 18:45 4.14 36700 222000 (2016) 41500 (2017) 92200 43000 44400 70800 133000 174000
2020-12-16 17:45 4.12 36600 222000 (2016) 41500 (2017) 92200 43000 44400 70800 133000 174000
2020-12-16 16:45 4.12 36600 222000 (2016) 41500 (2017) 92200 43000 44400 70800 133000 174000
2020-12-16 15:45 4.11 36500 222000 (2016) 41500 (2017) 92200 43000 44400 70800 133000 174000
2020-12-16 14:45 4.14 36700 222000 (2016) 41500 (2017) 92200 43000 44400 70800 133000 174000
2020-12-16 13:45 4.13 36600 222000 (2016) 41500 (2017) 92200 43000 44400 70800 133000 174000
2020-12-16 12:45 4.12 36600 222000 (2016) 41500 (2017) 92200 43000 44400 70800 133000 174000
2020-12-16 11:45 4.15 36700 222000 (2016) 41500 (2017) 92200 43000 44400 70800 133000 174000
2020-12-16 10:45 4.16 36700 222000 (2016) 41500 (2017) 92200 43000 44400 70800 133000 174000
2020-12-16 09:45 4.18 36800 222000 (2016) 41500 (2017) 92200 43000 44400 70800 133000 174000
2020-12-16 08:45 4.16 36700 222000 (2016) 41500 (2017) 92200 43000 44400 70800 133000 174000
2020-12-16 07:45 4.19 36900 222000 (2016) 41500 (2017) 92200 43000 44400 70800 133000 174000
2020-12-16 06:45 4.19 36900 222000 (2016) 41500 (2017) 92200 43000 44400 70800 133000 174000
2020-12-16 05:45 4.19 36900 222000 (2016) 41500 (2017) 92200 43000 44400 70800 133000 174000
2020-12-16 04:45 4.19 36900 222000 (2016) 41500 (2017) 92200 43000 44400 70800 133000 174000
2020-12-16 03:45 4.21 37000 222000 (2016) 41500 (2017) 92200 43000 44400 70800 133000 174000
2020-12-16 02:45 4.20 36900 222000 (2016) 41500 (2017) 92200 43000 44400 70800 133000 174000
2020-12-16 01:45 4.22 37000 222000 (2016) 41500 (2017) 92200 43000 44400 70800 133000 174000
2020-12-16 00:45 4.22 37000 222000 (2016) 41500 (2017) 92200 43000 44400 70800 133000 174000
2020-12-15 23:45 4.22 37000 178000 (2016) 41800 (2017) 86700 43700 45300 72400 126000 150000
2020-12-15 22:45 4.24 37100 178000 (2016) 41800 (2017) 86700 43700 45300 72400 126000 150000
2020-12-15 21:45 4.23 37000 178000 (2016) 41800 (2017) 86700 43700 45300 72400 126000 150000
2020-12-15 20:45 4.26 37200 178000 (2016) 41800 (2017) 86700 43700 45300 72400 126000 150000
2020-12-15 19:45 4.26 37200 178000 (2016) 41800 (2017) 86700 43700 45300 72400 126000 150000
2020-12-15 18:45 4.26 37200 178000 (2016) 41800 (2017) 86700 43700 45300 72400 126000 150000
2020-12-15 17:45 4.27 37200 178000 (2016) 41800 (2017) 86700 43700 45300 72400 126000 150000
2020-12-15 16:45 4.27 37200 178000 (2016) 41800 (2017) 86700 43700 45300 72400 126000 150000
2020-12-15 15:45 4.29 37300 178000 (2016) 41800 (2017) 86700 43700 45300 72400 126000 150000
2020-12-15 14:45 4.28 37200 178000 (2016) 41800 (2017) 86700 43700 45300 72400 126000 150000
2020-12-15 13:45 4.29 37300 178000 (2016) 41800 (2017) 86700 43700 45300 72400 126000 150000
2020-12-15 12:45 4.29 37300 178000 (2016) 41800 (2017) 86700 43700 45300 72400 126000 150000
2020-12-15 11:45 4.29 37300 178000 (2016) 41800 (2017) 86700 43700 45300 72400 126000 150000
2020-12-15 10:45 4.29 37300 178000 (2016) 41800 (2017) 86700 43700 45300 72400 126000 150000
2020-12-15 09:45 4.29 37300 178000 (2016) 41800 (2017) 86700 43700 45300 72400 126000 150000
2020-12-15 08:45 4.30 37300 178000 (2016) 41800 (2017) 86700 43700 45300 72400 126000 150000
2020-12-15 07:45 4.29 37300 178000 (2016) 41800 (2017) 86700 43700 45300 72400 126000 150000
2020-12-15 06:45 4.32 37400 178000 (2016) 41800 (2017) 86700 43700 45300 72400 126000 150000
2020-12-15 05:45 4.31 37400 178000 (2016) 41800 (2017) 86700 43700 45300 72400 126000 150000
2020-12-15 04:45 4.31 37400 178000 (2016) 41800 (2017) 86700 43700 45300 72400 126000 150000
2020-12-15 03:45 4.31 37400 178000 (2016) 41800 (2017) 86700 43700 45300 72400 126000 150000
2020-12-15 02:45 4.32 37400 178000 (2016) 41800 (2017) 86700 43700 45300 72400 126000 150000
2020-12-15 01:45 4.33 37400 178000 (2016) 41800 (2017) 86700 43700 45300 72400 126000 150000
2020-12-15 00:45 4.34 37500 178000 (2016) 41800 (2017) 86700 43700 45300 72400 126000 150000
2020-12-14 23:45 4.35 37500 113000 (2020) 43400 (2017) 76900 45000 46300 74800 109000 111000
2020-12-14 22:45 4.36 37600 113000 (2020) 43400 (2017) 76900 45000 46300 74800 109000 111000
2020-12-14 21:45 4.37 37600 113000 (2020) 43400 (2017) 76900 45000 46300 74800 109000 111000
2020-12-14 20:45 4.38 37600 113000 (2020) 43400 (2017) 76900 45000 46300 74800 109000 111000
2020-12-14 19:45 4.38 37600 113000 (2020) 43400 (2017) 76900 45000 46300 74800 109000 111000
2020-12-14 18:45 4.39 37700 113000 (2020) 43400 (2017) 76900 45000 46300 74800 109000 111000
2020-12-14 17:45 4.39 37700 113000 (2020) 43400 (2017) 76900 45000 46300 74800 109000 111000
2020-12-14 16:45 4.39 37700 113000 (2020) 43400 (2017) 76900 45000 46300 74800 109000 111000
2020-12-14 15:45 4.41 37800 113000 (2020) 43400 (2017) 76900 45000 46300 74800 109000 111000
2020-12-14 14:45 4.40 37700 113000 (2020) 43400 (2017) 76900 45000 46300 74800 109000 111000
2020-12-14 13:45 4.41 37800 113000 (2020) 43400 (2017) 76900 45000 46300 74800 109000 111000
2020-12-14 12:45 4.40 37700 113000 (2020) 43400 (2017) 76900 45000 46300 74800 109000 111000
2020-12-14 11:45 4.41 37800 113000 (2020) 43400 (2017) 76900 45000 46300 74800 109000 111000
2020-12-14 10:45 4.41 37800 113000 (2020) 43400 (2017) 76900 45000 46300 74800 109000 111000
2020-12-14 09:45 4.42 37800 113000 (2020) 43400 (2017) 76900 45000 46300 74800 109000 111000
2020-12-14 08:45 4.41 37800 113000 (2020) 43400 (2017) 76900 45000 46300 74800 109000 111000
2020-12-14 07:45 4.45 37900 113000 (2020) 43400 (2017) 76900 45000 46300 74800 109000 111000
2020-12-14 06:45 4.45 37900 113000 (2020) 43400 (2017) 76900 45000 46300 74800 109000 111000
2020-12-14 05:45 4.44 37900 113000 (2020) 43400 (2017) 76900 45000 46300 74800 109000 111000
2020-12-14 04:45 4.45 37900 113000 (2020) 43400 (2017) 76900 45000 46300 74800 109000 111000
2020-12-14 03:45 4.46 38000 113000 (2020) 43400 (2017) 76900 45000 46300 74800 109000 111000
2020-12-14 02:45 4.47 38000 113000 (2020) 43400 (2017) 76900 45000 46300 74800 109000 111000
2020-12-14 01:45 4.48 38100 113000 (2020) 43400 (2017) 76900 45000 46300 74800 109000 111000
2020-12-14 00:45 4.49 38100 113000 (2020) 43400 (2017) 76900 45000 46300 74800 109000 111000
2020-12-13 23:45 4.48 38100 117000 (2020) 45700 (2017) 71500 46700 47600 57500 106000 111000
2020-12-13 22:45 4.47 38000 117000 (2020) 45700 (2017) 71500 46700 47600 57500 106000 111000
2020-12-13 21:45 4.46 38000 117000 (2020) 45700 (2017) 71500 46700 47600 57500 106000 111000
2020-12-13 20:45 4.50 38100 117000 (2020) 45700 (2017) 71500 46700 47600 57500 106000 111000
2020-12-13 19:45 4.49 38100 117000 (2020) 45700 (2017) 71500 46700 47600 57500 106000 111000
2020-12-13 18:45 4.49 38100 117000 (2020) 45700 (2017) 71500 46700 47600 57500 106000 111000
2020-12-13 17:45 4.51 38200 117000 (2020) 45700 (2017) 71500 46700 47600 57500 106000 111000
2020-12-13 16:45 4.51 38200 117000 (2020) 45700 (2017) 71500 46700 47600 57500 106000 111000
2020-12-13 15:45 4.52 38200 117000 (2020) 45700 (2017) 71500 46700 47600 57500 106000 111000
2020-12-13 14:45 4.51 38200 117000 (2020) 45700 (2017) 71500 46700 47600 57500 106000 111000
2020-12-13 13:45 4.50 38100 117000 (2020) 45700 (2017) 71500 46700 47600 57500 106000 111000
2020-12-13 12:45 4.51 38200 117000 (2020) 45700 (2017) 71500 46700 47600 57500 106000 111000
2020-12-13 11:45 4.53 38300 117000 (2020) 45700 (2017) 71500 46700 47600 57500 106000 111000
2020-12-13 10:45 4.53 38300 117000 (2020) 45700 (2017) 71500 46700 47600 57500 106000 111000
2020-12-13 09:45 4.52 38200 117000 (2020) 45700 (2017) 71500 46700 47600 57500 106000 111000
2020-12-13 08:45 4.53 38300 117000 (2020) 45700 (2017) 71500 46700 47600 57500 106000 111000
2020-12-13 07:45 4.53 38300 117000 (2020) 45700 (2017) 71500 46700 47600 57500 106000 111000
2020-12-13 06:45 4.53 38300 117000 (2020) 45700 (2017) 71500 46700 47600 57500 106000 111000
2020-12-13 05:45 4.53 38300 117000 (2020) 45700 (2017) 71500 46700 47600 57500 106000 111000
2020-12-13 04:45 4.53 38300 117000 (2020) 45700 (2017) 71500 46700 47600 57500 106000 111000
2020-12-13 03:45 4.54 38300 117000 (2020) 45700 (2017) 71500 46700 47600 57500 106000 111000
2020-12-13 02:45 4.53 38300 117000 (2020) 45700 (2017) 71500 46700 47600 57500 106000 111000
2020-12-13 01:45 4.54 38300 117000 (2020) 45700 (2017) 71500 46700 47600 57500 106000 111000
2020-12-13 00:45 4.54 38300 117000 (2020) 45700 (2017) 71500 46700 47600 57500 106000 111000
2020-12-12 23:45 4.54 38300 122000 (2020) 46300 (2017) 73300 47800 49100 57800 110000 116000
2020-12-12 22:45 4.55 38400 122000 (2020) 46300 (2017) 73300 47800 49100 57800 110000 116000
2020-12-12 21:45 4.55 38400 122000 (2020) 46300 (2017) 73300 47800 49100 57800 110000 116000
2020-12-12 20:45 4.56 38400 122000 (2020) 46300 (2017) 73300 47800 49100 57800 110000 116000
2020-12-12 19:45 4.55 38400 122000 (2020) 46300 (2017) 73300 47800 49100 57800 110000 116000
2020-12-12 18:45 4.56 38400 122000 (2020) 46300 (2017) 73300 47800 49100 57800 110000 116000
2020-12-12 17:45 4.55 38400 122000 (2020) 46300 (2017) 73300 47800 49100 57800 110000 116000
2020-12-12 16:45 4.55 38400 122000 (2020) 46300 (2017) 73300 47800 49100 57800 110000 116000
2020-12-12 15:45 4.58 38500 122000 (2020) 46300 (2017) 73300 47800 49100 57800 110000 116000
2020-12-12 14:45 4.58 38500 122000 (2020) 46300 (2017) 73300 47800 49100 57800 110000 116000
2020-12-12 13:45 4.57 38400 122000 (2020) 46300 (2017) 73300 47800 49100 57800 110000 116000
2020-12-12 12:45 4.56 38400 122000 (2020) 46300 (2017) 73300 47800 49100 57800 110000 116000
2020-12-12 11:45 4.57 38400 122000 (2020) 46300 (2017) 73300 47800 49100 57800 110000 116000
2020-12-12 10:45 4.57 38400 122000 (2020) 46300 (2017) 73300 47800 49100 57800 110000 116000
2020-12-12 09:45 4.55 38400 122000 (2020) 46300 (2017) 73300 47800 49100 57800 110000 116000
2020-12-12 08:45 4.58 38500 122000 (2020) 46300 (2017) 73300 47800 49100 57800 110000 116000
2020-12-12 07:45 4.59 38500 122000 (2020) 46300 (2017) 73300 47800 49100 57800 110000 116000
2020-12-12 06:45 4.59 38500 122000 (2020) 46300 (2017) 73300 47800 49100 57800 110000 116000
2020-12-12 05:45 4.58 38500 122000 (2020) 46300 (2017) 73300 47800 49100 57800 110000 116000
2020-12-12 04:45 4.58 38500 122000 (2020) 46300 (2017) 73300 47800 49100 57800 110000 116000
2020-12-12 03:45 4.58 38500 122000 (2020) 46300 (2017) 73300 47800 49100 57800 110000 116000
2020-12-12 02:45 4.59 38500 122000 (2020) 46300 (2017) 73300 47800 49100 57800 110000 116000
2020-12-12 01:45 4.59 38500 122000 (2020) 46300 (2017) 73300 47800 49100 57800 110000 116000
2020-12-12 00:45 4.58 38500 122000 (2020) 46300 (2017) 73300 47800 49100 57800 110000 116000
2020-12-11 23:45 4.58 38500 127000 (2020) 46400 (2017) 75000 48100 49600 58600 114000 120000
2020-12-11 22:45 4.59 38500 127000 (2020) 46400 (2017) 75000 48100 49600 58600 114000 120000
2020-12-11 21:45 4.61 38600 127000 (2020) 46400 (2017) 75000 48100 49600 58600 114000 120000
2020-12-11 20:45 4.59 38500 127000 (2020) 46400 (2017) 75000 48100 49600 58600 114000 120000
2020-12-11 19:45 4.60 38600 127000 (2020) 46400 (2017) 75000 48100 49600 58600 114000 120000
2020-12-11 18:45 4.60 38600 127000 (2020) 46400 (2017) 75000 48100 49600 58600 114000 120000
2020-12-11 17:45 4.60 38600 127000 (2020) 46400 (2017) 75000 48100 49600 58600 114000 120000
2020-12-11 16:45 4.60 38600 127000 (2020) 46400 (2017) 75000 48100 49600 58600 114000 120000
2020-12-11 15:45 4.60 38600 127000 (2020) 46400 (2017) 75000 48100 49600 58600 114000 120000
2020-12-11 14:45 4.62 38600 127000 (2020) 46400 (2017) 75000 48100 49600 58600 114000 120000
2020-12-11 13:45 4.60 38600 127000 (2020) 46400 (2017) 75000 48100 49600 58600 114000 120000
2020-12-11 12:45 4.60 38600 127000 (2020) 46400 (2017) 75000 48100 49600 58600 114000 120000
2020-12-11 11:45 4.60 38600 127000 (2020) 46400 (2017) 75000 48100 49600 58600 114000 120000
2020-12-11 10:45 4.59 38500 127000 (2020) 46400 (2017) 75000 48100 49600 58600 114000 120000
2020-12-11 09:45 4.59 38500 127000 (2020) 46400 (2017) 75000 48100 49600 58600 114000 120000
2020-12-11 08:45 4.58 38500 127000 (2020) 46400 (2017) 75000 48100 49600 58600 114000 120000
2020-12-11 07:45 4.60 38600 127000 (2020) 46400 (2017) 75000 48100 49600 58600 114000 120000
2020-12-11 06:45 4.59 38500 127000 (2020) 46400 (2017) 75000 48100 49600 58600 114000 120000
2020-12-11 05:45 4.61 38600 127000 (2020) 46400 (2017) 75000 48100 49600 58600 114000 120000
2020-12-11 04:45 4.62 38600 127000 (2020) 46400 (2017) 75000 48100 49600 58600 114000 120000
2020-12-11 03:45 4.62 38600 127000 (2020) 46400 (2017) 75000 48100 49600 58600 114000 120000
2020-12-11 02:45 4.62 38600 127000 (2020) 46400 (2017) 75000 48100 49600 58600 114000 120000
2020-12-11 01:45 4.64 38700 127000 (2020) 46400 (2017) 75000 48100 49600 58600 114000 120000
2020-12-11 00:45 4.63 38700 127000 (2020) 46400 (2017) 75000 48100 49600 58600 114000 120000
2020-12-10 23:45 4.63 38700 130000 (2020) 47000 (2017) 76500 48300 49400 59900 117000 123000
2020-12-10 22:45 4.63 38700 130000 (2020) 47000 (2017) 76500 48300 49400 59900 117000 123000
2020-12-10 21:45 4.63 38700 130000 (2020) 47000 (2017) 76500 48300 49400 59900 117000 123000
2020-12-10 20:45 4.65 38800 130000 (2020) 47000 (2017) 76500 48300 49400 59900 117000 123000
2020-12-10 19:45 4.64 38700 130000 (2020) 47000 (2017) 76500 48300 49400 59900 117000 123000
2020-12-10 18:45 4.65 38800 130000 (2020) 47000 (2017) 76500 48300 49400 59900 117000 123000
2020-12-10 17:45 4.67 38900 130000 (2020) 47000 (2017) 76500 48300 49400 59900 117000 123000
2020-12-10 16:45 4.66 38800 130000 (2020) 47000 (2017) 76500 48300 49400 59900 117000 123000
2020-12-10 15:45 4.65 38800 130000 (2020) 47000 (2017) 76500 48300 49400 59900 117000 123000
2020-12-10 14:45 4.66 38800 130000 (2020) 47000 (2017) 76500 48300 49400 59900 117000 123000
2020-12-10 13:45 4.64 38700 130000 (2020) 47000 (2017) 76500 48300 49400 59900 117000 123000
2020-12-10 12:45 4.66 38800 130000 (2020) 47000 (2017) 76500 48300 49400 59900 117000 123000
2020-12-10 11:45 4.64 38700 130000 (2020) 47000 (2017) 76500 48300 49400 59900 117000 123000
2020-12-10 10:45 4.90 39000 130000 (2020) 47000 (2017) 76500 48300 49400 59900 117000 123000
2020-12-10 09:45 4.92 39100 130000 (2020) 47000 (2017) 76500 48300 49400 59900 117000 123000
2020-12-10 08:45 4.92 39100 130000 (2020) 47000 (2017) 76500 48300 49400 59900 117000 123000
2020-12-10 07:45 4.94 39200 130000 (2020) 47000 (2017) 76500 48300 49400 59900 117000 123000
2020-12-10 06:45 4.95 39200 130000 (2020) 47000 (2017) 76500 48300 49400 59900 117000 123000
2020-12-10 05:45 4.95 39200 130000 (2020) 47000 (2017) 76500 48300 49400 59900 117000 123000
2020-12-10 04:45 4.95 39200 130000 (2020) 47000 (2017) 76500 48300 49400 59900 117000 123000
2020-12-10 03:45 4.96 39200 130000 (2020) 47000 (2017) 76500 48300 49400 59900 117000 123000
2020-12-10 02:45 4.96 39200 130000 (2020) 47000 (2017) 76500 48300 49400 59900 117000 123000
2020-12-10 01:45 4.96 39200 130000 (2020) 47000 (2017) 76500 48300 49400 59900 117000 123000
2020-12-10 00:45 4.96 39200 130000 (2020) 47000 (2017) 76500 48300 49400 59900 117000 123000
2020-12-09 23:45 4.96 39200 135000 (2020) 47600 (2017) 79200 48500 49200 62800 121000 128000
2020-12-09 22:45 4.98 39300 135000 (2020) 47600 (2017) 79200 48500 49200 62800 121000 128000
2020-12-09 21:45 4.97 39300 135000 (2020) 47600 (2017) 79200 48500 49200 62800 121000 128000
2020-12-09 20:45 4.98 39300 135000 (2020) 47600 (2017) 79200 48500 49200 62800 121000 128000
2020-12-09 19:45 4.99 39400 135000 (2020) 47600 (2017) 79200 48500 49200 62800 121000 128000
2020-12-09 18:45 4.99 39400 135000 (2020) 47600 (2017) 79200 48500 49200 62800 121000 128000
2020-12-09 17:45 4.99 39400 135000 (2020) 47600 (2017) 79200 48500 49200 62800 121000 128000
2020-12-09 16:45 4.97 39300 135000 (2020) 47600 (2017) 79200 48500 49200 62800 121000 128000
2020-12-09 15:45 5.01 39500 135000 (2020) 47600 (2017) 79200 48500 49200 62800 121000 128000
2020-12-09 14:45 4.99 39400 135000 (2020) 47600 (2017) 79200 48500 49200 62800 121000 128000
2020-12-09 13:45 5.00 39400 135000 (2020) 47600 (2017) 79200 48500 49200 62800 121000 128000
2020-12-09 12:45 4.99 39400 135000 (2020) 47600 (2017) 79200 48500 49200 62800 121000 128000
2020-12-09 11:45 5.01 39500 135000 (2020) 47600 (2017) 79200 48500 49200 62800 121000 128000
2020-12-09 10:45 5.00 38100 135000 (2020) 47600 (2017) 79200 48500 49200 62800 121000 128000
2020-12-09 09:45 5.02 38200 135000 (2020) 47600 (2017) 79200 48500 49200 62800 121000 128000
2020-12-09 08:45 5.03 38300 135000 (2020) 47600 (2017) 79200 48500 49200 62800 121000 128000
2020-12-09 07:45 5.03 38300 135000 (2020) 47600 (2017) 79200 48500 49200 62800 121000 128000
2020-12-09 06:45 5.03 38300 135000 (2020) 47600 (2017) 79200 48500 49200 62800 121000 128000
2020-12-09 05:45 5.03 38300 135000 (2020) 47600 (2017) 79200 48500 49200 62800 121000 128000
2020-12-09 04:45 5.04 38300 135000 (2020) 47600 (2017) 79200 48500 49200 62800 121000 128000
2020-12-09 03:45 5.05 38400 135000 (2020) 47600 (2017) 79200 48500 49200 62800 121000 128000
2020-12-09 02:45 5.04 38300 135000 (2020) 47600 (2017) 79200 48500 49200 62800 121000 128000
2020-12-09 01:45 5.06 38400 135000 (2020) 47600 (2017) 79200 48500 49200 62800 121000 128000
2020-12-09 00:45 5.07 38400 135000 (2020) 47600 (2017) 79200 48500 49200 62800 121000 128000
2020-12-08 23:45 5.08 38500 141000 (2020) 47700 (2017) 83000 48500 49100 66700 130000 135000
2020-12-08 22:45 5.06 38400 141000 (2020) 47700 (2017) 83000 48500 49100 66700 130000 135000
2020-12-08 21:45 5.08 38500 141000 (2020) 47700 (2017) 83000 48500 49100 66700 130000 135000
2020-12-08 20:45 5.09 38500 141000 (2020) 47700 (2017) 83000 48500 49100 66700 130000 135000
2020-12-08 19:45 5.11 38600 141000 (2020) 47700 (2017) 83000 48500 49100 66700 130000 135000
2020-12-08 18:45 5.11 38600 141000 (2020) 47700 (2017) 83000 48500 49100 66700 130000 135000
2020-12-08 17:45 5.10 38600 141000 (2020) 47700 (2017) 83000 48500 49100 66700 130000 135000
2020-12-08 16:45 5.13 38700 141000 (2020) 47700 (2017) 83000 48500 49100 66700 130000 135000
2020-12-08 15:45 5.11 38600 141000 (2020) 47700 (2017) 83000 48500 49100 66700 130000 135000
2020-12-08 14:45 5.13 38700 141000 (2020) 47700 (2017) 83000 48500 49100 66700 130000 135000
2020-12-08 13:45 5.13 38700 141000 (2020) 47700 (2017) 83000 48500 49100 66700 130000 135000
2020-12-08 12:45 5.14 38700 141000 (2020) 47700 (2017) 83000 48500 49100 66700 130000 135000
2020-12-08 11:45 5.15 38800 141000 (2020) 47700 (2017) 83000 48500 49100 66700 130000 135000
2020-12-08 10:45 5.16 38800 141000 (2020) 47700 (2017) 83000 48500 49100 66700 130000 135000
2020-12-08 09:45 5.15 38800 141000 (2020) 47700 (2017) 83000 48500 49100 66700 130000 135000
2020-12-08 08:45 5.18 38900 141000 (2020) 47700 (2017) 83000 48500 49100 66700 130000 135000
2020-12-08 07:45 5.19 38900 141000 (2020) 47700 (2017) 83000 48500 49100 66700 130000 135000
2020-12-08 06:45 5.19 38900 141000 (2020) 47700 (2017) 83000 48500 49100 66700 130000 135000
2020-12-08 05:45 5.21 39000 141000 (2020) 47700 (2017) 83000 48500 49100 66700 130000 135000
2020-12-08 04:45 5.22 39100 141000 (2020) 47700 (2017) 83000 48500 49100 66700 130000 135000
2020-12-08 03:45 5.22 39100 141000 (2020) 47700 (2017) 83000 48500 49100 66700 130000 135000
2020-12-08 02:45 5.25 39200 141000 (2020) 47700 (2017) 83000 48500 49100 66700 130000 135000
2020-12-08 01:45 5.26 39200 141000 (2020) 47700 (2017) 83000 48500 49100 66700 130000 135000
2020-12-08 00:45 5.26 39200 141000 (2020) 47700 (2017) 83000 48500 49100 66700 130000 135000
2020-12-07 23:45 5.27 39300 147000 (2020) 47600 (2017) 87200 48400 49100 69100 142000 145000
2020-12-07 22:45 5.29 39400 147000 (2020) 47600 (2017) 87200 48400 49100 69100 142000 145000
2020-12-07 21:45 5.30 39400 147000 (2020) 47600 (2017) 87200 48400 49100 69100 142000 145000
2020-12-07 20:45 5.30 39400 147000 (2020) 47600 (2017) 87200 48400 49100 69100 142000 145000
2020-12-07 19:45 5.31 39500 147000 (2020) 47600 (2017) 87200 48400 49100 69100 142000 145000
2020-12-07 18:45 5.33 39500 147000 (2020) 47600 (2017) 87200 48400 49100 69100 142000 145000
2020-12-07 17:45 5.33 39500 147000 (2020) 47600 (2017) 87200 48400 49100 69100 142000 145000
2020-12-07 16:45 5.35 39600 147000 (2020) 47600 (2017) 87200 48400 49100 69100 142000 145000
2020-12-07 15:45 5.36 39700 147000 (2020) 47600 (2017) 87200 48400 49100 69100 142000 145000
2020-12-07 14:45 5.37 39700 147000 (2020) 47600 (2017) 87200 48400 49100 69100 142000 145000
2020-12-07 13:45 5.38 39800 147000 (2020) 47600 (2017) 87200 48400 49100 69100 142000 145000
2020-12-07 12:45 5.39 39800 147000 (2020) 47600 (2017) 87200 48400 49100 69100 142000 145000
2020-12-07 11:45 5.41 39900 147000 (2020) 47600 (2017) 87200 48400 49100 69100 142000 145000
2020-12-07 10:45 5.42 39900 147000 (2020) 47600 (2017) 87200 48400 49100 69100 142000 145000
2020-12-07 09:45 5.43 40000 147000 (2020) 47600 (2017) 87200 48400 49100 69100 142000 145000
2020-12-07 08:45 5.44 40000 147000 (2020) 47600 (2017) 87200 48400 49100 69100 142000 145000
2020-12-07 07:45 5.44 40000 147000 (2020) 47600 (2017) 87200 48400 49100 69100 142000 145000
2020-12-07 06:45 5.46 40100 147000 (2020) 47600 (2017) 87200 48400 49100 69100 142000 145000
2020-12-07 05:45 5.47 40100 147000 (2020) 47600 (2017) 87200 48400 49100 69100 142000 145000
2020-12-07 04:45 5.50 40300 147000 (2020) 47600 (2017) 87200 48400 49100 69100 142000 145000
2020-12-07 03:45 5.50 40300 147000 (2020) 47600 (2017) 87200 48400 49100 69100 142000 145000
2020-12-07 02:45 5.53 40400 147000 (2020) 47600 (2017) 87200 48400 49100 69100 142000 145000
2020-12-07 01:45 5.55 40500 147000 (2020) 47600 (2017) 87200 48400 49100 69100 142000 145000
2020-12-07 00:45 5.56 40500 147000 (2020) 47600 (2017) 87200 48400 49100 69100 142000 145000
2020-12-06 23:45 5.58 40600 166000 (2019) 47600 (2017) 93200 48500 49200 72900 154000 160000
2020-12-06 22:45 5.61 40800 166000 (2019) 47600 (2017) 93200 48500 49200 72900 154000 160000
2020-12-06 21:45 5.62 40800 166000 (2019) 47600 (2017) 93200 48500 49200 72900 154000 160000
2020-12-06 20:45 5.63 40800 166000 (2019) 47600 (2017) 93200 48500 49200 72900 154000 160000
2020-12-06 19:45 5.65 40900 166000 (2019) 47600 (2017) 93200 48500 49200 72900 154000 160000
2020-12-06 18:45 5.66 41000 166000 (2019) 47600 (2017) 93200 48500 49200 72900 154000 160000
2020-12-06 17:45 5.66 41000 166000 (2019) 47600 (2017) 93200 48500 49200 72900 154000 160000
2020-12-06 16:45 5.68 41100 166000 (2019) 47600 (2017) 93200 48500 49200 72900 154000 160000
2020-12-06 15:45 5.70 41200 166000 (2019) 47600 (2017) 93200 48500 49200 72900 154000 160000
2020-12-06 14:45 5.71 41200 166000 (2019) 47600 (2017) 93200 48500 49200 72900 154000 160000
2020-12-06 13:45 5.72 41200 166000 (2019) 47600 (2017) 93200 48500 49200 72900 154000 160000
2020-12-06 12:45 5.74 41300 166000 (2019) 47600 (2017) 93200 48500 49200 72900 154000 160000
2020-12-06 11:45 5.75 41400 166000 (2019) 47600 (2017) 93200 48500 49200 72900 154000 160000
2020-12-06 10:45 5.77 41500 166000 (2019) 47600 (2017) 93200 48500 49200 72900 154000 160000
2020-12-06 09:45 5.78 41500 166000 (2019) 47600 (2017) 93200 48500 49200 72900 154000 160000
2020-12-06 08:45 5.79 41600 166000 (2019) 47600 (2017) 93200 48500 49200 72900 154000 160000
2020-12-06 07:45 5.81 41600 166000 (2019) 47600 (2017) 93200 48500 49200 72900 154000 160000
2020-12-06 06:45 5.83 41700 166000 (2019) 47600 (2017) 93200 48500 49200 72900 154000 160000
2020-12-06 05:45 5.83 41700 166000 (2019) 47600 (2017) 93200 48500 49200 72900 154000 160000
2020-12-06 04:45 5.84 41800 166000 (2019) 47600 (2017) 93200 48500 49200 72900 154000 160000
2020-12-06 03:45 5.87 41900 166000 (2019) 47600 (2017) 93200 48500 49200 72900 154000 160000
2020-12-06 02:45 5.89 42000 166000 (2019) 47600 (2017) 93200 48500 49200 72900 154000 160000
2020-12-06 01:45 5.91 42100 166000 (2019) 47600 (2017) 93200 48500 49200 72900 154000 160000
2020-12-06 00:45 5.90 42000 166000 (2019) 47600 (2017) 93200 48500 49200 72900 154000 160000
2020-12-05 23:45 5.92 42100 196000 (2019) 47500 (2017) 101000 48400 49100 79700 162000 178000
2020-12-05 22:45 5.96 42300 196000 (2019) 47500 (2017) 101000 48400 49100 79700 162000 178000
2020-12-05 21:45 5.97 42400 196000 (2019) 47500 (2017) 101000 48400 49100 79700 162000 178000
2020-12-05 20:45 5.99 42500 196000 (2019) 47500 (2017) 101000 48400 49100 79700 162000 178000
2020-12-05 19:45 6.01 42500 196000 (2019) 47500 (2017) 101000 48400 49100 79700 162000 178000
2020-12-05 18:45 6.00 42500 196000 (2019) 47500 (2017) 101000 48400 49100 79700 162000 178000
2020-12-05 17:45 6.03 42600 196000 (2019) 47500 (2017) 101000 48400 49100 79700 162000 178000
2020-12-05 16:45 6.05 42700 196000 (2019) 47500 (2017) 101000 48400 49100 79700 162000 178000
2020-12-05 15:45 6.06 42800 196000 (2019) 47500 (2017) 101000 48400 49100 79700 162000 178000
2020-12-05 14:45 6.07 42800 196000 (2019) 47500 (2017) 101000 48400 49100 79700 162000 178000
2020-12-05 13:45 6.08 42900 196000 (2019) 47500 (2017) 101000 48400 49100 79700 162000 178000
2020-12-05 12:45 6.09 42900 196000 (2019) 47500 (2017) 101000 48400 49100 79700 162000 178000
2020-12-05 11:45 6.11 43000 196000 (2019) 47500 (2017) 101000 48400 49100 79700 162000 178000
2020-12-05 10:45 6.12 43000 196000 (2019) 47500 (2017) 101000 48400 49100 79700 162000 178000
2020-12-05 09:45 6.14 43100 196000 (2019) 47500 (2017) 101000 48400 49100 79700 162000 178000
2020-12-05 08:45 6.16 43200 196000 (2019) 47500 (2017) 101000 48400 49100 79700 162000 178000
2020-12-05 07:45 6.17 43300 196000 (2019) 47500 (2017) 101000 48400 49100 79700 162000 178000
2020-12-05 06:45 6.18 43300 196000 (2019) 47500 (2017) 101000 48400 49100 79700 162000 178000
2020-12-05 05:45 6.21 43500 196000 (2019) 47500 (2017) 101000 48400 49100 79700 162000 178000
2020-12-05 04:45 6.23 43600 196000 (2019) 47500 (2017) 101000 48400 49100 79700 162000 178000
2020-12-05 03:45 6.24 43600 196000 (2019) 47500 (2017) 101000 48400 49100 79700 162000 178000
2020-12-05 02:45 6.26 43700 196000 (2019) 47500 (2017) 101000 48400 49100 79700 162000 178000
2020-12-05 01:45 6.27 43700 196000 (2019) 47500 (2017) 101000 48400 49100 79700 162000 178000
2020-12-05 00:45 6.29 43800 196000 (2019) 47500 (2017) 101000 48400 49100 79700 162000 178000
2020-12-04 23:45 6.31 43900 196000 (2019) 47000 (2017) 104000 48100 49000 90400 162000 178000
2020-12-04 22:45 6.31 43900 196000 (2019) 47000 (2017) 104000 48100 49000 90400 162000 178000
2020-12-04 21:45 6.34 44100 196000 (2019) 47000 (2017) 104000 48100 49000 90400 162000 178000
2020-12-04 20:45 6.34 44100 196000 (2019) 47000 (2017) 104000 48100 49000 90400 162000 178000
2020-12-04 19:45 6.35 44100 196000 (2019) 47000 (2017) 104000 48100 49000 90400 162000 178000
2020-12-04 18:45 6.37 44200 196000 (2019) 47000 (2017) 104000 48100 49000 90400 162000 178000
2020-12-04 17:45 6.38 44300 196000 (2019) 47000 (2017) 104000 48100 49000 90400 162000 178000
2020-12-04 16:45 6.40 44300 196000 (2019) 47000 (2017) 104000 48100 49000 90400 162000 178000
2020-12-04 15:45 6.41 44400 196000 (2019) 47000 (2017) 104000 48100 49000 90400 162000 178000
2020-12-04 14:45 6.43 44500 196000 (2019) 47000 (2017) 104000 48100 49000 90400 162000 178000
2020-12-04 13:45 6.43 44500 196000 (2019) 47000 (2017) 104000 48100 49000 90400 162000 178000
2020-12-04 12:45 6.44 44500 196000 (2019) 47000 (2017) 104000 48100 49000 90400 162000 178000
2020-12-04 11:45 6.44 44500 196000 (2019) 47000 (2017) 104000 48100 49000 90400 162000 178000
2020-12-04 10:45 6.47 44700 196000 (2019) 47000 (2017) 104000 48100 49000 90400 162000 178000
2020-12-04 09:45 6.47 44700 196000 (2019) 47000 (2017) 104000 48100 49000 90400 162000 178000
2020-12-04 08:45 6.51 44900 196000 (2019) 47000 (2017) 104000 48100 49000 90400 162000 178000
2020-12-04 07:45 6.52 44900 196000 (2019) 47000 (2017) 104000 48100 49000 90400 162000 178000
2020-12-04 06:45 6.54 45000 196000 (2019) 47000 (2017) 104000 48100 49000 90400 162000 178000
2020-12-04 05:45 6.53 45000 196000 (2019) 47000 (2017) 104000 48100 49000 90400 162000 178000
2020-12-04 04:45 6.55 45100 196000 (2019) 47000 (2017) 104000 48100 49000 90400 162000 178000
2020-12-04 03:45 6.56 45100 196000 (2019) 47000 (2017) 104000 48100 49000 90400 162000 178000
2020-12-04 02:45 6.58 45200 196000 (2019) 47000 (2017) 104000 48100 49000 90400 162000 178000
2020-12-04 01:45 6.59 45300 196000 (2019) 47000 (2017) 104000 48100 49000 90400 162000 178000
2020-12-04 00:45 6.60 45300 196000 (2019) 47000 (2017) 104000 48100 49000 90400 162000 178000
2020-12-03 23:45 6.62 45400 162000 (2019) 46700 (2017) 101000 48000 49200 95900 155000 158000
2020-12-03 22:45 6.65 45500 162000 (2019) 46700 (2017) 101000 48000 49200 95900 155000 158000
2020-12-03 21:45 6.67 45600 162000 (2019) 46700 (2017) 101000 48000 49200 95900 155000 158000
2020-12-03 20:45 6.68 45700 162000 (2019) 46700 (2017) 101000 48000 49200 95900 155000 158000
2020-12-03 19:45 6.68 45700 162000 (2019) 46700 (2017) 101000 48000 49200 95900 155000 158000
2020-12-03 18:45 6.69 45700 162000 (2019) 46700 (2017) 101000 48000 49200 95900 155000 158000
2020-12-03 17:45 6.70 45800 162000 (2019) 46700 (2017) 101000 48000 49200 95900 155000 158000
2020-12-03 16:45 6.72 45900 162000 (2019) 46700 (2017) 101000 48000 49200 95900 155000 158000
2020-12-03 15:45 6.74 46000 162000 (2019) 46700 (2017) 101000 48000 49200 95900 155000 158000
2020-12-03 14:45 6.77 46100 162000 (2019) 46700 (2017) 101000 48000 49200 95900 155000 158000
2020-12-03 13:45 6.79 46200 162000 (2019) 46700 (2017) 101000 48000 49200 95900 155000 158000
2020-12-03 12:45 6.79 46200 162000 (2019) 46700 (2017) 101000 48000 49200 95900 155000 158000
2020-12-03 11:45 6.80 46300 162000 (2019) 46700 (2017) 101000 48000 49200 95900 155000 158000
2020-12-03 10:45 6.83 46400 162000 (2019) 46700 (2017) 101000 48000 49200 95900 155000 158000
2020-12-03 09:45 6.84 46500 162000 (2019) 46700 (2017) 101000 48000 49200 95900 155000 158000
2020-12-03 08:45 6.84 46500 162000 (2019) 46700 (2017) 101000 48000 49200 95900 155000 158000
2020-12-03 07:45 6.86 46600 162000 (2019) 46700 (2017) 101000 48000 49200 95900 155000 158000
2020-12-03 06:45 6.88 46700 162000 (2019) 46700 (2017) 101000 48000 49200 95900 155000 158000
2020-12-03 05:45 6.88 46700 162000 (2019) 46700 (2017) 101000 48000 49200 95900 155000 158000
2020-12-03 04:45 6.90 46800 162000 (2019) 46700 (2017) 101000 48000 49200 95900 155000 158000
2020-12-03 03:45 6.91 46800 162000 (2019) 46700 (2017) 101000 48000 49200 95900 155000 158000
2020-12-03 02:45 6.94 46900 162000 (2019) 46700 (2017) 101000 48000 49200 95900 155000 158000
2020-12-03 01:45 6.96 47000 162000 (2019) 46700 (2017) 101000 48000 49200 95900 155000 158000
2020-12-03 00:45 6.97 47100 162000 (2019) 46700 (2017) 101000 48000 49200 95900 155000 158000
2020-12-02 23:45 6.99 47200 166000 (2020) 46800 (2017) 101000 48000 49000 98800 149000 157000
2020-12-02 22:45 7.01 47300 166000 (2020) 46800 (2017) 101000 48000 49000 98800 149000 157000
2020-12-02 21:45 7.03 47400 166000 (2020) 46800 (2017) 101000 48000 49000 98800 149000 157000
2020-12-02 20:45 7.05 47500 166000 (2020) 46800 (2017) 101000 48000 49000 98800 149000 157000
2020-12-02 19:45 7.06 47500 166000 (2020) 46800 (2017) 101000 48000 49000 98800 149000 157000
2020-12-02 18:45 7.11 47800 166000 (2020) 46800 (2017) 101000 48000 49000 98800 149000 157000
2020-12-02 17:45 7.11 47800 166000 (2020) 46800 (2017) 101000 48000 49000 98800 149000 157000
2020-12-02 16:45 7.13 47900 166000 (2020) 46800 (2017) 101000 48000 49000 98800 149000 157000
2020-12-02 15:45 7.16 48000 166000 (2020) 46800 (2017) 101000 48000 49000 98800 149000 157000
2020-12-02 14:45 7.18 48100 166000 (2020) 46800 (2017) 101000 48000 49000 98800 149000 157000
2020-12-02 13:45 7.21 48300 166000 (2020) 46800 (2017) 101000 48000 49000 98800 149000 157000
2020-12-02 12:45 7.22 48300 166000 (2020) 46800 (2017) 101000 48000 49000 98800 149000 157000
2020-12-02 11:45 7.24 48400 166000 (2020) 46800 (2017) 101000 48000 49000 98800 149000 157000
2020-12-02 10:45 7.27 48600 166000 (2020) 46800 (2017) 101000 48000 49000 98800 149000 157000
2020-12-02 09:45 7.27 48600 166000 (2020) 46800 (2017) 101000 48000 49000 98800 149000 157000
2020-12-02 08:45 7.31 48800 166000 (2020) 46800 (2017) 101000 48000 49000 98800 149000 157000
2020-12-02 07:45 7.35 49000 166000 (2020) 46800 (2017) 101000 48000 49000 98800 149000 157000
2020-12-02 06:45 7.36 49100 166000 (2020) 46800 (2017) 101000 48000 49000 98800 149000 157000
2020-12-02 05:45 7.37 49100 166000 (2020) 46800 (2017) 101000 48000 49000 98800 149000 157000
2020-12-02 04:45 7.38 49200 166000 (2020) 46800 (2017) 101000 48000 49000 98800 149000 157000
2020-12-02 03:45 7.41 49300 166000 (2020) 46800 (2017) 101000 48000 49000 98800 149000 157000
2020-12-02 02:45 7.43 49400 166000 (2020) 46800 (2017) 101000 48000 49000 98800 149000 157000
2020-12-02 01:45 7.44 49500 166000 (2020) 46800 (2017) 101000 48000 49000 98800 149000 157000
2020-12-02 00:45 7.45 49500 166000 (2020) 46800 (2017) 101000 48000 49000 98800 149000 157000
2020-12-01 23:45 7.49 49700 173000 (2020) 47200 (2017) 98800 48100 48800 87500 154000 163000
2020-12-01 22:45 7.52 49900 173000 (2020) 47200 (2017) 98800 48100 48800 87500 154000 163000
2020-12-01 21:45 7.53 49900 173000 (2020) 47200 (2017) 98800 48100 48800 87500 154000 163000
2020-12-01 20:45 7.53 49900 173000 (2020) 47200 (2017) 98800 48100 48800 87500 154000 163000
2020-12-01 19:45 7.55 50000 173000 (2020) 47200 (2017) 98800 48100 48800 87500 154000 163000
2020-12-01 18:45 7.58 50200 173000 (2020) 47200 (2017) 98800 48100 48800 87500 154000 163000
2020-12-01 17:45 7.59 50200 173000 (2020) 47200 (2017) 98800 48100 48800 87500 154000 163000
2020-12-01 16:45 7.62 50400 173000 (2020) 47200 (2017) 98800 48100 48800 87500 154000 163000
2020-12-01 15:45 7.62 50400 173000 (2020) 47200 (2017) 98800 48100 48800 87500 154000 163000
2020-12-01 14:45 7.65 50500 173000 (2020) 47200 (2017) 98800 48100 48800 87500 154000 163000
2020-12-01 13:45 7.69 50800 173000 (2020) 47200 (2017) 98800 48100 48800 87500 154000 163000
2020-12-01 12:45 7.70 50800 173000 (2020) 47200 (2017) 98800 48100 48800 87500 154000 163000
2020-12-01 11:45 7.72 50900 173000 (2020) 47200 (2017) 98800 48100 48800 87500 154000 163000
2020-12-01 10:45 7.71 50900 173000 (2020) 47200 (2017) 98800 48100 48800 87500 154000 163000
2020-12-01 09:45 7.78 51200 173000 (2020) 47200 (2017) 98800 48100 48800 87500 154000 163000
2020-12-01 08:45 7.80 51300 173000 (2020) 47200 (2017) 98800 48100 48800 87500 154000 163000
2020-12-01 07:45 7.80 51300 173000 (2020) 47200 (2017) 98800 48100 48800 87500 154000 163000
2020-12-01 06:45 7.81 51400 173000 (2020) 47200 (2017) 98800 48100 48800 87500 154000 163000
2020-12-01 05:45 7.84 51500 173000 (2020) 47200 (2017) 98800 48100 48800 87500 154000 163000
2020-12-01 04:45 7.84 51500 173000 (2020) 47200 (2017) 98800 48100 48800 87500 154000 163000
2020-12-01 03:45 7.90 51900 173000 (2020) 47200 (2017) 98800 48100 48800 87500 154000 163000
2020-12-01 02:45 7.92 52000 173000 (2020) 47200 (2017) 98800 48100 48800 87500 154000 163000
2020-12-01 01:45 7.93 52000 173000 (2020) 47200 (2017) 98800 48100 48800 87500 154000 163000
2020-12-01 00:45 7.94 52100 173000 (2020) 47200 (2017) 98800 48100 48800 87500 154000 163000
2020-11-30 23:45 7.98 52300 160000 (2020) 48600 (2017) 95100 49000 49300 83400 149000 154000
2020-11-30 22:45 7.97 52200 160000 (2020) 48600 (2017) 95100 49000 49300 83400 149000 154000
2020-11-30 21:45 8.01 52500 160000 (2020) 48600 (2017) 95100 49000 49300 83400 149000 154000
2020-11-30 20:45 8.02 52500 160000 (2020) 48600 (2017) 95100 49000 49300 83400 149000 154000
2020-11-30 19:45 8.05 52700 160000 (2020) 48600 (2017) 95100 49000 49300 83400 149000 154000
2020-11-30 18:45 8.07 52800 160000 (2020) 48600 (2017) 95100 49000 49300 83400 149000 154000
2020-11-30 17:45 8.07 52800 160000 (2020) 48600 (2017) 95100 49000 49300 83400 149000 154000
2020-11-30 16:45 8.12 53000 160000 (2020) 48600 (2017) 95100 49000 49300 83400 149000 154000
2020-11-30 15:45 8.13 53100 160000 (2020) 48600 (2017) 95100 49000 49300 83400 149000 154000
2020-11-30 14:45 8.12 53000 160000 (2020) 48600 (2017) 95100 49000 49300 83400 149000 154000
2020-11-30 13:45 8.15 53200 160000 (2020) 48600 (2017) 95100 49000 49300 83400 149000 154000
2020-11-30 12:45 8.17 53300 160000 (2020) 48600 (2017) 95100 49000 49300 83400 149000 154000
2020-11-30 11:45 8.17 53300 160000 (2020) 48600 (2017) 95100 49000 49300 83400 149000 154000
2020-11-30 10:45 8.19 53400 160000 (2020) 48600 (2017) 95100 49000 49300 83400 149000 154000
2020-11-30 09:45 8.21 53500 160000 (2020) 48600 (2017) 95100 49000 49300 83400 149000 154000
2020-11-30 08:45 8.24 53700 160000 (2020) 48600 (2017) 95100 49000 49300 83400 149000 154000
2020-11-30 07:45 8.27 53900 160000 (2020) 48600 (2017) 95100 49000 49300 83400 149000 154000
2020-11-30 06:45 8.33 54200 160000 (2020) 48600 (2017) 95100 49000 49300 83400 149000 154000
2020-11-30 05:45 8.33 54200 160000 (2020) 48600 (2017) 95100 49000 49300 83400 149000 154000
2020-11-30 04:45 8.38 54500 160000 (2020) 48600 (2017) 95100 49000 49300 83400 149000 154000
2020-11-30 03:45 8.40 54600 160000 (2020) 48600 (2017) 95100 49000 49300 83400 149000 154000
2020-11-30 02:45 8.41 54600 160000 (2020) 48600 (2017) 95100 49000 49300 83400 149000 154000
2020-11-30 01:45 8.44 54800 160000 (2020) 48600 (2017) 95100 49000 49300 83400 149000 154000
2020-11-30 00:45 8.45 54900 160000 (2020) 48600 (2017) 95100 49000 49300 83400 149000 154000
2020-11-29 23:45 8.47 55000 159000 (2016) 49900 (2017) 95400 49900 49900 84900 148000 153000
2020-11-29 22:45 8.53 55300 159000 (2016) 49900 (2017) 95400 49900 49900 84900 148000 153000
2020-11-29 21:45 8.47 55000 159000 (2016) 49900 (2017) 95400 49900 49900 84900 148000 153000
2020-11-29 20:45 8.54 55400 159000 (2016) 49900 (2017) 95400 49900 49900 84900 148000 153000
2020-11-29 19:45 8.54 55400 159000 (2016) 49900 (2017) 95400 49900 49900 84900 148000 153000
2020-11-29 18:45 8.60 55700 159000 (2016) 49900 (2017) 95400 49900 49900 84900 148000 153000
2020-11-29 17:45 8.59 55600 159000 (2016) 49900 (2017) 95400 49900 49900 84900 148000 153000
2020-11-29 16:45 8.64 55900 159000 (2016) 49900 (2017) 95400 49900 49900 84900 148000 153000
2020-11-29 15:45 8.65 56000 159000 (2016) 49900 (2017) 95400 49900 49900 84900 148000 153000
2020-11-29 14:45 8.66 56000 159000 (2016) 49900 (2017) 95400 49900 49900 84900 148000 153000
2020-11-29 13:45 8.69 56200 159000 (2016) 49900 (2017) 95400 49900 49900 84900 148000 153000
2020-11-29 12:45 8.73 56400 159000 (2016) 49900 (2017) 95400 49900 49900 84900 148000 153000
2020-11-29 11:45 8.74 56500 159000 (2016) 49900 (2017) 95400 49900 49900 84900 148000 153000
2020-11-29 10:45 8.76 56600 159000 (2016) 49900 (2017) 95400 49900 49900 84900 148000 153000
2020-11-29 09:45 8.78 56700 159000 (2016) 49900 (2017) 95400 49900 49900 84900 148000 153000
2020-11-29 08:45 8.81 56900 159000 (2016) 49900 (2017) 95400 49900 49900 84900 148000 153000
2020-11-29 07:45 8.81 56900 159000 (2016) 49900 (2017) 95400 49900 49900 84900 148000 153000
2020-11-29 06:45 8.84 57100 159000 (2016) 49900 (2017) 95400 49900 49900 84900 148000 153000
2020-11-29 05:45 8.87 57200 159000 (2016) 49900 (2017) 95400 49900 49900 84900 148000 153000
2020-11-29 04:45 8.89 57400 159000 (2016) 49900 (2017) 95400 49900 49900 84900 148000 153000
2020-11-29 03:45 8.85 57100 159000 (2016) 49900 (2017) 95400 49900 49900 84900 148000 153000
2020-11-29 02:45 8.89 57400 159000 (2016) 49900 (2017) 95400 49900 49900 84900 148000 153000
2020-11-29 01:45 8.89 57400 159000 (2016) 49900 (2017) 95400 49900 49900 84900 148000 153000
2020-11-29 00:45 8.92 57500 159000 (2016) 49900 (2017) 95400 49900 49900 84900 148000 153000
2020-11-28 23:45 8.95 57700 145000 (2016) 50100 (2017) 93700 50200 50300 86500 144000 145000
2020-11-28 22:45 8.94 57600 145000 (2016) 50100 (2017) 93700 50200 50300 86500 144000 145000
2020-11-28 21:45 8.96 57800 145000 (2016) 50100 (2017) 93700 50200 50300 86500 144000 145000
2020-11-28 20:45 8.96 57800 145000 (2016) 50100 (2017) 93700 50200 50300 86500 144000 145000
2020-11-28 19:45 8.98 57900 145000 (2016) 50100 (2017) 93700 50200 50300 86500 144000 145000
2020-11-28 18:45 8.97 57800 145000 (2016) 50100 (2017) 93700 50200 50300 86500 144000 145000
2020-11-28 17:45 8.97 57800 145000 (2016) 50100 (2017) 93700 50200 50300 86500 144000 145000
2020-11-28 16:45 8.97 57800 145000 (2016) 50100 (2017) 93700 50200 50300 86500 144000 145000
2020-11-28 15:45 8.96 57800 145000 (2016) 50100 (2017) 93700 50200 50300 86500 144000 145000
2020-11-28 14:45 8.96 57800 145000 (2016) 50100 (2017) 93700 50200 50300 86500 144000 145000
2020-11-28 13:45 8.95 57700 145000 (2016) 50100 (2017) 93700 50200 50300 86500 144000 145000
2020-11-28 12:45 8.92 57500 145000 (2016) 50100 (2017) 93700 50200 50300 86500 144000 145000
2020-11-28 11:45 8.93 57600 145000 (2016) 50100 (2017) 93700 50200 50300 86500 144000 145000
2020-11-28 10:45 8.92 57500 145000 (2016) 50100 (2017) 93700 50200 50300 86500 144000 145000
2020-11-28 09:45 8.87 57200 145000 (2016) 50100 (2017) 93700 50200 50300 86500 144000 145000
2020-11-28 08:45 8.88 57300 145000 (2016) 50100 (2017) 93700 50200 50300 86500 144000 145000
2020-11-28 07:45 8.88 57300 145000 (2016) 50100 (2017) 93700 50200 50300 86500 144000 145000
2020-11-28 06:45 8.85 57100 145000 (2016) 50100 (2017) 93700 50200 50300 86500 144000 145000
2020-11-28 05:45 8.81 56900 145000 (2016) 50100 (2017) 93700 50200 50300 86500 144000 145000
2020-11-28 04:45 8.79 56800 145000 (2016) 50100 (2017) 93700 50200 50300 86500 144000 145000
2020-11-28 03:45 8.76 56600 145000 (2016) 50100 (2017) 93700 50200 50300 86500 144000 145000
2020-11-28 02:45 8.70 56300 145000 (2016) 50100 (2017) 93700 50200 50300 86500 144000 145000
2020-11-28 01:45 8.67 56100 145000 (2016) 50100 (2017) 93700 50200 50300 86500 144000 145000
2020-11-28 00:45 8.69 56200 145000 (2016) 50100 (2017) 93700 50200 50300 86500 144000 145000
2020-11-27 23:45 8.62 55800 144000 (2020) 50400 (2017) 83300 50600 50700 70800 121000 132000
2020-11-27 22:45 8.57 55500 144000 (2020) 50400 (2017) 83300 50600 50700 70800 121000 132000
2020-11-27 21:45 8.53 55300 144000 (2020) 50400 (2017) 83300 50600 50700 70800 121000 132000
2020-11-27 20:45 8.49 55100 144000 (2020) 50400 (2017) 83300 50600 50700 70800 121000 132000
2020-11-27 19:45 8.45 54900 144000 (2020) 50400 (2017) 83300 50600 50700 70800 121000 132000
2020-11-27 18:45 8.43 54700 144000 (2020) 50400 (2017) 83300 50600 50700 70800 121000 132000
2020-11-27 17:45 8.35 54300 144000 (2020) 50400 (2017) 83300 50600 50700 70800 121000 132000
2020-11-27 16:45 8.31 54100 144000 (2020) 50400 (2017) 83300 50600 50700 70800 121000 132000
2020-11-27 15:45 8.25 53800 144000 (2020) 50400 (2017) 83300 50600 50700 70800 121000 132000
2020-11-27 14:45 8.21 53500 144000 (2020) 50400 (2017) 83300 50600 50700 70800 121000 132000
2020-11-27 13:45 8.14 53200 144000 (2020) 50400 (2017) 83300 50600 50700 70800 121000 132000
2020-11-27 12:45 8.13 53100 144000 (2020) 50400 (2017) 83300 50600 50700 70800 121000 132000
2020-11-27 11:45 8.06 52700 144000 (2020) 50400 (2017) 83300 50600 50700 70800 121000 132000
2020-11-27 10:45 8.01 52500 144000 (2020) 50400 (2017) 83300 50600 50700 70800 121000 132000
2020-11-27 09:45 7.96 52200 144000 (2020) 50400 (2017) 83300 50600 50700 70800 121000 132000
2020-11-27 08:45 7.93 52000 144000 (2020) 50400 (2017) 83300 50600 50700 70800 121000 132000
2020-11-27 07:45 7.90 51900 144000 (2020) 50400 (2017) 83300 50600 50700 70800 121000 132000
2020-11-27 06:45 7.89 51800 144000 (2020) 50400 (2017) 83300 50600 50700 70800 121000 132000
2020-11-27 05:45 7.85 51600 144000 (2020) 50400 (2017) 83300 50600 50700 70800 121000 132000
2020-11-27 04:45 7.84 51500 144000 (2020) 50400 (2017) 83300 50600 50700 70800 121000 132000
2020-11-27 03:45 7.81 51400 144000 (2020) 50400 (2017) 83300 50600 50700 70800 121000 132000
2020-11-27 02:45 7.80 51300 144000 (2020) 50400 (2017) 83300 50600 50700 70800 121000 132000
2020-11-27 01:45 7.76 51100 144000 (2020) 50400 (2017) 83300 50600 50700 70800 121000 132000
2020-11-27 00:45 7.76 51100 144000 (2020) 50400 (2017) 83300 50600 50700 70800 121000 132000
2020-11-26 23:45 7.75 51100 144000 (2020) 50200 (2017) 80300 50500 50800 63200 118000 130000
2020-11-26 22:45 7.71 50900 144000 (2020) 50200 (2017) 80300 50500 50800 63200 118000 130000
2020-11-26 21:45 7.69 50800 144000 (2020) 50200 (2017) 80300 50500 50800 63200 118000 130000
2020-11-26 20:45 7.66 50600 144000 (2020) 50200 (2017) 80300 50500 50800 63200 118000 130000
2020-11-26 19:45 7.67 50700 144000 (2020) 50200 (2017) 80300 50500 50800 63200 118000 130000
2020-11-26 18:45 7.61 50300 144000 (2020) 50200 (2017) 80300 50500 50800 63200 118000 130000
2020-11-26 17:45 7.63 50400 144000 (2020) 50200 (2017) 80300 50500 50800 63200 118000 130000
2020-11-26 16:45 7.62 50400 144000 (2020) 50200 (2017) 80300 50500 50800 63200 118000 130000
2020-11-26 15:45 7.60 50300 144000 (2020) 50200 (2017) 80300 50500 50800 63200 118000 130000
2020-11-26 14:45 7.59 50200 144000 (2020) 50200 (2017) 80300 50500 50800 63200 118000 130000
2020-11-26 13:45 7.55 50000 144000 (2020) 50200 (2017) 80300 50500 50800 63200 118000 130000
2020-11-26 12:45 7.55 50000 144000 (2020) 50200 (2017) 80300 50500 50800 63200 118000 130000
2020-11-26 11:45 7.55 50000 144000 (2020) 50200 (2017) 80300 50500 50800 63200 118000 130000
2020-11-26 10:45 7.53 49900 144000 (2020) 50200 (2017) 80300 50500 50800 63200 118000 130000
2020-11-26 09:45 7.51 49800 144000 (2020) 50200 (2017) 80300 50500 50800 63200 118000 130000
2020-11-26 08:45 7.51 49800 144000 (2020) 50200 (2017) 80300 50500 50800 63200 118000 130000
2020-11-26 07:45 7.50 49800 144000 (2020) 50200 (2017) 80300 50500 50800 63200 118000 130000
2020-11-26 06:45 7.48 49700 144000 (2020) 50200 (2017) 80300 50500 50800 63200 118000 130000
2020-11-26 05:45 7.50 49800 144000 (2020) 50200 (2017) 80300 50500 50800 63200 118000 130000
2020-11-26 04:45 7.50 49800 144000 (2020) 50200 (2017) 80300 50500 50800 63200 118000 130000
2020-11-26 03:45 7.48 49700 144000 (2020) 50200 (2017) 80300 50500 50800 63200 118000 130000
2020-11-26 02:45 7.48 49700 144000 (2020) 50200 (2017) 80300 50500 50800 63200 118000 130000
2020-11-26 01:45 7.49 49700 144000 (2020) 50200 (2017) 80300 50500 50800 63200 118000 130000
2020-11-26 00:45 7.48 49700 144000 (2020) 50200 (2017) 80300 50500 50800 63200 118000 130000
2020-11-25 23:45 7.48 49700 143000 (2020) 49700 (2017) 80000 50300 50800 63600 117000 129000
2020-11-25 22:45 7.48 49700 143000 (2020) 49700 (2017) 80000 50300 50800 63600 117000 129000
2020-11-25 21:45 7.48 49700 143000 (2020) 49700 (2017) 80000 50300 50800 63600 117000 129000
2020-11-25 20:45 7.47 49600 143000 (2020) 49700 (2017) 80000 50300 50800 63600 117000 129000
2020-11-25 19:45 7.45 49500 143000 (2020) 49700 (2017) 80000 50300 50800 63600 117000 129000
2020-11-25 18:45 7.45 49500 143000 (2020) 49700 (2017) 80000 50300 50800 63600 117000 129000
2020-11-25 17:45 7.47 49600 143000 (2020) 49700 (2017) 80000 50300 50800 63600 117000 129000
2020-11-25 16:45 7.47 49600 143000 (2020) 49700 (2017) 80000 50300 50800 63600 117000 129000
2020-11-25 15:45 7.47 49600 143000 (2020) 49700 (2017) 80000 50300 50800 63600 117000 129000
2020-11-25 14:45 7.44 49500 143000 (2020) 49700 (2017) 80000 50300 50800 63600 117000 129000
2020-11-25 13:45 7.46 49600 143000 (2020) 49700 (2017) 80000 50300 50800 63600 117000 129000
2020-11-25 12:45 7.48 49700 143000 (2020) 49700 (2017) 80000 50300 50800 63600 117000 129000
2020-11-25 11:45 7.51 49800 143000 (2020) 49700 (2017) 80000 50300 50800 63600 117000 129000
2020-11-25 10:45 7.54 50000 143000 (2020) 49700 (2017) 80000 50300 50800 63600 117000 129000
2020-11-25 09:45 7.54 50000 143000 (2020) 49700 (2017) 80000 50300 50800 63600 117000 129000
2020-11-25 08:45 7.55 50000 143000 (2020) 49700 (2017) 80000 50300 50800 63600 117000 129000
2020-11-25 07:45 7.57 50100 143000 (2020) 49700 (2017) 80000 50300 50800 63600 117000 129000
2020-11-25 06:45 7.58 50200 143000 (2020) 49700 (2017) 80000 50300 50800 63600 117000 129000
2020-11-25 05:45 7.59 50200 143000 (2020) 49700 (2017) 80000 50300 50800 63600 117000 129000
2020-11-25 04:45 7.56 50100 143000 (2020) 49700 (2017) 80000 50300 50800 63600 117000 129000
2020-11-25 03:45 7.57 50100 143000 (2020) 49700 (2017) 80000 50300 50800 63600 117000 129000
2020-11-25 02:45 7.50 49800 143000 (2020) 49700 (2017) 80000 50300 50800 63600 117000 129000
2020-11-25 01:45 7.50 49800 143000 (2020) 49700 (2017) 80000 50300 50800 63600 117000 129000
2020-11-25 00:45 7.43 49400 143000 (2020) 49700 (2017) 80000 50300 50800 63600 117000 129000
2020-11-24 23:45 7.36 49100 143000 (2020) 49100 (2017) 80400 50100 51000 64200 118000 130000
2020-11-24 22:45 7.29 48700 143000 (2020) 49100 (2017) 80400 50100 51000 64200 118000 130000
2020-11-24 21:45 7.26 48500 143000 (2020) 49100 (2017) 80400 50100 51000 64200 118000 130000
2020-11-24 20:45 7.22 48300 143000 (2020) 49100 (2017) 80400 50100 51000 64200 118000 130000
2020-11-24 19:45 7.16 48000 143000 (2020) 49100 (2017) 80400 50100 51000 64200 118000 130000
2020-11-24 18:45 7.10 47700 143000 (2020) 49100 (2017) 80400 50100 51000 64200 118000 130000
2020-11-24 17:45 7.07 47600 143000 (2020) 49100 (2017) 80400 50100 51000 64200 118000 130000
2020-11-24 16:45 7.07 47600 143000 (2020) 49100 (2017) 80400 50100 51000 64200 118000 130000
2020-11-24 15:45 7.06 47500 143000 (2020) 49100 (2017) 80400 50100 51000 64200 118000 130000
2020-11-24 14:45 7.07 47600 143000 (2020) 49100 (2017) 80400 50100 51000 64200 118000 130000
2020-11-24 13:45 7.04 47400 143000 (2020) 49100 (2017) 80400 50100 51000 64200 118000 130000
2020-11-24 12:45 7.03 47400 143000 (2020) 49100 (2017) 80400 50100 51000 64200 118000 130000
2020-11-24 11:45 7.03 47400 143000 (2020) 49100 (2017) 80400 50100 51000 64200 118000 130000
2020-11-24 10:45 7.03 47400 143000 (2020) 49100 (2017) 80400 50100 51000 64200 118000 130000
2020-11-24 09:45 7.01 47300 143000 (2020) 49100 (2017) 80400 50100 51000 64200 118000 130000
2020-11-24 08:45 7.00 47200 143000 (2020) 49100 (2017) 80400 50100 51000 64200 118000 130000
2020-11-24 07:45 7.03 47400 143000 (2020) 49100 (2017) 80400 50100 51000 64200 118000 130000
2020-11-24 06:45 7.00 47200 143000 (2020) 49100 (2017) 80400 50100 51000 64200 118000 130000
2020-11-24 05:45 6.93 46900 143000 (2020) 49100 (2017) 80400 50100 51000 64200 118000 130000
2020-11-24 04:45 7.03 47400 143000 (2020) 49100 (2017) 80400 50100 51000 64200 118000 130000
2020-11-24 03:45 6.98 47100 143000 (2020) 49100 (2017) 80400 50100 51000 64200 118000 130000
2020-11-24 02:45 7.00 47200 143000 (2020) 49100 (2017) 80400 50100 51000 64200 118000 130000
2020-11-24 01:45 7.00 47200 143000 (2020) 49100 (2017) 80400 50100 51000 64200 118000 130000
2020-11-24 00:45 6.98 47100 143000 (2020) 49100 (2017) 80400 50100 51000 64200 118000 130000
2020-11-23 23:45 6.99 47200 143000 (2020) 48700 (2017) 80100 49900 50900 64700 117000 129000
2020-11-23 22:45 6.95 47000 143000 (2020) 48700 (2017) 80100 49900 50900 64700 117000 129000
2020-11-23 21:45 6.96 47000 143000 (2020) 48700 (2017) 80100 49900 50900 64700 117000 129000
2020-11-23 20:45 6.98 47100 143000 (2020) 48700 (2017) 80100 49900 50900 64700 117000 129000
2020-11-23 19:45 6.99 47200 143000 (2020) 48700 (2017) 80100 49900 50900 64700 117000 129000
2020-11-23 18:45 6.96 47000 143000 (2020) 48700 (2017) 80100 49900 50900 64700 117000 129000
2020-11-23 17:45 6.97 47100 143000 (2020) 48700 (2017) 80100 49900 50900 64700 117000 129000
2020-11-23 16:45 6.95 47000 143000 (2020) 48700 (2017) 80100 49900 50900 64700 117000 129000
2020-11-23 15:45 6.94 46900 143000 (2020) 48700 (2017) 80100 49900 50900 64700 117000 129000
2020-11-23 14:45 6.93 46900 143000 (2020) 48700 (2017) 80100 49900 50900 64700 117000 129000
2020-11-23 13:45 6.94 46900 143000 (2020) 48700 (2017) 80100 49900 50900 64700 117000 129000
2020-11-23 12:45 6.92 46800 143000 (2020) 48700 (2017) 80100 49900 50900 64700 117000 129000
2020-11-23 11:45 6.91 46800 143000 (2020) 48700 (2017) 80100 49900 50900 64700 117000 129000
2020-11-23 10:45 6.92 46800 143000 (2020) 48700 (2017) 80100 49900 50900 64700 117000 129000
2020-11-23 09:45 6.94 46900 143000 (2020) 48700 (2017) 80100 49900 50900 64700 117000 129000
2020-11-23 08:45 6.91 46800 143000 (2020) 48700 (2017) 80100 49900 50900 64700 117000 129000
2020-11-23 07:45 6.91 46800 143000 (2020) 48700 (2017) 80100 49900 50900 64700 117000 129000
2020-11-23 06:45 6.90 46800 143000 (2020) 48700 (2017) 80100 49900 50900 64700 117000 129000
2020-11-23 05:45 6.89 46700 143000 (2020) 48700 (2017) 80100 49900 50900 64700 117000 129000
2020-11-23 04:45 6.87 46600 143000 (2020) 48700 (2017) 80100 49900 50900 64700 117000 129000
2020-11-23 03:45 6.85 46500 143000 (2020) 48700 (2017) 80100 49900 50900 64700 117000 129000
2020-11-23 02:45 6.85 46500 143000 (2020) 48700 (2017) 80100 49900 50900 64700 117000 129000
2020-11-23 01:45 6.86 46600 143000 (2020) 48700 (2017) 80100 49900 50900 64700 117000 129000
2020-11-23 00:45 6.86 46600 143000 (2020) 48700 (2017) 80100 49900 50900 64700 117000 129000
2020-11-22 23:45 6.85 46500 144000 (2020) 48600 (2017) 80700 49800 50800 65700 118000 130000
2020-11-22 22:45 6.86 46600 144000 (2020) 48600 (2017) 80700 49800 50800 65700 118000 130000
2020-11-22 21:45 6.82 46400 144000 (2020) 48600 (2017) 80700 49800 50800 65700 118000 130000
2020-11-22 20:45 6.82 46400 144000 (2020) 48600 (2017) 80700 49800 50800 65700 118000 130000
2020-11-22 19:45 6.83 46400 144000 (2020) 48600 (2017) 80700 49800 50800 65700 118000 130000
2020-11-22 18:45 6.82 46400 144000 (2020) 48600 (2017) 80700 49800 50800 65700 118000 130000
2020-11-22 17:45 6.80 46300 144000 (2020) 48600 (2017) 80700 49800 50800 65700 118000 130000
2020-11-22 16:45 6.82 46400 144000 (2020) 48600 (2017) 80700 49800 50800 65700 118000 130000
2020-11-22 15:45 6.83 46400 144000 (2020) 48600 (2017) 80700 49800 50800 65700 118000 130000
2020-11-22 14:45 6.81 46300 144000 (2020) 48600 (2017) 80700 49800 50800 65700 118000 130000
2020-11-22 13:45 6.82 46400 144000 (2020) 48600 (2017) 80700 49800 50800 65700 118000 130000
2020-11-22 12:45 6.80 46300 144000 (2020) 48600 (2017) 80700 49800 50800 65700 118000 130000
2020-11-22 11:45 6.81 46300 144000 (2020) 48600 (2017) 80700 49800 50800 65700 118000 130000
2020-11-22 10:45 6.83 46400 144000 (2020) 48600 (2017) 80700 49800 50800 65700 118000 130000
2020-11-22 09:45 6.81 46300 144000 (2020) 48600 (2017) 80700 49800 50800 65700 118000 130000
2020-11-22 08:45 6.82 46400 144000 (2020) 48600 (2017) 80700 49800 50800 65700 118000 130000
2020-11-22 07:45 6.84 46500 144000 (2020) 48600 (2017) 80700 49800 50800 65700 118000 130000
2020-11-22 06:45 6.85 46500 144000 (2020) 48600 (2017) 80700 49800 50800 65700 118000 130000
2020-11-22 05:45 6.85 46500 144000 (2020) 48600 (2017) 80700 49800 50800 65700 118000 130000
2020-11-22 04:45 6.86 46600 144000 (2020) 48600 (2017) 80700 49800 50800 65700 118000 130000
2020-11-22 03:45 6.86 46600 144000 (2020) 48600 (2017) 80700 49800 50800 65700 118000 130000
2020-11-22 02:45 6.88 46700 144000 (2020) 48600 (2017) 80700 49800 50800 65700 118000 130000
2020-11-22 01:45 6.86 46600 144000 (2020) 48600 (2017) 80700 49800 50800 65700 118000 130000
2020-11-22 00:45 6.88 46700 144000 (2020) 48600 (2017) 80700 49800 50800 65700 118000 130000
2020-11-21 23:45 6.89 46700 144000 (2020) 48900 (2017) 81600 49700 50400 67800 118000 130000
2020-11-21 22:45 6.89 46700 144000 (2020) 48900 (2017) 81600 49700 50400 67800 118000 130000
2020-11-21 21:45 6.89 46700 144000 (2020) 48900 (2017) 81600 49700 50400 67800 118000 130000
2020-11-21 20:45 6.87 46600 144000 (2020) 48900 (2017) 81600 49700 50400 67800 118000 130000
2020-11-21 19:45 6.88 46700 144000 (2020) 48900 (2017) 81600 49700 50400 67800 118000 130000
2020-11-21 18:45 6.87 46600 144000 (2020) 48900 (2017) 81600 49700 50400 67800 118000 130000
2020-11-21 17:45 6.87 46600 144000 (2020) 48900 (2017) 81600 49700 50400 67800 118000 130000
2020-11-21 16:45 6.84 46500 144000 (2020) 48900 (2017) 81600 49700 50400 67800 118000 130000
2020-11-21 15:45 6.84 46500 144000 (2020) 48900 (2017) 81600 49700 50400 67800 118000 130000
2020-11-21 14:45 6.86 46600 144000 (2020) 48900 (2017) 81600 49700 50400 67800 118000 130000
2020-11-21 13:45 6.86 46600 144000 (2020) 48900 (2017) 81600 49700 50400 67800 118000 130000
2020-11-21 12:45 6.88 46700 144000 (2020) 48900 (2017) 81600 49700 50400 67800 118000 130000
2020-11-21 11:45 6.90 46800 144000 (2020) 48900 (2017) 81600 49700 50400 67800 118000 130000
2020-11-21 10:45 6.91 46800 144000 (2020) 48900 (2017) 81600 49700 50400 67800 118000 130000
2020-11-21 09:45 6.91 46800 144000 (2020) 48900 (2017) 81600 49700 50400 67800 118000 130000
2020-11-21 08:45 6.91 46800 144000 (2020) 48900 (2017) 81600 49700 50400 67800 118000 130000
2020-11-21 07:45 6.93 46900 144000 (2020) 48900 (2017) 81600 49700 50400 67800 118000 130000
2020-11-21 06:45 6.92 46800 144000 (2020) 48900 (2017) 81600 49700 50400 67800 118000 130000
2020-11-21 05:45 6.94 46900 144000 (2020) 48900 (2017) 81600 49700 50400 67800 118000 130000
2020-11-21 04:45 6.95 47000 144000 (2020) 48900 (2017) 81600 49700 50400 67800 118000 130000
2020-11-21 03:45 6.95 47000 144000 (2020) 48900 (2017) 81600 49700 50400 67800 118000 130000
2020-11-21 02:45 6.97 47100 144000 (2020) 48900 (2017) 81600 49700 50400 67800 118000 130000
2020-11-21 01:45 6.98 47100 144000 (2020) 48900 (2017) 81600 49700 50400 67800 118000 130000
2020-11-21 00:45 6.98 47100 144000 (2020) 48900 (2017) 81600 49700 50400 67800 118000 130000
2020-11-20 23:45 6.98 47100 144000 (2020) 49200 (2017) 83500 49800 50400 73400 118000 130000
2020-11-20 22:45 6.99 47200 144000 (2020) 49200 (2017) 83500 49800 50400 73400 118000 130000
2020-11-20 21:45 6.98 47100 144000 (2020) 49200 (2017) 83500 49800 50400 73400 118000 130000
2020-11-20 20:45 7.00 47200 144000 (2020) 49200 (2017) 83500 49800 50400 73400 118000 130000
2020-11-20 19:45 7.02 47300 144000 (2020) 49200 (2017) 83500 49800 50400 73400 118000 130000
2020-11-20 18:45 7.02 47300 144000 (2020) 49200 (2017) 83500 49800 50400 73400 118000 130000
2020-11-20 17:45 6.97 47100 144000 (2020) 49200 (2017) 83500 49800 50400 73400 118000 130000
2020-11-20 16:45 7.05 47500 144000 (2020) 49200 (2017) 83500 49800 50400 73400 118000 130000
2020-11-20 15:45 7.05 47500 144000 (2020) 49200 (2017) 83500 49800 50400 73400 118000 130000
2020-11-20 14:45 7.06 47500 144000 (2020) 49200 (2017) 83500 49800 50400 73400 118000 130000
2020-11-20 13:45 7.06 47500 144000 (2020) 49200 (2017) 83500 49800 50400 73400 118000 130000
2020-11-20 12:45 7.06 47500 144000 (2020) 49200 (2017) 83500 49800 50400 73400 118000 130000
2020-11-20 11:45 7.07 47600 144000 (2020) 49200 (2017) 83500 49800 50400 73400 118000 130000
2020-11-20 10:45 7.09 47700 144000 (2020) 49200 (2017) 83500 49800 50400 73400 118000 130000
2020-11-20 09:45 7.08 47600 144000 (2020) 49200 (2017) 83500 49800 50400 73400 118000 130000
2020-11-20 08:45 7.08 47600 144000 (2020) 49200 (2017) 83500 49800 50400 73400 118000 130000
2020-11-20 07:45 7.10 47700 144000 (2020) 49200 (2017) 83500 49800 50400 73400 118000 130000
2020-11-20 06:45 7.10 47700 144000 (2020) 49200 (2017) 83500 49800 50400 73400 118000 130000
2020-11-20 05:45 7.10 47700 144000 (2020) 49200 (2017) 83500 49800 50400 73400 118000 130000
2020-11-20 04:45 7.12 47800 144000 (2020) 49200 (2017) 83500 49800 50400 73400 118000 130000
2020-11-20 03:45 7.13 47900 144000 (2020) 49200 (2017) 83500 49800 50400 73400 118000 130000
2020-11-20 02:45 7.15 48000 144000 (2020) 49200 (2017) 83500 49800 50400 73400 118000 130000
2020-11-20 01:45 7.16 48000 144000 (2020) 49200 (2017) 83500 49800 50400 73400 118000 130000
2020-11-20 00:45 7.16 48000 144000 (2020) 49200 (2017) 83500 49800 50400 73400 118000 130000
2020-11-19 23:45 7.20 48200 144000 (2020) 49100 (2017) 84700 50200 51100 77000 118000 130000
2020-11-19 22:45 7.20 48200 144000 (2020) 49100 (2017) 84700 50200 51100 77000 118000 130000
2020-11-19 21:45 7.24 48400 144000 (2020) 49100 (2017) 84700 50200 51100 77000 118000 130000
2020-11-19 20:45 7.23 48400 144000 (2020) 49100 (2017) 84700 50200 51100 77000 118000 130000
2020-11-19 19:45 7.23 48400 144000 (2020) 49100 (2017) 84700 50200 51100 77000 118000 130000
2020-11-19 18:45 7.25 48500 144000 (2020) 49100 (2017) 84700 50200 51100 77000 118000 130000
2020-11-19 17:45 7.24 48400 144000 (2020) 49100 (2017) 84700 50200 51100 77000 118000 130000
2020-11-19 16:45 7.24 48400 144000 (2020) 49100 (2017) 84700 50200 51100 77000 118000 130000
2020-11-19 15:45 7.25 48500 144000 (2020) 49100 (2017) 84700 50200 51100 77000 118000 130000
2020-11-19 14:45 7.26 48500 144000 (2020) 49100 (2017) 84700 50200 51100 77000 118000 130000
2020-11-19 13:45 7.27 48600 144000 (2020) 49100 (2017) 84700 50200 51100 77000 118000 130000
2020-11-19 12:45 7.27 48600 144000 (2020) 49100 (2017) 84700 50200 51100 77000 118000 130000
2020-11-19 11:45 7.26 48500 144000 (2020) 49100 (2017) 84700 50200 51100 77000 118000 130000
2020-11-19 10:45 7.30 48700 144000 (2020) 49100 (2017) 84700 50200 51100 77000 118000 130000
2020-11-19 09:45 7.30 48700 144000 (2020) 49100 (2017) 84700 50200 51100 77000 118000 130000
2020-11-19 08:45 7.34 48900 144000 (2020) 49100 (2017) 84700 50200 51100 77000 118000 130000
2020-11-19 07:45 7.30 48700 144000 (2020) 49100 (2017) 84700 50200 51100 77000 118000 130000
2020-11-19 06:45 7.34 48900 144000 (2020) 49100 (2017) 84700 50200 51100 77000 118000 130000
2020-11-19 05:45 7.34 48900 144000 (2020) 49100 (2017) 84700 50200 51100 77000 118000 130000
2020-11-19 04:45 7.36 49100 144000 (2020) 49100 (2017) 84700 50200 51100 77000 118000 130000
2020-11-19 03:45 7.36 49100 144000 (2020) 49100 (2017) 84700 50200 51100 77000 118000 130000
2020-11-19 02:45 7.36 49100 144000 (2020) 49100 (2017) 84700 50200 51100 77000 118000 130000
2020-11-19 01:45 7.38 49200 144000 (2020) 49100 (2017) 84700 50200 51100 77000 118000 130000
2020-11-19 00:45 7.39 49200 144000 (2020) 49100 (2017) 84700 50200 51100 77000 118000 130000
2020-11-18 23:45 7.37 49100 145000 (2020) 49400 (2017) 83900 51000 52300 73200 118000 131000
2020-11-18 22:45 7.40 49300 145000 (2020) 49400 (2017) 83900 51000 52300 73200 118000 131000
2020-11-18 21:45 7.41 49300 145000 (2020) 49400 (2017) 83900 51000 52300 73200 118000 131000
2020-11-18 20:45 7.42 49400 145000 (2020) 49400 (2017) 83900 51000 52300 73200 118000 131000
2020-11-18 19:45 7.39 49200 145000 (2020) 49400 (2017) 83900 51000 52300 73200 118000 131000
2020-11-18 18:45 7.42 49400 145000 (2020) 49400 (2017) 83900 51000 52300 73200 118000 131000
2020-11-18 17:45 7.42 49400 145000 (2020) 49400 (2017) 83900 51000 52300 73200 118000 131000
2020-11-18 16:45 7.37 49100 145000 (2020) 49400 (2017) 83900 51000 52300 73200 118000 131000
2020-11-18 15:45 7.40 49300 145000 (2020) 49400 (2017) 83900 51000 52300 73200 118000 131000
2020-11-18 14:45 7.38 49200 145000 (2020) 49400 (2017) 83900 51000 52300 73200 118000 131000
2020-11-18 13:45 7.38 49200 145000 (2020) 49400 (2017) 83900 51000 52300 73200 118000 131000
2020-11-18 12:45 7.35 49000 145000 (2020) 49400 (2017) 83900 51000 52300 73200 118000 131000
2020-11-18 11:45 7.35 49000 145000 (2020) 49400 (2017) 83900 51000 52300 73200 118000 131000
2020-11-18 10:45 7.35 49000 145000 (2020) 49400 (2017) 83900 51000 52300 73200 118000 131000
2020-11-18 09:45 7.37 49100 145000 (2020) 49400 (2017) 83900 51000 52300 73200 118000 131000
2020-11-18 08:45 7.37 49100 145000 (2020) 49400 (2017) 83900 51000 52300 73200 118000 131000
2020-11-18 07:45 7.16 48000 145000 (2020) 49400 (2017) 83900 51000 52300 73200 118000 131000
2020-11-18 06:45 7.39 49200 145000 (2020) 49400 (2017) 83900 51000 52300 73200 118000 131000
2020-11-18 05:45 7.39 49200 145000 (2020) 49400 (2017) 83900 51000 52300 73200 118000 131000
2020-11-18 04:45 7.40 49300 145000 (2020) 49400 (2017) 83900 51000 52300 73200 118000 131000
2020-11-18 03:45 7.39 49200 145000 (2020) 49400 (2017) 83900 51000 52300 73200 118000 131000
2020-11-18 02:45 7.39 49200 145000 (2020) 49400 (2017) 83900 51000 52300 73200 118000 131000
2020-11-18 01:45 7.38 49200 145000 (2020) 49400 (2017) 83900 51000 52300 73200 118000 131000
2020-11-18 00:45 7.40 49300 145000 (2020) 49400 (2017) 83900 51000 52300 73200 118000 131000
2020-11-17 23:45 7.37 49100 146000 (2020) 49800 (2017) 80300 51500 53000 60500 120000 132000
2020-11-17 22:45 7.39 49200 146000 (2020) 49800 (2017) 80300 51500 53000 60500 120000 132000
2020-11-17 21:45 7.37 49100 146000 (2020) 49800 (2017) 80300 51500 53000 60500 120000 132000
2020-11-17 20:45 7.38 49200 146000 (2020) 49800 (2017) 80300 51500 53000 60500 120000 132000
2020-11-17 19:45 7.38 49200 146000 (2020) 49800 (2017) 80300 51500 53000 60500 120000 132000
2020-11-17 18:45 7.37 49100 146000 (2020) 49800 (2017) 80300 51500 53000 60500 120000 132000
2020-11-17 17:45 7.36 49100 146000 (2020) 49800 (2017) 80300 51500 53000 60500 120000 132000
2020-11-17 16:45 7.37 49100 146000 (2020) 49800 (2017) 80300 51500 53000 60500 120000 132000
2020-11-17 15:45 7.36 49100 146000 (2020) 49800 (2017) 80300 51500 53000 60500 120000 132000
2020-11-17 14:45 7.36 49100 146000 (2020) 49800 (2017) 80300 51500 53000 60500 120000 132000
2020-11-17 13:45 7.27 48600 146000 (2020) 49800 (2017) 80300 51500 53000 60500 120000 132000
2020-11-17 12:45 7.34 48900 146000 (2020) 49800 (2017) 80300 51500 53000 60500 120000 132000
2020-11-17 11:45 7.34 48900 146000 (2020) 49800 (2017) 80300 51500 53000 60500 120000 132000
2020-11-17 10:45 7.35 49000 146000 (2020) 49800 (2017) 80300 51500 53000 60500 120000 132000
2020-11-17 09:45 7.35 49000 146000 (2020) 49800 (2017) 80300 51500 53000 60500 120000 132000
2020-11-17 08:45 7.36 49100 146000 (2020) 49800 (2017) 80300 51500 53000 60500 120000 132000
2020-11-17 07:45 7.36 49100 146000 (2020) 49800 (2017) 80300 51500 53000 60500 120000 132000
2020-11-17 06:45 7.32 48800 146000 (2020) 49800 (2017) 80300 51500 53000 60500 120000 132000
2020-11-17 05:45 7.36 49100 146000 (2020) 49800 (2017) 80300 51500 53000 60500 120000 132000
2020-11-17 04:45 7.33 48900 146000 (2020) 49800 (2017) 80300 51500 53000 60500 120000 132000
2020-11-17 03:45 7.35 49000 146000 (2020) 49800 (2017) 80300 51500 53000 60500 120000 132000
2020-11-17 02:45 7.35 49000 146000 (2020) 49800 (2017) 80300 51500 53000 60500 120000 132000
2020-11-17 01:45 7.33 48900 146000 (2020) 49800 (2017) 80300 51500 53000 60500 120000 132000
2020-11-17 00:45 7.36 49100 146000 (2020) 49800 (2017) 80300 51500 53000 60500 120000 132000
2020-11-16 23:45 7.36 49100 147000 (2020) 50000 (2017) 79500 51200 52200 57900 120000 133000
2020-11-16 22:45 7.35 49000 147000 (2020) 50000 (2017) 79500 51200 52200 57900 120000 133000
2020-11-16 21:45 7.37 49100 147000 (2020) 50000 (2017) 79500 51200 52200 57900 120000 133000
2020-11-16 20:45 7.35 49000 147000 (2020) 50000 (2017) 79500 51200 52200 57900 120000 133000
2020-11-16 19:45 7.35 49000 147000 (2020) 50000 (2017) 79500 51200 52200 57900 120000 133000
2020-11-16 18:45 7.32 48800 147000 (2020) 50000 (2017) 79500 51200 52200 57900 120000 133000
2020-11-16 17:45 7.34 48900 147000 (2020) 50000 (2017) 79500 51200 52200 57900 120000 133000
2020-11-16 16:45 7.31 48800 147000 (2020) 50000 (2017) 79500 51200 52200 57900 120000 133000
2020-11-16 15:45 7.31 48800 147000 (2020) 50000 (2017) 79500 51200 52200 57900 120000 133000
2020-11-16 14:45 7.31 48800 147000 (2020) 50000 (2017) 79500 51200 52200 57900 120000 133000
2020-11-16 13:45 7.25 48500 147000 (2020) 50000 (2017) 79500 51200 52200 57900 120000 133000
2020-11-16 12:45 7.29 48700 147000 (2020) 50000 (2017) 79500 51200 52200 57900 120000 133000
2020-11-16 11:45 7.19 48200 147000 (2020) 50000 (2017) 79500 51200 52200 57900 120000 133000
2020-11-16 10:45 7.27 48600 147000 (2020) 50000 (2017) 79500 51200 52200 57900 120000 133000
2020-11-16 09:45 7.29 48700 147000 (2020) 50000 (2017) 79500 51200 52200 57900 120000 133000
2020-11-16 08:45 7.27 48600 147000 (2020) 50000 (2017) 79500 51200 52200 57900 120000 133000
2020-11-16 07:45 7.26 48500 147000 (2020) 50000 (2017) 79500 51200 52200 57900 120000 133000
2020-11-16 06:45 7.26 48500 147000 (2020) 50000 (2017) 79500 51200 52200 57900 120000 133000
2020-11-16 05:45 7.25 48500 147000 (2020) 50000 (2017) 79500 51200 52200 57900 120000 133000
2020-11-16 04:45 7.27 48600 147000 (2020) 50000 (2017) 79500 51200 52200 57900 120000 133000
2020-11-16 03:45 7.22 48300 147000 (2020) 50000 (2017) 79500 51200 52200 57900 120000 133000
2020-11-16 02:45 7.25 48500 147000 (2020) 50000 (2017) 79500 51200 52200 57900 120000 133000
2020-11-16 01:45 7.21 48300 147000 (2020) 50000 (2017) 79500 51200 52200 57900 120000 133000
2020-11-16 00:45 7.21 48300 147000 (2020) 50000 (2017) 79500 51200 52200 57900 120000 133000
2020-11-15 23:45 7.20 48200 146000 (2020) 50100 (2017) 79800 50700 51300 59000 121000 133000
2020-11-15 22:45 7.18 48100 146000 (2020) 50100 (2017) 79800 50700 51300 59000 121000 133000
2020-11-15 21:45 7.16 48000 146000 (2020) 50100 (2017) 79800 50700 51300 59000 121000 133000
2020-11-15 20:45 7.14 47900 146000 (2020) 50100 (2017) 79800 50700 51300 59000 121000 133000
2020-11-15 19:45 7.13 47900 146000 (2020) 50100 (2017) 79800 50700 51300 59000 121000 133000
2020-11-15 18:45 7.12 47800 146000 (2020) 50100 (2017) 79800 50700 51300 59000 121000 133000
2020-11-15 17:45 7.11 47800 146000 (2020) 50100 (2017) 79800 50700 51300 59000 121000 133000
2020-11-15 16:45 7.09 47700 146000 (2020) 50100 (2017) 79800 50700 51300 59000 121000 133000
2020-11-15 15:45 7.03 47400 146000 (2020) 50100 (2017) 79800 50700 51300 59000 121000 133000
2020-11-15 14:45 7.02 47300 146000 (2020) 50100 (2017) 79800 50700 51300 59000 121000 133000
2020-11-15 13:45 7.01 47300 146000 (2020) 50100 (2017) 79800 50700 51300 59000 121000 133000
2020-11-15 12:45 6.95 47000 146000 (2020) 50100 (2017) 79800 50700 51300 59000 121000 133000
2020-11-15 11:45 6.99 47200 146000 (2020) 50100 (2017) 79800 50700 51300 59000 121000 133000
2020-11-15 10:45 6.90 46800 146000 (2020) 50100 (2017) 79800 50700 51300 59000 121000 133000
2020-11-15 09:45 6.88 46700 146000 (2020) 50100 (2017) 79800 50700 51300 59000 121000 133000
2020-11-15 08:45 6.93 46900 146000 (2020) 50100 (2017) 79800 50700 51300 59000 121000 133000
2020-11-15 07:45 6.92 46800 146000 (2020) 50100 (2017) 79800 50700 51300 59000 121000 133000
2020-11-15 06:45 6.93 46900 146000 (2020) 50100 (2017) 79800 50700 51300 59000 121000 133000
2020-11-15 05:45 6.83 46400 146000 (2020) 50100 (2017) 79800 50700 51300 59000 121000 133000
2020-11-15 04:45 6.82 46400 146000 (2020) 50100 (2017) 79800 50700 51300 59000 121000 133000
2020-11-15 03:45 6.84 46500 146000 (2020) 50100 (2017) 79800 50700 51300 59000 121000 133000
2020-11-15 02:45 6.89 46700 146000 (2020) 50100 (2017) 79800 50700 51300 59000 121000 133000
2020-11-15 01:45 6.87 46600 146000 (2020) 50100 (2017) 79800 50700 51300 59000 121000 133000
2020-11-15 00:45 6.86 46600 146000 (2020) 50100 (2017) 79800 50700 51300 59000 121000 133000
2020-11-14 23:45 6.84 46500 145000 (2020) 50400 (2017) 79900 50800 51100 59800 121000 132000
2020-11-14 22:45 6.84 46500 145000 (2020) 50400 (2017) 79900 50800 51100 59800 121000 132000
2020-11-14 21:45 6.83 46400 145000 (2020) 50400 (2017) 79900 50800 51100 59800 121000 132000
2020-11-14 20:45 6.81 46300 145000 (2020) 50400 (2017) 79900 50800 51100 59800 121000 132000
2020-11-14 19:45 6.68 45700 145000 (2020) 50400 (2017) 79900 50800 51100 59800 121000 132000
2020-11-14 18:45 6.76 46100 145000 (2020) 50400 (2017) 79900 50800 51100 59800 121000 132000
2020-11-14 17:45 6.73 45900 145000 (2020) 50400 (2017) 79900 50800 51100 59800 121000 132000
2020-11-14 16:45 6.74 46000 145000 (2020) 50400 (2017) 79900 50800 51100 59800 121000 132000
2020-11-14 15:45 6.73 45900 145000 (2020) 50400 (2017) 79900 50800 51100 59800 121000 132000
2020-11-14 14:45 6.73 45900 145000 (2020) 50400 (2017) 79900 50800 51100 59800 121000 132000
2020-11-14 13:45 6.72 45900 145000 (2020) 50400 (2017) 79900 50800 51100 59800 121000 132000
2020-11-14 12:45 6.71 45800 145000 (2020) 50400 (2017) 79900 50800 51100 59800 121000 132000
2020-11-14 11:45 6.72 45900 145000 (2020) 50400 (2017) 79900 50800 51100 59800 121000 132000
2020-11-14 10:45 6.68 45700 145000 (2020) 50400 (2017) 79900 50800 51100 59800 121000 132000
2020-11-14 09:45 6.68 45700 145000 (2020) 50400 (2017) 79900 50800 51100 59800 121000 132000
2020-11-14 08:45 6.74 46000 145000 (2020) 50400 (2017) 79900 50800 51100 59800 121000 132000
2020-11-14 07:45 6.72 45900 145000 (2020) 50400 (2017) 79900 50800 51100 59800 121000 132000
2020-11-14 06:45 6.71 45800 145000 (2020) 50400 (2017) 79900 50800 51100 59800 121000 132000
2020-11-14 05:45 6.64 45500 145000 (2020) 50400 (2017) 79900 50800 51100 59800 121000 132000
2020-11-14 04:45 6.60 45300 145000 (2020) 50400 (2017) 79900 50800 51100 59800 121000 132000
2020-11-14 03:45 6.68 45700 145000 (2020) 50400 (2017) 79900 50800 51100 59800 121000 132000
2020-11-14 02:45 6.59 45300 145000 (2020) 50400 (2017) 79900 50800 51100 59800 121000 132000
2020-11-14 01:45 6.63 45400 145000 (2020) 50400 (2017) 79900 50800 51100 59800 121000 132000
2020-11-14 00:45 6.66 45600 145000 (2020) 50400 (2017) 79900 50800 51100 59800 121000 132000
2020-11-13 23:45 6.64 45500 145000 (2020) 50400 (2017) 80300 50800 51100 61000 121000 132000
2020-11-13 22:45 6.65 45500 145000 (2020) 50400 (2017) 80300 50800 51100 61000 121000 132000
2020-11-13 21:45 6.63 45400 145000 (2020) 50400 (2017) 80300 50800 51100 61000 121000 132000
2020-11-13 20:45 6.66 45600 145000 (2020) 50400 (2017) 80300 50800 51100 61000 121000 132000
2020-11-13 19:45 6.64 45500 145000 (2020) 50400 (2017) 80300 50800 51100 61000 121000 132000
2020-11-13 18:45 6.63 45400 145000 (2020) 50400 (2017) 80300 50800 51100 61000 121000 132000
2020-11-13 17:45 6.64 45500 145000 (2020) 50400 (2017) 80300 50800 51100 61000 121000 132000
2020-11-13 16:45 6.63 45400 145000 (2020) 50400 (2017) 80300 50800 51100 61000 121000 132000
2020-11-13 15:45 6.61 45300 145000 (2020) 50400 (2017) 80300 50800 51100 61000 121000 132000
2020-11-13 14:45 6.62 45400 145000 (2020) 50400 (2017) 80300 50800 51100 61000 121000 132000
2020-11-13 13:45 6.60 45300 145000 (2020) 50400 (2017) 80300 50800 51100 61000 121000 132000
2020-11-13 12:45 6.59 45300 145000 (2020) 50400 (2017) 80300 50800 51100 61000 121000 132000
2020-11-13 11:45 6.58 45200 145000 (2020) 50400 (2017) 80300 50800 51100 61000 121000 132000
2020-11-13 10:45 6.58 45200 145000 (2020) 50400 (2017) 80300 50800 51100 61000 121000 132000
2020-11-13 09:45 6.54 45000 145000 (2020) 50400 (2017) 80300 50800 51100 61000 121000 132000
2020-11-13 08:45 6.56 45100 145000 (2020) 50400 (2017) 80300 50800 51100 61000 121000 132000
2020-11-13 07:45 6.55 45100 145000 (2020) 50400 (2017) 80300 50800 51100 61000 121000 132000
2020-11-13 06:45 6.56 45100 145000 (2020) 50400 (2017) 80300 50800 51100 61000 121000 132000
2020-11-13 05:45 6.54 45000 145000 (2020) 50400 (2017) 80300 50800 51100 61000 121000 132000
2020-11-13 04:45 6.53 45000 145000 (2020) 50400 (2017) 80300 50800 51100 61000 121000 132000
2020-11-13 03:45 6.53 45000 145000 (2020) 50400 (2017) 80300 50800 51100 61000 121000 132000
2020-11-13 02:45 6.52 44900 145000 (2020) 50400 (2017) 80300 50800 51100 61000 121000 132000
2020-11-13 01:45 6.48 44700 145000 (2020) 50400 (2017) 80300 50800 51100 61000 121000 132000
2020-11-13 00:45 6.47 44700 145000 (2020) 50400 (2017) 80300 50800 51100 61000 121000 132000
2020-11-12 23:45 6.40 44300 143000 (2020) 50300 (2017) 80000 50600 50900 61200 120000 131000
2020-11-12 22:45 6.49 44800 143000 (2020) 50300 (2017) 80000 50600 50900 61200 120000 131000
2020-11-12 21:45 6.50 44800 143000 (2020) 50300 (2017) 80000 50600 50900 61200 120000 131000
2020-11-12 20:45 6.50 44800 143000 (2020) 50300 (2017) 80000 50600 50900 61200 120000 131000
2020-11-12 19:45 6.48 44700 143000 (2020) 50300 (2017) 80000 50600 50900 61200 120000 131000
2020-11-12 18:45 6.50 44800 143000 (2020) 50300 (2017) 80000 50600 50900 61200 120000 131000
2020-11-12 17:45 6.49 44800 143000 (2020) 50300 (2017) 80000 50600 50900 61200 120000 131000
2020-11-12 16:45 6.48 44700 143000 (2020) 50300 (2017) 80000 50600 50900 61200 120000 131000
2020-11-12 15:45 6.48 44700 143000 (2020) 50300 (2017) 80000 50600 50900 61200 120000 131000
2020-11-12 14:45 6.46 44600 143000 (2020) 50300 (2017) 80000 50600 50900 61200 120000 131000
2020-11-12 13:45 6.45 44600 143000 (2020) 50300 (2017) 80000 50600 50900 61200 120000 131000
2020-11-12 12:45 6.36 44200 143000 (2020) 50300 (2017) 80000 50600 50900 61200 120000 131000
2020-11-12 11:45 6.42 44400 143000 (2020) 50300 (2017) 80000 50600 50900 61200 120000 131000
2020-11-12 10:45 6.40 44300 143000 (2020) 50300 (2017) 80000 50600 50900 61200 120000 131000
2020-11-12 09:45 6.46 44600 143000 (2020) 50300 (2017) 80000 50600 50900 61200 120000 131000
2020-11-12 08:45 6.47 44700 143000 (2020) 50300 (2017) 80000 50600 50900 61200 120000 131000
2020-11-12 07:45 6.47 44700 143000 (2020) 50300 (2017) 80000 50600 50900 61200 120000 131000
2020-11-12 06:45 6.47 44700 143000 (2020) 50300 (2017) 80000 50600 50900 61200 120000 131000
2020-11-12 05:45 6.46 44600 143000 (2020) 50300 (2017) 80000 50600 50900 61200 120000 131000
2020-11-12 04:45 6.49 44800 143000 (2020) 50300 (2017) 80000 50600 50900 61200 120000 131000
2020-11-12 03:45 6.49 44800 143000 (2020) 50300 (2017) 80000 50600 50900 61200 120000 131000
2020-11-12 02:45 6.48 44700 143000 (2020) 50300 (2017) 80000 50600 50900 61200 120000 131000
2020-11-12 01:45 6.50 44800 143000 (2020) 50300 (2017) 80000 50600 50900 61200 120000 131000
2020-11-12 00:45 6.49 44800 143000 (2020) 50300 (2017) 80000 50600 50900 61200 120000 131000
2020-11-11 23:45 6.50 44800 144000 (2020) 50200 (2017) 80100 50500 50800 61300 121000 132000
2020-11-11 22:45 6.51 44900 144000 (2020) 50200 (2017) 80100 50500 50800 61300 121000 132000
2020-11-11 21:45 6.50 44800 144000 (2020) 50200 (2017) 80100 50500 50800 61300 121000 132000
2020-11-11 20:45 6.51 44900 144000 (2020) 50200 (2017) 80100 50500 50800 61300 121000 132000
2020-11-11 19:45 6.50 44800 144000 (2020) 50200 (2017) 80100 50500 50800 61300 121000 132000
2020-11-11 18:45 6.48 44700 144000 (2020) 50200 (2017) 80100 50500 50800 61300 121000 132000
2020-11-11 17:45 6.50 44800 144000 (2020) 50200 (2017) 80100 50500 50800 61300 121000 132000
2020-11-11 16:45 6.44 44500 144000 (2020) 50200 (2017) 80100 50500 50800 61300 121000 132000
2020-11-11 15:45 6.51 44900 144000 (2020) 50200 (2017) 80100 50500 50800 61300 121000 132000
2020-11-11 14:45 6.51 44900 144000 (2020) 50200 (2017) 80100 50500 50800 61300 121000 132000
2020-11-11 13:45 6.51 44900 144000 (2020) 50200 (2017) 80100 50500 50800 61300 121000 132000
2020-11-11 12:45 6.48 44700 144000 (2020) 50200 (2017) 80100 50500 50800 61300 121000 132000
2020-11-11 11:45 6.50 44800 144000 (2020) 50200 (2017) 80100 50500 50800 61300 121000 132000
2020-11-11 10:45 6.49 44800 144000 (2020) 50200 (2017) 80100 50500 50800 61300 121000 132000
2020-11-11 09:45 6.50 44800 144000 (2020) 50200 (2017) 80100 50500 50800 61300 121000 132000
2020-11-11 08:45 6.51 44900 144000 (2020) 50200 (2017) 80100 50500 50800 61300 121000 132000
2020-11-11 07:45 6.52 44900 144000 (2020) 50200 (2017) 80100 50500 50800 61300 121000 132000
2020-11-11 06:45 6.50 44800 144000 (2020) 50200 (2017) 80100 50500 50800 61300 121000 132000
2020-11-11 05:45 6.52 44900 144000 (2020) 50200 (2017) 80100 50500 50800 61300 121000 132000
2020-11-11 04:45 6.52 44900 144000 (2020) 50200 (2017) 80100 50500 50800 61300 121000 132000
2020-11-11 03:45 6.51 44900 144000 (2020) 50200 (2017) 80100 50500 50800 61300 121000 132000
2020-11-11 02:45 6.53 45000 144000 (2020) 50200 (2017) 80100 50500 50800 61300 121000 132000
2020-11-11 01:45 6.53 45000 144000 (2020) 50200 (2017) 80100 50500 50800 61300 121000 132000
2020-11-11 00:45 6.53 45000 144000 (2020) 50200 (2017) 80100 50500 50800 61300 121000 132000
2020-11-10 23:45 6.53 45000 143000 (2020) 50400 (2017) 80300 50800 51100 61600 121000 131000
2020-11-10 22:45 6.53 45000 143000 (2020) 50400 (2017) 80300 50800 51100 61600 121000 131000
2020-11-10 21:45 6.55 45100 143000 (2020) 50400 (2017) 80300 50800 51100 61600 121000 131000
2020-11-10 20:45 6.56 45100 143000 (2020) 50400 (2017) 80300 50800 51100 61600 121000 131000
2020-11-10 19:45 6.56 45100 143000 (2020) 50400 (2017) 80300 50800 51100 61600 121000 131000
2020-11-10 18:45 6.56 45100 143000 (2020) 50400 (2017) 80300 50800 51100 61600 121000 131000
2020-11-10 17:45 6.57 45200 143000 (2020) 50400 (2017) 80300 50800 51100 61600 121000 131000
2020-11-10 16:45 6.58 45200 143000 (2020) 50400 (2017) 80300 50800 51100 61600 121000 131000
2020-11-10 15:45 6.57 45200 143000 (2020) 50400 (2017) 80300 50800 51100 61600 121000 131000
2020-11-10 14:45 6.54 45000 143000 (2020) 50400 (2017) 80300 50800 51100 61600 121000 131000
2020-11-10 13:45 6.50 44800 143000 (2020) 50400 (2017) 80300 50800 51100 61600 121000 131000
2020-11-10 12:45 6.48 44700 143000 (2020) 50400 (2017) 80300 50800 51100 61600 121000 131000
2020-11-10 11:45 6.46 44600 143000 (2020) 50400 (2017) 80300 50800 51100 61600 121000 131000
2020-11-10 10:45 6.44 44500 143000 (2020) 50400 (2017) 80300 50800 51100 61600 121000 131000
2020-11-10 09:45 6.47 44700 143000 (2020) 50400 (2017) 80300 50800 51100 61600 121000 131000
2020-11-10 08:45 6.44 44500 143000 (2020) 50400 (2017) 80300 50800 51100 61600 121000 131000
2020-11-10 07:45 6.46 44600 143000 (2020) 50400 (2017) 80300 50800 51100 61600 121000 131000
2020-11-10 06:45 6.50 44800 143000 (2020) 50400 (2017) 80300 50800 51100 61600 121000 131000
2020-11-10 05:45 6.50 44800 143000 (2020) 50400 (2017) 80300 50800 51100 61600 121000 131000
2020-11-10 04:45 6.50 44800 143000 (2020) 50400 (2017) 80300 50800 51100 61600 121000 131000
2020-11-10 03:45 6.51 44900 143000 (2020) 50400 (2017) 80300 50800 51100 61600 121000 131000
2020-11-10 02:45 6.54 45000 143000 (2020) 50400 (2017) 80300 50800 51100 61600 121000 131000
2020-11-10 01:45 6.52 44900 143000 (2020) 50400 (2017) 80300 50800 51100 61600 121000 131000
2020-11-10 00:45 6.53 45000 143000 (2020) 50400 (2017) 80300 50800 51100 61600 121000 131000
2020-11-09 23:45 6.53 45000 144000 (2020) 51000 (2017) 80800 51200 51400 62300 121000 132000
2020-11-09 22:45 6.55 45100 144000 (2020) 51000 (2017) 80800 51200 51400 62300 121000 132000
2020-11-09 21:45 6.54 45000 144000 (2020) 51000 (2017) 80800 51200 51400 62300 121000 132000
2020-11-09 20:45 6.55 45100 144000 (2020) 51000 (2017) 80800 51200 51400 62300 121000 132000
2020-11-09 19:45 6.54 45000 144000 (2020) 51000 (2017) 80800 51200 51400 62300 121000 132000
2020-11-09 18:45 6.55 45100 144000 (2020) 51000 (2017) 80800 51200 51400 62300 121000 132000
2020-11-09 17:45 6.53 45000 144000 (2020) 51000 (2017) 80800 51200 51400 62300 121000 132000
2020-11-09 16:45 6.49 44800 144000 (2020) 51000 (2017) 80800 51200 51400 62300 121000 132000
2020-11-09 15:45 6.48 44700 144000 (2020) 51000 (2017) 80800 51200 51400 62300 121000 132000
2020-11-09 14:45 6.49 44800 144000 (2020) 51000 (2017) 80800 51200 51400 62300 121000 132000
2020-11-09 13:45 6.53 45000 144000 (2020) 51000 (2017) 80800 51200 51400 62300 121000 132000
2020-11-09 12:45 6.53 45000 144000 (2020) 51000 (2017) 80800 51200 51400 62300 121000 132000
2020-11-09 11:45 6.54 45000 144000 (2020) 51000 (2017) 80800 51200 51400 62300 121000 132000
2020-11-09 10:45 6.57 45200 144000 (2020) 51000 (2017) 80800 51200 51400 62300 121000 132000
2020-11-09 09:45 6.57 45200 144000 (2020) 51000 (2017) 80800 51200 51400 62300 121000 132000
2020-11-09 08:45 6.57 45200 144000 (2020) 51000 (2017) 80800 51200 51400 62300 121000 132000
2020-11-09 07:45 6.58 45200 144000 (2020) 51000 (2017) 80800 51200 51400 62300 121000 132000
2020-11-09 06:45 6.61 45300 144000 (2020) 51000 (2017) 80800 51200 51400 62300 121000 132000
2020-11-09 05:45 6.59 45300 144000 (2020) 51000 (2017) 80800 51200 51400 62300 121000 132000
2020-11-09 04:45 6.59 45300 144000 (2020) 51000 (2017) 80800 51200 51400 62300 121000 132000
2020-11-09 03:45 6.59 45300 144000 (2020) 51000 (2017) 80800 51200 51400 62300 121000 132000
2020-11-09 02:45 6.60 45300 144000 (2020) 51000 (2017) 80800 51200 51400 62300 121000 132000
2020-11-09 01:45 6.61 45300 144000 (2020) 51000 (2017) 80800 51200 51400 62300 121000 132000
2020-11-09 00:45 6.61 45300 144000 (2020) 51000 (2017) 80800 51200 51400 62300 121000 132000
2020-11-08 23:45 6.62 45400 144000 (2020) 51700 (2016) 81500 51700 51700 63300 122000 132000
2020-11-08 22:45 6.62 45400 144000 (2020) 51700 (2016) 81500 51700 51700 63300 122000 132000
2020-11-08 21:45 6.61 45300 144000 (2020) 51700 (2016) 81500 51700 51700 63300 122000 132000
2020-11-08 20:45 6.62 45400 144000 (2020) 51700 (2016) 81500 51700 51700 63300 122000 132000
2020-11-08 19:45 6.62 45400 144000 (2020) 51700 (2016) 81500 51700 51700 63300 122000 132000
2020-11-08 18:45 6.61 45300 144000 (2020) 51700 (2016) 81500 51700 51700 63300 122000 132000
2020-11-08 17:45 6.59 45300 144000 (2020) 51700 (2016) 81500 51700 51700 63300 122000 132000
2020-11-08 16:45 6.57 45200 144000 (2020) 51700 (2016) 81500 51700 51700 63300 122000 132000
2020-11-08 15:45 6.63 45400 144000 (2020) 51700 (2016) 81500 51700 51700 63300 122000 132000
2020-11-08 14:45 6.59 45300 144000 (2020) 51700 (2016) 81500 51700 51700 63300 122000 132000
2020-11-08 13:45 6.62 45400 144000 (2020) 51700 (2016) 81500 51700 51700 63300 122000 132000
2020-11-08 12:45 6.62 45400 144000 (2020) 51700 (2016) 81500 51700 51700 63300 122000 132000
2020-11-08 11:45 6.62 45400 144000 (2020) 51700 (2016) 81500 51700 51700 63300 122000 132000
2020-11-08 10:45 6.58 45200 144000 (2020) 51700 (2016) 81500 51700 51700 63300 122000 132000
2020-11-08 09:45 6.56 45100 144000 (2020) 51700 (2016) 81500 51700 51700 63300 122000 132000
2020-11-08 08:45 6.64 45500 144000 (2020) 51700 (2016) 81500 51700 51700 63300 122000 132000
2020-11-08 07:45 6.63 45400 144000 (2020) 51700 (2016) 81500 51700 51700 63300 122000 132000
2020-11-08 06:45 6.63 45400 144000 (2020) 51700 (2016) 81500 51700 51700 63300 122000 132000
2020-11-08 05:45 6.63 45400 144000 (2020) 51700 (2016) 81500 51700 51700 63300 122000 132000
2020-11-08 04:45 6.63 45400 144000 (2020) 51700 (2016) 81500 51700 51700 63300 122000 132000
2020-11-08 03:45 6.64 45500 144000 (2020) 51700 (2016) 81500 51700 51700 63300 122000 132000
2020-11-08 02:45 6.63 45400 144000 (2020) 51700 (2016) 81500 51700 51700 63300 122000 132000
2020-11-08 01:45 6.63 45400 144000 (2020) 51700 (2016) 81500 51700 51700 63300 122000 132000
2020-11-08 00:45 6.64 45500 144000 (2020) 51700 (2016) 81500 51700 51700 63300 122000 132000
2020-11-07 23:45 6.65 45500 144000 (2020) 52200 (2016) 82200 52300 52400 64100 123000 133000
2020-11-07 22:45 6.65 45500 144000 (2020) 52200 (2016) 82200 52300 52400 64100 123000 133000
2020-11-07 21:45 6.65 45500 144000 (2020) 52200 (2016) 82200 52300 52400 64100 123000 133000
2020-11-07 20:45 6.64 45500 144000 (2020) 52200 (2016) 82200 52300 52400 64100 123000 133000
2020-11-07 19:45 6.64 45500 144000 (2020) 52200 (2016) 82200 52300 52400 64100 123000 133000
2020-11-07 18:45 6.62 45400 144000 (2020) 52200 (2016) 82200 52300 52400 64100 123000 133000
2020-11-07 17:45 6.63 45400 144000 (2020) 52200 (2016) 82200 52300 52400 64100 123000 133000
2020-11-07 16:45 6.61 45300 144000 (2020) 52200 (2016) 82200 52300 52400 64100 123000 133000
2020-11-07 15:45 6.59 45300 144000 (2020) 52200 (2016) 82200 52300 52400 64100 123000 133000
2020-11-07 14:45 6.59 45300 144000 (2020) 52200 (2016) 82200 52300 52400 64100 123000 133000
2020-11-07 13:45 6.60 45300 144000 (2020) 52200 (2016) 82200 52300 52400 64100 123000 133000
2020-11-07 12:45 6.59 45300 144000 (2020) 52200 (2016) 82200 52300 52400 64100 123000 133000
2020-11-07 11:45 6.61 45300 144000 (2020) 52200 (2016) 82200 52300 52400 64100 123000 133000
2020-11-07 10:45 6.57 45200 144000 (2020) 52200 (2016) 82200 52300 52400 64100 123000 133000
2020-11-07 09:45 6.59 45300 144000 (2020) 52200 (2016) 82200 52300 52400 64100 123000 133000
2020-11-07 08:45 6.59 45300 144000 (2020) 52200 (2016) 82200 52300 52400 64100 123000 133000
2020-11-07 07:45 6.58 45200 144000 (2020) 52200 (2016) 82200 52300 52400 64100 123000 133000
2020-11-07 06:45 6.58 45200 144000 (2020) 52200 (2016) 82200 52300 52400 64100 123000 133000
2020-11-07 05:45 6.56 45100 144000 (2020) 52200 (2016) 82200 52300 52400 64100 123000 133000
2020-11-07 04:45 6.59 45300 144000 (2020) 52200 (2016) 82200 52300 52400 64100 123000 133000
2020-11-07 03:45 6.57 45200 144000 (2020) 52200 (2016) 82200 52300 52400 64100 123000 133000
2020-11-07 02:45 6.56 45100 144000 (2020) 52200 (2016) 82200 52300 52400 64100 123000 133000
2020-11-07 01:45 6.56 45100 144000 (2020) 52200 (2016) 82200 52300 52400 64100 123000 133000
2020-11-07 00:45 6.55 45100 144000 (2020) 52200 (2016) 82200 52300 52400 64100 123000 133000
2020-11-06 23:45 6.57 45200 146000 (2020) 52800 (2016) 83100 53200 53600 64900 123000 134000
2020-11-06 22:45 6.55 45100 146000 (2020) 52800 (2016) 83100 53200 53600 64900 123000 134000
2020-11-06 21:45 6.55 45100 146000 (2020) 52800 (2016) 83100 53200 53600 64900 123000 134000
2020-11-06 20:45 6.55 45100 146000 (2020) 52800 (2016) 83100 53200 53600 64900 123000 134000
2020-11-06 19:45 6.54 45000 146000 (2020) 52800 (2016) 83100 53200 53600 64900 123000 134000
2020-11-06 18:45 6.53 45000 146000 (2020) 52800 (2016) 83100 53200 53600 64900 123000 134000
2020-11-06 17:45 6.52 44900 146000 (2020) 52800 (2016) 83100 53200 53600 64900 123000 134000
2020-11-06 16:45 6.54 45000 146000 (2020) 52800 (2016) 83100 53200 53600 64900 123000 134000
2020-11-06 15:45 6.51 44900 146000 (2020) 52800 (2016) 83100 53200 53600 64900 123000 134000
2020-11-06 14:45 6.51 44900 146000 (2020) 52800 (2016) 83100 53200 53600 64900 123000 134000
2020-11-06 13:45 6.51 44900 146000 (2020) 52800 (2016) 83100 53200 53600 64900 123000 134000
2020-11-06 12:45 6.49 44800 146000 (2020) 52800 (2016) 83100 53200 53600 64900 123000 134000
2020-11-06 11:45 6.49 44800 146000 (2020) 52800 (2016) 83100 53200 53600 64900 123000 134000
2020-11-06 10:45 6.46 44600 146000 (2020) 52800 (2016) 83100 53200 53600 64900 123000 134000
2020-11-06 09:45 6.45 44600 146000 (2020) 52800 (2016) 83100 53200 53600 64900 123000 134000
2020-11-06 08:45 6.46 44600 146000 (2020) 52800 (2016) 83100 53200 53600 64900 123000 134000
2020-11-06 07:45 6.46 44600 146000 (2020) 52800 (2016) 83100 53200 53600 64900 123000 134000
2020-11-06 06:45 6.47 44700 146000 (2020) 52800 (2016) 83100 53200 53600 64900 123000 134000
2020-11-06 05:45 6.45 44600 146000 (2020) 52800 (2016) 83100 53200 53600 64900 123000 134000
2020-11-06 04:45 6.47 44700 146000 (2020) 52800 (2016) 83100 53200 53600 64900 123000 134000
2020-11-06 03:45 6.45 44600 146000 (2020) 52800 (2016) 83100 53200 53600 64900 123000 134000
2020-11-06 02:45 6.44 44500 146000 (2020) 52800 (2016) 83100 53200 53600 64900 123000 134000
2020-11-06 01:45 6.45 44600 146000 (2020) 52800 (2016) 83100 53200 53600 64900 123000 134000
2020-11-06 00:45 6.46 44600 146000 (2020) 52800 (2016) 83100 53200 53600 64900 123000 134000
2020-11-05 23:45 6.46 44600 151000 (2020) 53300 (2016) 84100 53400 53400 65700 124000 137000
2020-11-05 22:45 6.45 44600 151000 (2020) 53300 (2016) 84100 53400 53400 65700 124000 137000
2020-11-05 21:45 6.46 44600 151000 (2020) 53300 (2016) 84100 53400 53400 65700 124000 137000
2020-11-05 20:45 6.46 44600 151000 (2020) 53300 (2016) 84100 53400 53400 65700 124000 137000
2020-11-05 19:45 6.44 44500 151000 (2020) 53300 (2016) 84100 53400 53400 65700 124000 137000
2020-11-05 18:45 6.47 44700 151000 (2020) 53300 (2016) 84100 53400 53400 65700 124000 137000
2020-11-05 17:45 6.46 44600 151000 (2020) 53300 (2016) 84100 53400 53400 65700 124000 137000
2020-11-05 16:45 6.46 44600 151000 (2020) 53300 (2016) 84100 53400 53400 65700 124000 137000
2020-11-05 15:45 6.37 44200 151000 (2020) 53300 (2016) 84100 53400 53400 65700 124000 137000
2020-11-05 14:45 6.44 44500 151000 (2020) 53300 (2016) 84100 53400 53400 65700 124000 137000
2020-11-05 13:45 6.43 44500 151000 (2020) 53300 (2016) 84100 53400 53400 65700 124000 137000
2020-11-05 12:45 6.45 44600 151000 (2020) 53300 (2016) 84100 53400 53400 65700 124000 137000
2020-11-05 11:45 6.43 44500 151000 (2020) 53300 (2016) 84100 53400 53400 65700 124000 137000
2020-11-05 10:45 6.45 44600 151000 (2020) 53300 (2016) 84100 53400 53400 65700 124000 137000
2020-11-05 09:45 6.46 44600 151000 (2020) 53300 (2016) 84100 53400 53400 65700 124000 137000
2020-11-05 08:45 6.47 44700 151000 (2020) 53300 (2016) 84100 53400 53400 65700 124000 137000
2020-11-05 07:45 6.51 44900 151000 (2020) 53300 (2016) 84100 53400 53400 65700 124000 137000
2020-11-05 06:45 6.46 44600 151000 (2020) 53300 (2016) 84100 53400 53400 65700 124000 137000
2020-11-05 05:45 6.47 44700 151000 (2020) 53300 (2016) 84100 53400 53400 65700 124000 137000
2020-11-05 04:45 6.47 44700 151000 (2020) 53300 (2016) 84100 53400 53400 65700 124000 137000
2020-11-05 03:45 6.48 44700 151000 (2020) 53300 (2016) 84100 53400 53400 65700 124000 137000
2020-11-05 02:45 6.49 44800 151000 (2020) 53300 (2016) 84100 53400 53400 65700 124000 137000
2020-11-05 01:45 6.49 44800 151000 (2020) 53300 (2016) 84100 53400 53400 65700 124000 137000
2020-11-05 00:45 6.52 44900 151000 (2020) 53300 (2016) 84100 53400 53400 65700 124000 137000
2020-11-04 23:45 6.51 44900 156000 (2020) 53100 (2017) 85100 53400 53700 66700 124000 139000
2020-11-04 22:45 6.53 45000 156000 (2020) 53100 (2017) 85100 53400 53700 66700 124000 139000
2020-11-04 21:45 6.53 45000 156000 (2020) 53100 (2017) 85100 53400 53700 66700 124000 139000
2020-11-04 20:45 6.54 45000 156000 (2020) 53100 (2017) 85100 53400 53700 66700 124000 139000
2020-11-04 19:45 6.55 45100 156000 (2020) 53100 (2017) 85100 53400 53700 66700 124000 139000
2020-11-04 18:45 6.54 45000 156000 (2020) 53100 (2017) 85100 53400 53700 66700 124000 139000
2020-11-04 17:45 6.53 45000 156000 (2020) 53100 (2017) 85100 53400 53700 66700 124000 139000
2020-11-04 16:45 6.53 45000 156000 (2020) 53100 (2017) 85100 53400 53700 66700 124000 139000
2020-11-04 15:45 6.53 45000 156000 (2020) 53100 (2017) 85100 53400 53700 66700 124000 139000
2020-11-04 14:45 6.52 44900 156000 (2020) 53100 (2017) 85100 53400 53700 66700 124000 139000
2020-11-04 13:45 6.53 45000 156000 (2020) 53100 (2017) 85100 53400 53700 66700 124000 139000
2020-11-04 12:45 6.55 45100 156000 (2020) 53100 (2017) 85100 53400 53700 66700 124000 139000
2020-11-04 11:45 6.55 45100 156000 (2020) 53100 (2017) 85100 53400 53700 66700 124000 139000
2020-11-04 10:45 6.55 45100 156000 (2020) 53100 (2017) 85100 53400 53700 66700 124000 139000
2020-11-04 09:45 6.55 45100 156000 (2020) 53100 (2017) 85100 53400 53700 66700 124000 139000
2020-11-04 08:45 6.56 45100 156000 (2020) 53100 (2017) 85100 53400 53700 66700 124000 139000
2020-11-04 07:45 6.56 45100 156000 (2020) 53100 (2017) 85100 53400 53700 66700 124000 139000
2020-11-04 06:45 6.59 45300 156000 (2020) 53100 (2017) 85100 53400 53700 66700 124000 139000
2020-11-04 05:45 6.58 45200 156000 (2020) 53100 (2017) 85100 53400 53700 66700 124000 139000
2020-11-04 04:45 6.60 45300 156000 (2020) 53100 (2017) 85100 53400 53700 66700 124000 139000
2020-11-04 03:45 6.60 45300 156000 (2020) 53100 (2017) 85100 53400 53700 66700 124000 139000
2020-11-04 02:45 6.60 45300 156000 (2020) 53100 (2017) 85100 53400 53700 66700 124000 139000
2020-11-04 01:45 6.61 45300 156000 (2020) 53100 (2017) 85100 53400 53700 66700 124000 139000
2020-11-04 00:45 6.61 45300 156000 (2020) 53100 (2017) 85100 53400 53700 66700 124000 139000
2020-11-03 23:45 6.62 45400 157000 (2020) 53200 (2017) 85600 53700 54200 67400 125000 140000
2020-11-03 22:45 6.55 45100 157000 (2020) 53200 (2017) 85600 53700 54200 67400 125000 140000
2020-11-03 21:45 6.62 45400 157000 (2020) 53200 (2017) 85600 53700 54200 67400 125000 140000
2020-11-03 20:45 6.61 45300 157000 (2020) 53200 (2017) 85600 53700 54200 67400 125000 140000
2020-11-03 19:45 6.63 45400 157000 (2020) 53200 (2017) 85600 53700 54200 67400 125000 140000
2020-11-03 18:45 6.62 45400 157000 (2020) 53200 (2017) 85600 53700 54200 67400 125000 140000
2020-11-03 17:45 6.62 45400 157000 (2020) 53200 (2017) 85600 53700 54200 67400 125000 140000
2020-11-03 16:45 6.62 45400 157000 (2020) 53200 (2017) 85600 53700 54200 67400 125000 140000
2020-11-03 15:45 6.64 45500 157000 (2020) 53200 (2017) 85600 53700 54200 67400 125000 140000
2020-11-03 14:45 6.64 45500 157000 (2020) 53200 (2017) 85600 53700 54200 67400 125000 140000
2020-11-03 13:45 6.65 45500 157000 (2020) 53200 (2017) 85600 53700 54200 67400 125000 140000
2020-11-03 12:45 6.66 45600 157000 (2020) 53200 (2017) 85600 53700 54200 67400 125000 140000
2020-11-03 11:45 6.68 45700 157000 (2020) 53200 (2017) 85600 53700 54200 67400 125000 140000
2020-11-03 10:45 6.68 45700 157000 (2020) 53200 (2017) 85600 53700 54200 67400 125000 140000
2020-11-03 09:45 6.68 45700 157000 (2020) 53200 (2017) 85600 53700 54200 67400 125000 140000
2020-11-03 08:45 6.70 45800 157000 (2020) 53200 (2017) 85600 53700 54200 67400 125000 140000
2020-11-03 07:45 6.71 45800 157000 (2020) 53200 (2017) 85600 53700 54200 67400 125000 140000
2020-11-03 06:45 6.70 45800 157000 (2020) 53200 (2017) 85600 53700 54200 67400 125000 140000
2020-11-03 05:45 6.74 46000 157000 (2020) 53200 (2017) 85600 53700 54200 67400 125000 140000
2020-11-03 04:45 6.74 46000 157000 (2020) 53200 (2017) 85600 53700 54200 67400 125000 140000
2020-11-03 03:45 6.72 45900 157000 (2020) 53200 (2017) 85600 53700 54200 67400 125000 140000
2020-11-03 02:45 6.73 45900 157000 (2020) 53200 (2017) 85600 53700 54200 67400 125000 140000
2020-11-03 01:45 6.75 46000 157000 (2020) 53200 (2017) 85600 53700 54200 67400 125000 140000
2020-11-03 00:45 6.76 46100 157000 (2020) 53200 (2017) 85600 53700 54200 67400 125000 140000
2020-11-02 23:45 6.78 46200 161000 (2020) 51400 (2017) 86300 52400 53300 68200 127000 143000
2020-11-02 22:45 6.79 46200 161000 (2020) 51400 (2017) 86300 52400 53300 68200 127000 143000
2020-11-02 21:45 6.80 46300 161000 (2020) 51400 (2017) 86300 52400 53300 68200 127000 143000
2020-11-02 20:45 6.83 46400 161000 (2020) 51400 (2017) 86300 52400 53300 68200 127000 143000
2020-11-02 19:45 6.84 46500 161000 (2020) 51400 (2017) 86300 52400 53300 68200 127000 143000
2020-11-02 18:45 6.85 46500 161000 (2020) 51400 (2017) 86300 52400 53300 68200 127000 143000
2020-11-02 17:45 6.86 46600 161000 (2020) 51400 (2017) 86300 52400 53300 68200 127000 143000
2020-11-02 16:45 6.86 46600 161000 (2020) 51400 (2017) 86300 52400 53300 68200 127000 143000
2020-11-02 15:45 6.90 46800 161000 (2020) 51400 (2017) 86300 52400 53300 68200 127000 143000
2020-11-02 14:45 6.88 46700 161000 (2020) 51400 (2017) 86300 52400 53300 68200 127000 143000
2020-11-02 13:45 6.90 46800 161000 (2020) 51400 (2017) 86300 52400 53300 68200 127000 143000
2020-11-02 12:45 6.92 46800 161000 (2020) 51400 (2017) 86300 52400 53300 68200 127000 143000
2020-11-02 11:45 6.92 46800 161000 (2020) 51400 (2017) 86300 52400 53300 68200 127000 143000
2020-11-02 10:45 6.93 46900 161000 (2020) 51400 (2017) 86300 52400 53300 68200 127000 143000
2020-11-02 09:45 6.95 47000 161000 (2020) 51400 (2017) 86300 52400 53300 68200 127000 143000
2020-11-02 08:45 6.98 47100 161000 (2020) 51400 (2017) 86300 52400 53300 68200 127000 143000
2020-11-02 07:45 6.96 47000 161000 (2020) 51400 (2017) 86300 52400 53300 68200 127000 143000
2020-11-02 06:45 7.01 47300 161000 (2020) 51400 (2017) 86300 52400 53300 68200 127000 143000
2020-11-02 05:45 7.00 47200 161000 (2020) 51400 (2017) 86300 52400 53300 68200 127000 143000
2020-11-02 04:45 7.04 47400 161000 (2020) 51400 (2017) 86300 52400 53300 68200 127000 143000
2020-11-02 03:45 7.05 47500 161000 (2020) 51400 (2017) 86300 52400 53300 68200 127000 143000
2020-11-02 02:45 7.07 47600 161000 (2020) 51400 (2017) 86300 52400 53300 68200 127000 143000
2020-11-02 01:45 7.07 47600 161000 (2020) 51400 (2017) 86300 52400 53300 68200 127000 143000
2020-11-02 00:45 7.09 47700 161000 (2020) 51400 (2017) 86300 52400 53300 68200 127000 143000
2020-11-01 23:45 7.08 47600 171000 (2020) 51000 (2017) 88700 51900 52600 69400 131000 150000
2020-11-01 22:45 7.09 47700 171000 (2020) 51000 (2017) 88700 51900 52600 69400 131000 150000
2020-11-01 21:45 7.12 47800 171000 (2020) 51000 (2017) 88700 51900 52600 69400 131000 150000
2020-11-01 20:45 7.11 47800 171000 (2020) 51000 (2017) 88700 51900 52600 69400 131000 150000
2020-11-01 19:45 7.12 47800 171000 (2020) 51000 (2017) 88700 51900 52600 69400 131000 150000
2020-11-01 18:45 7.13 47900 171000 (2020) 51000 (2017) 88700 51900 52600 69400 131000 150000
2020-11-01 17:45 7.15 48000 171000 (2020) 51000 (2017) 88700 51900 52600 69400 131000 150000
2020-11-01 16:45 7.14 47900 171000 (2020) 51000 (2017) 88700 51900 52600 69400 131000 150000
2020-11-01 15:45 7.16 48000 171000 (2020) 51000 (2017) 88700 51900 52600 69400 131000 150000
2020-11-01 14:45 7.17 48100 171000 (2020) 51000 (2017) 88700 51900 52600 69400 131000 150000
2020-11-01 13:45 7.14 47900 171000 (2020) 51000 (2017) 88700 51900 52600 69400 131000 150000
2020-11-01 12:45 7.14 47900 171000 (2020) 51000 (2017) 88700 51900 52600 69400 131000 150000
2020-11-01 09:45 6.82 46400 171000 (2020) 51000 (2017) 88700 51900 52600 69400 131000 150000
2020-11-01 07:45 7.15 48000 171000 (2020) 51000 (2017) 88700 51900 52600 69400 131000 150000
2020-11-01 06:45 7.17 48100 171000 (2020) 51000 (2017) 88700 51900 52600 69400 131000 150000
2020-11-01 05:45 7.17 48100 171000 (2020) 51000 (2017) 88700 51900 52600 69400 131000 150000
2020-11-01 03:45 7.15 48000 171000 (2020) 51000 (2017) 88700 51900 52600 69400 131000 150000
2020-11-01 02:45 7.14 47900 171000 (2020) 51000 (2017) 88700 51900 52600 69400 131000 150000
2020-11-01 00:45 7.15 48000 171000 (2020) 51000 (2017) 88700 51900 52600 69400 131000 150000
2020-10-31 23:45 7.15 48000 177000 (2020) 51100 (2017) 90400 51900 52600 70700 134000 154000
2020-10-31 22:45 7.13 47900 177000 (2020) 51100 (2017) 90400 51900 52600 70700 134000 154000
2020-10-31 21:45 7.12 47800 177000 (2020) 51100 (2017) 90400 51900 52600 70700 134000 154000
2020-10-31 20:45 7.10 47700 177000 (2020) 51100 (2017) 90400 51900 52600 70700 134000 154000
2020-10-31 19:45 7.12 47800 177000 (2020) 51100 (2017) 90400 51900 52600 70700 134000 154000
2020-10-31 18:45 7.07 47600 177000 (2020) 51100 (2017) 90400 51900 52600 70700 134000 154000
2020-10-31 17:45 7.08 47600 177000 (2020) 51100 (2017) 90400 51900 52600 70700 134000 154000
2020-10-31 16:45 7.07 47600 177000 (2020) 51100 (2017) 90400 51900 52600 70700 134000 154000
2020-10-31 15:45 7.07 47600 177000 (2020) 51100 (2017) 90400 51900 52600 70700 134000 154000
2020-10-31 14:45 7.04 47400 177000 (2020) 51100 (2017) 90400 51900 52600 70700 134000 154000
2020-10-31 13:45 7.01 47300 177000 (2020) 51100 (2017) 90400 51900 52600 70700 134000 154000
2020-10-31 12:45 7.05 47500 177000 (2020) 51100 (2017) 90400 51900 52600 70700 134000 154000
2020-10-31 11:45 7.02 47300 177000 (2020) 51100 (2017) 90400 51900 52600 70700 134000 154000
2020-10-31 10:45 7.03 47400 177000 (2020) 51100 (2017) 90400 51900 52600 70700 134000 154000
2020-10-31 09:45 7.01 47300 177000 (2020) 51100 (2017) 90400 51900 52600 70700 134000 154000
2020-10-31 08:45 7.02 47300 177000 (2020) 51100 (2017) 90400 51900 52600 70700 134000 154000
2020-10-31 07:45 6.99 47200 177000 (2020) 51100 (2017) 90400 51900 52600 70700 134000 154000
2020-10-31 06:45 6.99 47200 177000 (2020) 51100 (2017) 90400 51900 52600 70700 134000 154000
2020-10-31 05:45 6.97 47100 177000 (2020) 51100 (2017) 90400 51900 52600 70700 134000 154000
2020-10-31 04:45 6.97 47100 177000 (2020) 51100 (2017) 90400 51900 52600 70700 134000 154000
2020-10-31 03:45 6.95 47000 177000 (2020) 51100 (2017) 90400 51900 52600 70700 134000 154000
2020-10-31 02:45 6.96 47000 177000 (2020) 51100 (2017) 90400 51900 52600 70700 134000 154000
2020-10-31 01:45 6.96 47000 177000 (2020) 51100 (2017) 90400 51900 52600 70700 134000 154000
2020-10-31 00:45 6.96 47000 177000 (2020) 51100 (2017) 90400 51900 52600 70700 134000 154000
2020-10-30 23:45 6.93 46900 162000 (2020) 51400 (2017) 87900 51800 52200 71900 129000 144000
2020-10-30 22:45 6.94 46900 162000 (2020) 51400 (2017) 87900 51800 52200 71900 129000 144000
2020-10-30 21:45 6.92 46800 162000 (2020) 51400 (2017) 87900 51800 52200 71900 129000 144000
2020-10-30 20:45 6.93 46900 162000 (2020) 51400 (2017) 87900 51800 52200 71900 129000 144000
2020-10-30 19:45 6.92 46800 162000 (2020) 51400 (2017) 87900 51800 52200 71900 129000 144000
2020-10-30 18:45 6.91 46800 162000 (2020) 51400 (2017) 87900 51800 52200 71900 129000 144000
2020-10-30 17:45 6.91 46800 162000 (2020) 51400 (2017) 87900 51800 52200 71900 129000 144000
2020-10-30 16:45 6.93 46900 162000 (2020) 51400 (2017) 87900 51800 52200 71900 129000 144000
2020-10-30 15:45 6.92 46800 162000 (2020) 51400 (2017) 87900 51800 52200 71900 129000 144000
2020-10-30 14:45 6.91 46800 162000 (2020) 51400 (2017) 87900 51800 52200 71900 129000 144000
2020-10-30 13:45 6.92 46800 162000 (2020) 51400 (2017) 87900 51800 52200 71900 129000 144000
2020-10-30 12:45 6.90 46800 162000 (2020) 51400 (2017) 87900 51800 52200 71900 129000 144000
2020-10-30 11:45 6.92 46800 162000 (2020) 51400 (2017) 87900 51800 52200 71900 129000 144000
2020-10-30 10:45 6.92 46800 162000 (2020) 51400 (2017) 87900 51800 52200 71900 129000 144000
2020-10-30 09:45 6.91 46800 162000 (2020) 51400 (2017) 87900 51800 52200 71900 129000 144000
2020-10-30 08:45 6.91 46800 162000 (2020) 51400 (2017) 87900 51800 52200 71900 129000 144000
2020-10-30 07:45 6.92 46800 162000 (2020) 51400 (2017) 87900 51800 52200 71900 129000 144000
2020-10-30 06:45 6.91 46800 162000 (2020) 51400 (2017) 87900 51800 52200 71900 129000 144000
2020-10-30 05:45 6.92 46800 162000 (2020) 51400 (2017) 87900 51800 52200 71900 129000 144000
2020-10-30 04:45 6.92 46800 162000 (2020) 51400 (2017) 87900 51800 52200 71900 129000 144000
2020-10-30 03:45 6.91 46800 162000 (2020) 51400 (2017) 87900 51800 52200 71900 129000 144000
2020-10-30 02:45 6.91 46800 162000 (2020) 51400 (2017) 87900 51800 52200 71900 129000 144000
2020-10-30 01:45 6.91 46800 162000 (2020) 51400 (2017) 87900 51800 52200 71900 129000 144000
2020-10-30 00:45 6.92 46800 162000 (2020) 51400 (2017) 87900 51800 52200 71900 129000 144000
2020-10-29 23:45 6.93 46900 147000 (2020) 51600 (2017) 85900 51700 51700 73900 124000 135000
2020-10-29 22:45 6.93 46900 147000 (2020) 51600 (2017) 85900 51700 51700 73900 124000 135000
2020-10-29 21:45 6.95 47000 147000 (2020) 51600 (2017) 85900 51700 51700 73900 124000 135000
2020-10-29 20:45 6.94 46900 147000 (2020) 51600 (2017) 85900 51700 51700 73900 124000 135000
2020-10-29 19:45 6.95 47000 147000 (2020) 51600 (2017) 85900 51700 51700 73900 124000 135000
2020-10-29 18:45 6.94 46900 147000 (2020) 51600 (2017) 85900 51700 51700 73900 124000 135000
2020-10-29 17:45 6.97 47100 147000 (2020) 51600 (2017) 85900 51700 51700 73900 124000 135000
2020-10-29 16:45 6.85 46500 147000 (2020) 51600 (2017) 85900 51700 51700 73900 124000 135000
2020-10-29 15:45 6.96 47000 147000 (2020) 51600 (2017) 85900 51700 51700 73900 124000 135000
2020-10-29 14:45 6.96 47000 147000 (2020) 51600 (2017) 85900 51700 51700 73900 124000 135000
2020-10-29 13:45 6.96 47000 147000 (2020) 51600 (2017) 85900 51700 51700 73900 124000 135000
2020-10-29 12:45 6.95 47000 147000 (2020) 51600 (2017) 85900 51700 51700 73900 124000 135000
2020-10-29 11:45 6.99 47200 147000 (2020) 51600 (2017) 85900 51700 51700 73900 124000 135000
2020-10-29 10:45 6.97 47100 147000 (2020) 51600 (2017) 85900 51700 51700 73900 124000 135000
2020-10-29 09:45 6.99 47200 147000 (2020) 51600 (2017) 85900 51700 51700 73900 124000 135000
2020-10-29 08:45 6.99 47200 147000 (2020) 51600 (2017) 85900 51700 51700 73900 124000 135000
2020-10-29 07:45 6.99 47200 147000 (2020) 51600 (2017) 85900 51700 51700 73900 124000 135000
2020-10-29 06:45 7.00 47200 147000 (2020) 51600 (2017) 85900 51700 51700 73900 124000 135000
2020-10-29 05:45 6.99 47200 147000 (2020) 51600 (2017) 85900 51700 51700 73900 124000 135000
2020-10-29 04:45 7.02 47300 147000 (2020) 51600 (2017) 85900 51700 51700 73900 124000 135000
2020-10-29 03:45 7.02 47300 147000 (2020) 51600 (2017) 85900 51700 51700 73900 124000 135000
2020-10-29 02:45 7.03 47400 147000 (2020) 51600 (2017) 85900 51700 51700 73900 124000 135000
2020-10-29 01:45 7.01 47300 147000 (2020) 51600 (2017) 85900 51700 51700 73900 124000 135000
2020-10-29 00:45 7.02 47300 147000 (2020) 51600 (2017) 85900 51700 51700 73900 124000 135000
2020-10-28 23:45 7.01 47300 147000 (2020) 51500 (2016) 86900 51900 52200 75600 126000 136000
2020-10-28 22:45 6.96 47000 147000 (2020) 51500 (2016) 86900 51900 52200 75600 126000 136000
2020-10-28 21:45 6.99 47200 147000 (2020) 51500 (2016) 86900 51900 52200 75600 126000 136000
2020-10-28 20:45 6.93 46900 147000 (2020) 51500 (2016) 86900 51900 52200 75600 126000 136000
2020-10-28 19:45 6.99 47200 147000 (2020) 51500 (2016) 86900 51900 52200 75600 126000 136000
2020-10-28 18:45 6.98 47100 147000 (2020) 51500 (2016) 86900 51900 52200 75600 126000 136000
2020-10-28 17:45 6.99 47200 147000 (2020) 51500 (2016) 86900 51900 52200 75600 126000 136000
2020-10-28 16:45 7.02 47300 147000 (2020) 51500 (2016) 86900 51900 52200 75600 126000 136000
2020-10-28 15:45 7.01 47300 147000 (2020) 51500 (2016) 86900 51900 52200 75600 126000 136000
2020-10-28 14:45 7.01 47300 147000 (2020) 51500 (2016) 86900 51900 52200 75600 126000 136000
2020-10-28 13:45 7.01 47300 147000 (2020) 51500 (2016) 86900 51900 52200 75600 126000 136000
2020-10-28 12:45 7.04 47400 147000 (2020) 51500 (2016) 86900 51900 52200 75600 126000 136000
2020-10-28 11:45 7.02 47300 147000 (2020) 51500 (2016) 86900 51900 52200 75600 126000 136000
2020-10-28 10:45 7.03 47400 147000 (2020) 51500 (2016) 86900 51900 52200 75600 126000 136000
2020-10-28 09:45 7.03 47400 147000 (2020) 51500 (2016) 86900 51900 52200 75600 126000 136000
2020-10-28 08:45 7.02 47300 147000 (2020) 51500 (2016) 86900 51900 52200 75600 126000 136000
2020-10-28 07:45 7.03 47400 147000 (2020) 51500 (2016) 86900 51900 52200 75600 126000 136000
2020-10-28 06:45 7.02 47300 147000 (2020) 51500 (2016) 86900 51900 52200 75600 126000 136000
2020-10-28 05:45 7.02 47300 147000 (2020) 51500 (2016) 86900 51900 52200 75600 126000 136000
2020-10-28 04:45 7.03 47400 147000 (2020) 51500 (2016) 86900 51900 52200 75600 126000 136000
2020-10-28 03:45 7.03 47400 147000 (2020) 51500 (2016) 86900 51900 52200 75600 126000 136000
2020-10-28 02:45 7.04 47400 147000 (2020) 51500 (2016) 86900 51900 52200 75600 126000 136000
2020-10-28 01:45 7.04 47400 147000 (2020) 51500 (2016) 86900 51900 52200 75600 126000 136000
2020-10-28 00:45 7.02 47300 147000 (2020) 51500 (2016) 86900 51900 52200 75600 126000 136000
2020-10-27 23:45 7.06 47500 152000 (2020) 51100 (2016) 89100 52000 52800 77500 130000 140000
2020-10-27 22:45 7.04 47400 152000 (2020) 51100 (2016) 89100 52000 52800 77500 130000 140000
2020-10-27 21:45 7.04 47400 152000 (2020) 51100 (2016) 89100 52000 52800 77500 130000 140000
2020-10-27 20:45 7.05 47500 152000 (2020) 51100 (2016) 89100 52000 52800 77500 130000 140000
2020-10-27 19:45 7.04 47400 152000 (2020) 51100 (2016) 89100 52000 52800 77500 130000 140000
2020-10-27 18:45 7.06 47500 152000 (2020) 51100 (2016) 89100 52000 52800 77500 130000 140000
2020-10-27 17:45 7.09 47700 152000 (2020) 51100 (2016) 89100 52000 52800 77500 130000 140000
2020-10-27 16:45 7.07 47600 152000 (2020) 51100 (2016) 89100 52000 52800 77500 130000 140000
2020-10-27 15:45 7.08 47600 152000 (2020) 51100 (2016) 89100 52000 52800 77500 130000 140000
2020-10-27 14:45 7.08 47600 152000 (2020) 51100 (2016) 89100 52000 52800 77500 130000 140000
2020-10-27 13:45 7.04 47400 152000 (2020) 51100 (2016) 89100 52000 52800 77500 130000 140000
2020-10-27 12:45 7.07 47600 152000 (2020) 51100 (2016) 89100 52000 52800 77500 130000 140000
2020-10-27 11:45 7.08 47600 152000 (2020) 51100 (2016) 89100 52000 52800 77500 130000 140000
2020-10-27 10:45 7.09 47700 152000 (2020) 51100 (2016) 89100 52000 52800 77500 130000 140000
2020-10-27 09:45 7.08 47600 152000 (2020) 51100 (2016) 89100 52000 52800 77500 130000 140000
2020-10-27 08:45 7.08 47600 152000 (2020) 51100 (2016) 89100 52000 52800 77500 130000 140000
2020-10-27 07:45 7.09 47700 152000 (2020) 51100 (2016) 89100 52000 52800 77500 130000 140000
2020-10-27 06:45 7.10 47700 152000 (2020) 51100 (2016) 89100 52000 52800 77500 130000 140000
2020-10-27 05:45 7.10 47700 152000 (2020) 51100 (2016) 89100 52000 52800 77500 130000 140000
2020-10-27 04:45 7.09 47700 152000 (2020) 51100 (2016) 89100 52000 52800 77500 130000 140000
2020-10-27 03:45 7.10 47700 152000 (2020) 51100 (2016) 89100 52000 52800 77500 130000 140000
2020-10-27 02:45 7.11 47800 152000 (2020) 51100 (2016) 89100 52000 52800 77500 130000 140000
2020-10-27 01:45 7.11 47800 152000 (2020) 51100 (2016) 89100 52000 52800 77500 130000 140000
2020-10-27 00:45 7.12 47800 152000 (2020) 51100 (2016) 89100 52000 52800 77500 130000 140000
2020-10-26 23:45 7.11 47800 160000 (2020) 51100 (2016) 92000 52200 53200 80600 135000 146000
2020-10-26 22:45 7.12 47800 160000 (2020) 51100 (2016) 92000 52200 53200 80600 135000 146000
2020-10-26 21:45 7.11 47800 160000 (2020) 51100 (2016) 92000 52200 53200 80600 135000 146000
2020-10-26 20:45 7.12 47800 160000 (2020) 51100 (2016) 92000 52200 53200 80600 135000 146000
2020-10-26 19:45 7.12 47800 160000 (2020) 51100 (2016) 92000 52200 53200 80600 135000 146000
2020-10-26 18:45 7.12 47800 160000 (2020) 51100 (2016) 92000 52200 53200 80600 135000 146000
2020-10-26 17:45 7.10 47700 160000 (2020) 51100 (2016) 92000 52200 53200 80600 135000 146000
2020-10-26 16:45 7.13 47900 160000 (2020) 51100 (2016) 92000 52200 53200 80600 135000 146000
2020-10-26 15:45 7.13 47900 160000 (2020) 51100 (2016) 92000 52200 53200 80600 135000 146000
2020-10-26 14:45 7.11 47800 160000 (2020) 51100 (2016) 92000 52200 53200 80600 135000 146000
2020-10-26 13:45 7.11 47800 160000 (2020) 51100 (2016) 92000 52200 53200 80600 135000 146000
2020-10-26 12:45 7.10 47700 160000 (2020) 51100 (2016) 92000 52200 53200 80600 135000 146000
2020-10-26 11:45 7.10 47700 160000 (2020) 51100 (2016) 92000 52200 53200 80600 135000 146000
2020-10-26 10:45 7.07 47600 160000 (2020) 51100 (2016) 92000 52200 53200 80600 135000 146000
2020-10-26 09:45 7.05 47500 160000 (2020) 51100 (2016) 92000 52200 53200 80600 135000 146000
2020-10-26 08:45 7.07 47600 160000 (2020) 51100 (2016) 92000 52200 53200 80600 135000 146000
2020-10-26 07:45 7.04 47400 160000 (2020) 51100 (2016) 92000 52200 53200 80600 135000 146000
2020-10-26 06:45 7.06 47500 160000 (2020) 51100 (2016) 92000 52200 53200 80600 135000 146000
2020-10-26 05:45 7.05 47500 160000 (2020) 51100 (2016) 92000 52200 53200 80600 135000 146000
2020-10-26 04:45 7.05 47500 160000 (2020) 51100 (2016) 92000 52200 53200 80600 135000 146000
2020-10-26 03:45 7.05 47500 160000 (2020) 51100 (2016) 92000 52200 53200 80600 135000 146000
2020-10-26 02:45 7.05 47500 160000 (2020) 51100 (2016) 92000 52200 53200 80600 135000 146000
2020-10-26 01:45 7.03 47400 160000 (2020) 51100 (2016) 92000 52200 53200 80600 135000 146000
2020-10-26 00:45 7.02 47300 160000 (2020) 51100 (2016) 92000 52200 53200 80600 135000 146000
2020-10-25 23:45 7.02 47300 166000 (2020) 51100 (2016) 95800 52300 53300 87400 138000 151000
2020-10-25 22:45 7.03 47400 166000 (2020) 51100 (2016) 95800 52300 53300 87400 138000 151000
2020-10-25 21:45 7.02 47300 166000 (2020) 51100 (2016) 95800 52300 53300 87400 138000 151000
2020-10-25 20:45 6.99 47200 166000 (2020) 51100 (2016) 95800 52300 53300 87400 138000 151000
2020-10-25 19:45 7.01 47300 166000 (2020) 51100 (2016) 95800 52300 53300 87400 138000 151000
2020-10-25 18:45 7.02 47300 166000 (2020) 51100 (2016) 95800 52300 53300 87400 138000 151000
2020-10-25 17:45 7.00 47200 166000 (2020) 51100 (2016) 95800 52300 53300 87400 138000 151000
2020-10-25 16:45 7.00 47200 166000 (2020) 51100 (2016) 95800 52300 53300 87400 138000 151000
2020-10-25 15:45 6.98 47100 166000 (2020) 51100 (2016) 95800 52300 53300 87400 138000 151000
2020-10-25 14:45 6.96 47000 166000 (2020) 51100 (2016) 95800 52300 53300 87400 138000 151000
2020-10-25 13:45 6.98 47100 166000 (2020) 51100 (2016) 95800 52300 53300 87400 138000 151000
2020-10-25 12:45 6.97 47100 166000 (2020) 51100 (2016) 95800 52300 53300 87400 138000 151000
2020-10-25 11:45 6.96 47000 166000 (2020) 51100 (2016) 95800 52300 53300 87400 138000 151000
2020-10-25 10:45 6.97 47100 166000 (2020) 51100 (2016) 95800 52300 53300 87400 138000 151000
2020-10-25 09:45 6.96 47000 166000 (2020) 51100 (2016) 95800 52300 53300 87400 138000 151000
2020-10-25 08:45 6.98 47100 166000 (2020) 51100 (2016) 95800 52300 53300 87400 138000 151000
2020-10-25 07:45 6.97 47100 166000 (2020) 51100 (2016) 95800 52300 53300 87400 138000 151000
2020-10-25 06:45 6.94 46900 166000 (2020) 51100 (2016) 95800 52300 53300 87400 138000 151000
2020-10-25 05:45 6.95 47000 166000 (2020) 51100 (2016) 95800 52300 53300 87400 138000 151000
2020-10-25 04:45 6.93 46900 166000 (2020) 51100 (2016) 95800 52300 53300 87400 138000 151000
2020-10-25 03:45 6.93 46900 166000 (2020) 51100 (2016) 95800 52300 53300 87400 138000 151000
2020-10-25 02:45 6.94 46900 166000 (2020) 51100 (2016) 95800 52300 53300 87400 138000 151000
2020-10-25 01:45 6.94 46900 166000 (2020) 51100 (2016) 95800 52300 53300 87400 138000 151000
2020-10-25 00:45 6.93 46900 166000 (2020) 51100 (2016) 95800 52300 53300 87400 138000 151000

A total of 2186 rows are displayed for years 2015 through 2020.